[[{"header":{"parameterUnit":"m.s-1","parameterCategory":1,"la1":31.0,"la2":29.5877,"lo1":-88.7671,"lo2":-86.6584,"dy":0.0162,"dx":0.0185,"nx":115,"ny":88,"refTime":"2024-04-23T12:00:00:Z","depth":0,"parameterNumber":2,"parameterNumberName":"U-component_of_WINDS"},"data":[0.0,0.0,0.0,0.0,0.0,0.0,0.0,0.0,0.0,0.0,0.0,0.0,0.0,0.0,0.0,0.0,0.0,0.0,0.0,0.0,0.0,0.0,0.0,0.0,0.0,0.0,0.0,0.0,0.0,0.0,0.0,0.0,0.0,0.0,0.0,0.0,0.0,0.0,0.0,0.0,0.0,0.0,0.0,0.0,0.0,0.0,0.0,0.0,0.0,0.0,0.0,0.0,0.0,0.0,0.0,0.0,0.0,0.0,0.0,0.0,0.0,0.0,0.0,0.0,0.0,0.0,0.0,0.0,0.0,0.0,0.0,0.0,0.0,0.0,0.0,0.0,0.0,0.0,0.0,0.0,0.0,0.0,0.0,0.0,0.0,0.0,0.0,0.0,0.0,0.0,0.0,0.0,0.0,0.0,0.0,0.0,0.0,0.0,0.0,0.0,0.0,0.0,0.0,0.0,0.0,0.0,0.0,0.0,0.0,0.0,0.0,0.0,0.0,0.0,0.0,0.0,0.0,0.0,0.0,0.0,0.0,0.0,0.0,0.0,0.0,0.0,0.0,0.0,0.0,0.0,0.0,0.0,0.0,0.0,0.0,0.0,0.0,0.0,0.0,0.0,0.0,0.0,0.0,0.0,0.0,0.0,0.0,0.0,0.0,0.0,0.0,0.0,0.0,0.0,0.0,0.0,0.0,0.0,0.0,0.0,0.0,0.0,0.0,0.0,0.0,0.0,0.0,0.0,0.0,0.0,0.0,0.0,0.0,0.0,0.0,0.0,0.0,0.0,0.0,0.0,0.0,0.0,0.0,0.0,0.0,0.0,0.0,0.0,0.0,0.0,0.0,0.0,0.0,0.0,0.0,0.0,0.0,0.0,0.0,0.0,0.0,0.0,0.0,0.0,0.0,0.0,0.0,0.0,0.0,0.0,0.0,0.0,0.0,0.0,0.0,0.0,0.0,0.0,0.0,0.0,0.0,0.0,0.0,0.0,0.0,0.0,0.0,0.0,0.0,0.0,0.0,0.0,0.0,0.0,0.0,0.0,0.0,0.0,0.0,0.0,0.0,0.0,0.0,0.0,0.0,0.0,0.0,0.0,0.0,0.0,0.0,0.0,0.0,0.0,0.0,0.0,0.0,0.0,0.0,0.0,0.0,0.0,0.0,0.0,0.0,0.0,0.0,0.0,0.0,0.0,0.0,0.0,0.0,0.0,0.0,0.0,0.0,0.0,0.0,0.0,0.0,0.0,0.0,0.0,0.0,0.0,0.0,0.0,0.0,0.0,0.0,0.0,0.0,0.0,0.0,0.0,0.0,0.0,0.0,0.0,0.0,0.0,0.0,0.0,0.0,0.0,0.0,0.0,0.0,0.0,0.0,0.0,0.0,0.0,0.0,0.0,0.0,0.0,0.0,0.0,0.0,0.0,0.0,0.0,0.0,0.0,0.0,0.0,0.0,0.0,0.0,0.0,0.0,0.0,0.0,0.0,0.0,0.0,0.0,0.0,0.0,0.0,0.0,0.0,0.0,0.0,0.0,0.0,0.0,0.0,0.0,0.0,0.0,0.0,0.0,0.0,0.0,0.0,0.0,0.0,0.0,0.0,0.0,0.0,0.0,0.0,0.0,0.0,0.0,0.0,0.0,0.0,0.0,0.0,0.0,0.0,0.0,0.0,0.0,0.0,0.0,0.0,0.0,0.0,0.0,0.0,0.0,0.0,0.0,0.0,0.0,0.0,0.0,0.0,0.0,0.0,0.0,0.0,0.0,0.0,0.0,0.0,0.0,0.0,0.0,0.0,0.0,0.0,0.0,0.0,0.0,0.0,0.0,0.0,0.0,0.0,0.0,0.0,0.0,0.0,0.0,0.0,0.0,0.0,0.0,0.0,0.0,0.0,0.0,0.0,0.0,0.0,0.0,0.0,0.0,0.0,0.0,0.0,0.0,0.0,0.0,0.0,0.0,0.0,0.0,0.0,0.0,0.0,0.0,0.0,0.0,0.0,0.0,0.0,0.0,0.0,0.0,0.0,0.0,0.0,0.0,0.0,0.0,0.0,0.0,0.0,0.0,0.0,0.0,0.0,0.0,0.0,0.0,0.0,0.0,0.0,0.0,0.0,0.0,0.0,0.0,0.0,0.0,0.0,0.0,0.0,0.0,0.0,0.0,0.0,0.0,0.0,0.0,0.0,0.0,0.0,0.0,0.0,0.0,0.0,0.0,0.0,0.0,0.0,0.0,0.0,0.0,0.0,0.0,0.0,0.0,0.0,0.0,0.0,0.0,0.0,0.0,0.0,0.0,0.0,0.0,0.0,0.0,0.0,0.0,0.0,0.0,0.0,0.0,0.0,0.0,0.0,0.0,0.0,0.0,0.0,0.0,0.0,0.0,0.0,0.0,0.0,0.0,0.0,0.0,0.0,0.0,0.0,0.0,0.0,0.0,0.0,0.0,0.0,0.0,0.0,0.0,0.0,0.0,0.0,0.0,0.0,0.0,0.0,0.0,0.0,0.0,0.0,0.0,0.0,0.0,0.0,0.0,0.0,0.0,0.0,0.0,0.0,0.0,0.0,0.0,0.0,0.0,0.0,0.0,0.0,0.0,0.0,0.0,0.0,0.0,0.0,0.0,0.0,0.0,0.0,0.0,0.0,0.0,0.0,0.0,0.0,0.0,0.0,0.0,0.0,0.0,0.0,0.0,0.0,0.0,0.0,0.0,0.0,0.0,0.0,0.0,0.0,0.0,0.0,0.0,0.0,0.0,0.0,0.0,0.0,0.0,0.0,0.0,0.0,0.0,0.0,0.0,0.0,0.0,0.0,0.0,0.0,0.0,0.0,0.0,0.0,0.0,0.0,0.0,0.0,0.0,0.0,0.0,0.0,0.0,0.0,0.0,0.0,0.0,0.0,0.0,0.0,0.0,0.0,0.0,0.0,0.0,0.0,0.0,0.0,0.0,0.0,0.0,0.0,0.0,0.0,0.0,0.0,0.0,0.0,0.0,0.0,0.0,0.0,0.0,0.0,0.0,0.0,0.0,0.0,0.0,0.0,0.0,0.0,0.0,0.0,0.0,0.0,0.0,0.0,0.0,0.0,0.0,0.0,0.0,0.0,0.0,0.0,0.0,0.0,0.0,0.0,0.0,0.0,0.0,0.0,0.0,0.0,0.0,0.0,0.0,0.0,0.0,0.0,0.0,0.0,0.0,0.0,0.0,0.0,0.0,0.0,0.0,0.0,0.0,0.0,0.0,0.0,0.0,0.0,0.0,0.0,0.0,0.0,0.0,0.0,0.0,0.0,0.0,0.0,0.0,0.0,0.0,0.0,0.0,0.0,0.0,0.0,0.0,0.0,0.0,0.0,0.0,0.0,0.0,0.0,0.0,0.0,0.0,0.0,0.0,0.0,0.0,0.0,0.0,0.0,0.0,0.0,0.0,0.0,0.0,0.0,0.0,0.0,0.0,0.0,0.0,0.0,0.0,0.0,0.0,0.0,0.0,0.0,0.0,0.0,0.0,0.0,0.0,0.0,0.0,0.0,0.0,0.0,0.0,0.0,0.0,0.0,0.0,0.0,0.0,0.0,0.0,0.0,0.0,0.0,0.0,0.0,0.0,0.0,0.0,0.0,0.0,0.0,0.0,0.0,0.0,0.0,0.0,0.0,0.0,0.0,0.0,0.0,0.0,0.0,0.0,0.0,0.0,0.0,0.0,0.0,0.0,0.0,0.0,0.0,0.0,0.0,0.0,0.0,0.0,0.0,0.0,0.0,0.0,0.0,0.0,0.0,0.0,0.0,0.0,0.0,0.0,0.0,0.0,0.0,0.0,0.0,0.0,0.0,0.0,0.0,0.0,0.0,0.0,0.0,0.0,0.0,0.0,0.0,0.0,0.0,0.0,0.0,0.0,0.0,0.0,0.0,0.0,0.0,0.0,0.0,0.0,0.0,0.0,0.0,0.0,0.0,0.0,0.0,0.0,0.0,0.0,0.0,0.0,0.0,0.0,0.0,0.0,0.0,0.0,0.0,0.0,0.0,0.0,0.0,0.0,0.0,0.0,0.0,0.0,0.0,0.0,0.0,0.0,0.0,0.0,0.0,0.0,0.0,0.0,0.0,0.0,0.0,0.0,0.0,0.0,0.0,0.0,0.0,0.0,0.0,0.0,0.0,0.0,0.0,0.0,0.0,0.0,0.0,0.0,0.0,0.0,0.0,0.0,0.0,0.0,0.0,0.0,0.0,0.0,0.0,0.0,0.0,0.0,0.0,0.0,0.0,0.0,0.0,0.3943,0.0,0.0,0.0,0.0,0.0,0.0,0.0,0.0,0.0,0.0,0.0,0.0,0.0,0.0,0.0,0.0,0.0,0.0,0.0,0.0,0.0,0.0,0.0,0.0,0.0,0.0,0.0,0.0,0.0,0.0,0.0,0.0,0.0,0.0,0.0,0.0,0.0,0.0,0.0,0.0,0.0,0.0,0.0,0.0,0.0,0.0,0.0,0.0,0.0,0.0,0.0,0.0,0.0,0.0,0.0,0.0,0.0,0.0,0.0,0.0,0.0,0.0,0.0,0.0,0.0,0.0,0.0,0.0,0.0,0.0,0.0,0.0,0.0,0.0,0.0,0.0,0.0,0.0,0.0,0.0,0.0,0.0,0.0,0.0,0.0,0.0,0.0,0.0,0.0,0.0,0.0,0.0,0.0,0.0,0.0,0.0,0.0,0.0,0.0,0.0,0.0,0.0,0.0,0.0,0.0,0.0,0.0,0.0,0.0,0.0,0.4752,0.4964,0.444,0.4222,0.437,0.0,0.0,0.0,0.0,0.0,0.0,0.0,0.0,0.0,0.0,0.0,0.0,0.0,0.0,0.0,0.0,0.0,0.0,0.0,0.0,0.0,0.0,0.0,0.0,0.0,0.0,0.0,0.0,0.0,0.0,0.0,0.0,0.0,0.0,0.0,0.0,0.0,0.0,0.0,0.0,0.0,0.0,0.0,0.0,0.0,0.0,0.0,0.0,0.0,0.0,0.0,0.0,0.0,0.0,0.0,0.0,0.0,0.0,0.0,0.0,0.0,0.0,0.0,0.0,0.0,0.0,0.0,0.0,0.0,0.0,0.0,0.0,0.0,0.0,0.0,0.0,0.0,0.0,0.0,0.0,0.0,0.0,0.0,0.0,0.0,0.0,0.0,0.0,0.0,0.0,0.0,0.0,0.0,0.0,0.0,0.0,0.0,0.0,0.0,0.0,0.0,0.0,0.0,0.0,0.0,0.0,0.0,0.0,0.0,0.0,0.0,0.0,0.4725,0.4463,0.4671,0.0,0.0,0.0,0.0,0.0,0.0,0.0,0.0,0.0,0.0,0.0,0.0,0.0,0.0,0.0,0.0,0.0,0.0,0.0,0.0,0.0,0.0,0.0,0.0,0.0,0.0,0.0,0.0,0.0,0.0,0.0,0.0,0.0,0.0,0.0,0.0,0.0,0.0,0.0,0.0,0.0,0.0,0.0,0.0,0.0,0.0,0.0,0.0,0.0,0.0,0.0,0.0,0.0,0.0,0.0,0.0,0.0,0.0,0.0,0.0,0.0,0.0,0.0,0.0,0.0,0.0,0.0,0.0,0.0,0.0,0.0,0.0,0.0,0.0,0.0,0.0,0.0,0.0,0.0,0.0,0.0,0.0,0.0,0.0,0.0,0.0,0.0,0.0,0.0,0.0,0.0,0.0,0.0,0.0,0.0,0.0,0.0,0.0,0.0,0.0,0.0,0.0,0.0,0.0,0.0,0.0,0.0,0.0,0.0,0.0,0.5514,0.5308,0.5184,0.0,0.4393,0.0,0.0,0.0,0.0,0.0,0.0,0.0,0.0,0.0,0.0,0.0,0.0,0.0,0.0,0.0,0.0,0.0,0.0,0.0,0.0,0.0,0.0,0.0,0.0,0.0,0.0,0.0,0.0,0.0,0.0,0.0,0.0,0.0,0.0,0.0,0.0,0.0,0.0,0.0,0.0,0.0,0.0,0.0,0.0,0.0,0.0,0.0,0.0,0.0,0.0,0.0,0.0,0.0,0.0,0.0,0.0,0.0,0.0,0.0,0.0,0.0,0.0,0.0,0.0,0.0,0.0,0.0,0.0,0.0,0.0,0.0,0.0,0.0,0.0,0.0,0.0,0.0,0.0,0.0,0.0,0.0,0.0,0.0,0.0,0.0,0.0,0.0,0.0,0.0,0.0,0.0,0.0,0.0,0.0,0.0,0.0,0.0,0.0,0.0,0.0,0.0,0.0,0.0,0.0,0.0,0.0,0.0,0.0,0.0,0.0,0.5787,0.5937,0.5684,0.4988,0.0,0.0,0.0,0.0,0.0,0.0,0.0,0.0,0.0,0.0,0.0,0.0,0.0,0.0,0.0,0.0,0.0,0.0,0.0,0.0,0.0,0.0,0.0,0.0,0.0,0.0,0.0,0.0,0.0,0.0,0.0,0.0,0.0,0.0,0.0,0.0,0.0,0.0,0.0,0.0,0.0,0.0,0.0,0.0,0.0,0.0,0.0,0.0,0.0,0.0,0.0,0.0,0.0,0.0,0.0,0.0,0.0,0.0,0.0,0.0,0.0,0.0,0.0,0.0,0.0,0.0,0.0,0.0,0.0,0.0,0.0,0.0,0.0,0.0,0.0,0.0,0.0,0.0,0.0,0.0,0.0,0.0,0.0,0.0,0.0,0.0,0.0,0.0,0.0,0.0,0.0,0.0,0.0,0.0,0.0,0.0,0.0,0.0,0.0,0.0,0.0,0.0,0.0,0.0,0.0,0.0,0.0,0.0,0.0,0.0,0.5594,0.612,0.6333,0.6002,0.504,0.3442,0.0,0.0,0.0,0.0,0.0,0.0,0.0,0.0,0.0,0.0,0.0,0.0,0.0,0.0,0.0,0.0,0.0,0.0,0.0,0.0,0.0,0.0,0.0,0.0,0.0,0.0,0.0,0.0,0.0,0.0,0.0,0.0,0.0,0.0,0.0,0.0,0.0,0.0,0.0,0.0,0.0,0.0,0.0,0.0,0.0,0.0,0.0,0.0,0.0,0.0,0.0,0.0,0.0,0.0,0.0,0.0,0.0,0.0,0.0,0.0,0.0,0.0,0.0,0.0,0.0,0.0,0.0,0.0,0.0,0.0,0.0,0.0,0.0,0.0,0.0,0.0,0.0,0.0,0.0,0.0,0.0,0.0,0.0,0.0,0.0,0.0,0.0,0.0,0.0,0.0,0.0,0.0,0.0,0.0,0.0,0.0,0.0,0.0,0.0,0.0,0.0,0.0,0.0,0.0,0.0,0.0,0.0,0.0,0.4844,0.608,0.6622,0.6307,0.5981,0.5054,0.0,0.0,0.0,0.0,0.0,0.0,0.0,0.0,0.0,0.0,0.0,0.0,0.0,0.0,0.0,0.0,0.0,0.0,0.0,0.0,0.0,0.0,0.0,0.0,0.0,0.0,0.0,0.0,0.0,0.0,0.0,0.0,0.0,0.0,0.0,0.0,0.0,0.0,0.0,0.0,0.0,0.0,0.0,0.0,0.0,0.0,0.0,0.0,0.0,0.0,0.0,0.0,0.0,0.0,0.0,0.0,0.0,0.0,0.0,0.0,0.0,0.0,0.0,0.0,0.0,0.0,0.0,0.0,0.0,0.0,0.0,0.0,0.0,0.0,0.0,0.0,0.0,0.0,0.0,0.0,0.0,0.0,0.0,0.0,0.0,0.0,0.0,0.0,0.0,0.0,0.0,0.0,0.0,0.0,0.0,0.0,0.0,0.0,0.0,0.0,0.0,0.0,0.0,0.0,0.0,0.0,0.0,0.0,0.0,0.5593,0.6747,0.7037,0.6329,0.5981,0.502,0.0,0.0,0.0,0.0,0.0,0.0,0.0,0.0,0.0,0.0,0.0,0.0,0.0,0.0,0.0,0.0,0.0,0.0,0.0,0.0,0.0,0.0,0.0,0.0,0.0,0.0,0.0,0.0,0.0,0.0,0.0,0.0,0.0,0.0,0.0,0.0,0.0,0.0,0.0,0.0,0.0,0.0,0.0,0.0,0.0,0.0,0.0,0.0,0.0,0.0,0.0,0.0,0.0,0.0,0.0,0.0,0.0,0.0,0.0,0.0,0.0,0.0,0.0,0.0,0.0,0.0,0.0,0.0,0.0,0.0,0.0,0.0,0.0,0.0,0.0,0.0,0.0,0.0,0.0,0.0,0.0,0.0,0.0,0.0,0.0,0.0,0.0,0.0,0.0,0.0,0.0,0.0,0.0,0.0,0.0,0.0,0.0,0.0,0.0,0.0,0.0,0.0,0.0,0.0,0.0,0.0,0.0,0.0,0.0,0.6652,0.0,0.7351,0.6625,0.6067,0.5114,0.0,0.0,0.0,0.0,0.0,0.0,0.0,0.0,0.0,0.0,0.0,0.0,0.0,0.0,0.0,0.0,0.0,0.0,0.0,0.0,0.0,0.0,0.0,0.0,0.0,0.0,0.0,0.0,0.0,0.0,0.0,0.0,0.0,0.0,0.0,0.0,0.0,0.0,0.0,0.0,0.0,0.0,0.0,0.0,0.0,0.0,0.0,0.0,0.0,0.0,0.0,0.0,0.0,0.0,0.0,0.0,0.0,0.0,0.0,0.0,0.0,0.0,0.0,0.0,0.0,0.0,0.0,0.0,0.0,0.0,0.0,0.0,0.0,0.0,0.0,0.0,0.0,0.0,0.0,0.0,0.0,0.0,0.0,0.0,0.0,0.0,0.0,0.0,0.0,0.0,0.0,0.0,0.0,0.0,0.0,0.0,0.0,0.0,0.0,0.0,0.0,0.0,0.0,0.0,0.0,0.0,0.0,0.0,0.6838,0.8001,0.785,0.7577,0.7194,0.6299,0.535,0.0,0.0,0.0,0.0,0.0,0.0,0.0,0.0,0.0,0.0,0.0,0.0,0.0,0.0,0.0,0.0,0.0,0.0,0.0,0.0,0.0,0.0,0.0,0.0,0.0,0.0,0.0,0.0,0.0,0.0,0.0,0.0,0.0,0.0,0.0,0.0,0.0,0.0,0.0,0.0,0.0,0.0,0.0,0.0,0.0,0.0,0.0,0.0,0.0,0.0,0.0,0.0,0.0,0.0,0.0,0.0,0.0,0.0,0.0,0.0,0.0,0.0,0.0,0.0,0.0,0.0,0.0,0.0,0.0,0.0,0.0,0.0,0.0,0.0,0.0,0.0,0.0,0.0,0.0,0.0,0.0,0.0,0.0,0.0,0.0,0.0,0.0,0.0,0.0,0.0,0.0,0.0,0.0,0.0,0.0,0.0,0.0,0.0,0.0,0.0,0.0,0.0,0.0,0.0,0.0,0.0,0.0,0.0,0.0,0.8125,0.8376,0.8126,0.7296,0.6726,0.5748,0.0,0.0,0.0,0.0,0.0,0.0,0.0,0.0,0.0,0.0,0.0,0.0,0.0,0.0,0.0,0.0,0.0,0.0,0.0,0.0,0.0,0.0,0.0,0.0,0.0,0.0,0.0,0.0,0.0,0.0,0.0,0.0,0.0,0.0,0.0,0.0,0.0,0.0,0.0,0.0,0.0,0.0,0.0,0.0,0.0,0.0,0.0,0.0,0.0,0.0,0.0,0.0,0.0,0.0,0.0,0.0,0.0,0.0,0.0,0.0,0.0,0.0,0.0,0.0,0.0,0.0,0.0,0.0,0.0,0.0,0.0,0.0,0.0,0.0,0.0,0.0,0.0,0.0,0.0,0.0,0.0,0.0,0.0,0.0,0.0,0.0,0.0,0.0,0.0,0.0,0.0,0.0,0.0,0.0,0.0,0.0,0.0,0.0,0.0,0.0,0.0,0.0,0.0,0.0,0.0,0.0,0.0,0.0,0.0,0.9037,0.9491,0.9203,0.8071,0.7442,0.6428,0.5054,0.0,0.0,0.0,0.0,0.0,0.0,0.0,0.0,0.0,0.0,0.0,0.0,0.0,0.0,0.0,0.0,0.0,0.0,0.0,0.0,0.0,0.0,0.0,0.0,0.0,0.0,0.0,0.0,0.0,0.0,0.0,0.0,0.0,0.0,0.0,0.0,0.0,0.0,0.0,0.0,0.0,0.0,0.0,0.0,0.0,0.0,0.0,0.0,0.0,0.0,0.0,0.0,0.0,0.0,0.0,0.0,0.0,0.0,0.0,0.0,0.0,0.0,0.0,0.0,0.0,0.0,0.0,0.0,0.0,0.0,0.0,0.0,0.0,0.0,0.0,0.0,0.0,0.0,0.0,0.0,0.0,0.0,0.0,0.0,0.0,0.0,0.0,0.0,0.0,0.0,0.0,0.0,0.0,0.0,0.0,0.0,0.0,0.0,0.0,0.0,0.0,0.0,0.0,0.0,0.0,0.0,0.0,0.0,1.0688,1.1149,1.0751,0.9365,0.8392,0.7315,0.0,0.0,0.0,0.0,0.0,0.0,0.0,0.0,0.0,0.0,0.0,0.0,0.0,0.0,0.0,0.0,0.0,0.0,0.0,0.0,0.0,0.0,0.0,0.0,0.0,0.0,0.0,0.0,0.0,0.0,0.0,0.0,0.0,0.0,0.0,0.0,0.0,0.0,0.0,0.0,0.0,0.0,0.0,0.0,0.0,0.0,0.0,0.0,0.0,0.0,0.0,0.0,0.0,0.0,0.0,0.0,0.0,0.0,0.0,0.0,0.0,0.0,0.0,0.0,0.0,0.0,0.0,0.0,0.0,0.0,0.0,0.0,0.0,0.0,0.0,0.0,0.0,0.0,0.0,0.0,0.0,0.0,0.0,0.0,0.0,0.0,0.0,0.0,0.0,0.0,0.0,0.0,0.0,0.0,0.0,0.0,0.0,0.0,0.0,0.0,0.0,0.0,0.0,0.0,0.0,0.0,0.0,0.0,0.0,1.3063,1.3496,1.2586,1.028,0.9111,0.8038,0.0,0.0,0.0,0.0,0.0,0.0,0.0,0.0,0.0,0.0,0.0,0.0,0.0,0.0,0.0,0.0,0.0,0.0,0.0,0.0,0.0,0.0,0.0,0.0,0.0,0.0,0.0,0.0,0.0,0.0,0.0,0.0,0.0,0.0,0.0,0.0,0.0,0.0,0.0,0.0,0.0,0.0,0.0,0.0,0.0,0.0,0.0,0.0,0.0,0.0,0.0,0.0,0.0,0.0,0.0,0.0,0.0,0.0,0.0,0.0,0.0,0.0,0.0,0.0,0.0,0.0,0.0,0.0,0.0,0.0,0.0,0.0,0.0,0.0,0.0,0.0,0.0,0.0,0.0,0.0,0.0,0.0,0.0,0.0,0.0,0.0,0.0,0.0,0.0,0.0,0.0,0.0,0.0,0.0,0.0,0.0,0.0,0.0,0.0,0.0,0.0,0.0,0.0,0.0,0.0,0.0,0.0,0.0,1.334,1.4037,1.4757,1.4262,1.2472,1.0975,0.9387,0.0,0.0,0.0,0.0,0.0,0.0,0.0,0.0,0.0,0.0,0.0,0.0,0.0,0.0,0.0,0.0,0.0,0.0,0.0,0.0,0.0,0.0,0.0,0.0,0.0,0.0,0.0,0.0,0.0,0.0,0.0,0.0,0.0,0.0,0.0,0.0,0.0,0.0,0.0,0.0,0.0,0.0,0.0,0.0,0.0,0.0,0.0,0.0,0.0,0.0,0.0,0.0,0.0,0.0,0.0,0.0,0.0,0.0,0.0,0.0,0.0,0.0,0.0,0.0,0.0,0.0,0.0,0.0,0.0,0.0,0.0,0.0,0.0,0.0,0.0,0.0,0.0,0.0,0.0,0.0,0.0,0.0,0.0,0.0,0.0,0.0,0.0,0.0,0.0,0.0,0.0,0.0,0.0,0.0,0.0,0.0,0.0,0.0,0.0,0.0,0.0,0.0,0.0,0.0,0.0,0.0,0.0,0.0,1.4453,1.4502,1.5487,1.5822,1.5318,1.327,1.0967,0.0,0.0,0.0,0.0,0.0,0.0,0.0,0.0,0.0,0.0,0.0,0.0,0.0,0.0,0.0,0.0,0.0,0.0,0.0,0.0,0.0,0.0,0.0,0.0,0.0,0.0,0.0,0.0,0.0,0.0,0.0,0.0,0.0,0.0,0.0,0.0,0.0,0.0,0.0,0.0,0.0,0.0,0.0,0.0,0.0,0.0,0.0,0.0,0.0,0.0,0.0,0.0,0.0,0.0,0.0,0.0,0.0,0.0,0.0,0.0,0.0,0.0,0.0,0.0,0.0,0.0,0.0,0.0,0.0,0.0,0.0,0.0,0.0,0.0,0.0,0.0,0.0,0.0,0.0,0.0,0.0,0.0,0.0,0.0,0.0,0.0,0.0,0.0,0.0,0.0,0.0,0.0,0.0,0.0,0.0,0.0,0.0,0.0,0.0,0.0,0.0,0.0,0.0,0.0,0.0,0.0,0.0,0.0,1.5291,1.6884,1.6923,1.7004,1.7142,1.3981,1.154,0.0,0.0,0.0,0.0,0.0,0.0,0.0,0.0,0.0,0.0,0.0,0.0,0.0,0.0,0.0,0.0,0.0,0.0,0.0,0.0,0.0,0.0,0.0,0.0,0.0,0.0,0.0,0.0,0.0,0.0,0.0,0.0,0.0,0.0,0.0,0.0,0.0,0.0,0.0,0.0,0.0,0.0,0.0,0.0,0.0,0.0,0.0,0.0,0.0045,0.0,0.0,0.0,0.0,0.0,0.0,0.0,0.0,0.0,0.0,0.0,0.0,0.0,0.0,0.0,0.0,0.0,0.0,0.0,0.0,0.0,0.0,0.0,0.0,0.0,0.0,0.0,0.0,0.0,0.0,0.0,0.0,0.0,0.0,0.0,0.0,0.0,0.0,0.0,0.0,0.0,0.0,0.0,0.0,0.0,0.0,0.0,0.0,0.0,0.0,0.0,0.0,0.0,0.0,0.0,0.0,0.0,0.0,0.0,1.6516,1.8226,1.8357,1.833,1.813,1.5441,1.2842,0.0,0.0,0.0,0.0,0.0,0.0,0.0,0.0,0.0,0.0,0.0,0.0,0.0,0.0,0.0,0.0,0.0,0.0,0.0,0.0,0.0,0.0,0.0,0.0,0.0,0.0,0.0,0.0,0.0,0.0,0.0,0.0,0.0,0.0,0.0,0.0,0.0,0.0,0.0,0.0,0.0,0.0,0.0,0.0,0.0,0.0,0.0,0.0,0.0,0.0,0.0,0.0,0.0,0.0,0.0,0.0,0.0,0.0,0.0,0.0,0.0,0.0,0.0,0.0,0.0,0.0,0.0,0.0,0.0,0.0,0.0,0.0,0.0,0.0,0.0,0.0,0.0,0.0,0.0,0.0,0.0,0.0,0.0,0.0,0.0,0.0,0.0,0.0,0.0,0.0,0.0,0.0,0.0,0.0,0.0,0.0,0.0,0.0,0.0,0.0,0.0,0.0,0.0,0.0,0.0,0.0,0.0,1.601,1.7833,1.9161,1.966,1.9632,1.899,1.693,1.4169,1.0778,0.0,0.0,0.0,0.0,0.0,0.0,0.0,0.0,0.0,0.0,0.0,0.0,0.0,0.0,0.0,0.0,0.0,0.0,0.0,0.0,0.0,0.0,0.0,0.0,0.0,0.0,0.0,0.0,0.0,0.0,0.0,0.0,0.0,0.0,0.0,0.0,0.0,0.0,0.1914,0.173,0.0,0.0,0.0,0.0,0.0,0.0,0.0,0.0,0.0146,0.0,0.0,0.0,0.0,0.0,0.0,0.0,0.0,0.0,0.0,0.0,0.0,0.0,0.0,0.0,0.0,0.0,0.0,0.0,0.0,0.0,0.0,0.0,0.0,0.0,0.0,0.0,0.0,0.0,0.0,0.0,0.0,0.0,0.0,0.0,0.0,0.0,0.0,0.0,0.0,0.0,0.0,0.0,0.0,0.0,0.0,0.0,0.0,0.0,0.0,0.0,0.0,0.0,0.0,0.0,0.0,1.456,1.6836,1.8717,2.0134,2.0578,2.0504,1.9853,1.7212,1.4396,1.1483,0.0,0.0,0.0,0.0,0.0,0.0,0.0,0.0,0.0,0.0,0.0,0.0,0.0,0.0,0.0,0.0,0.0,0.0,0.0,0.0,0.0,0.0,0.0,0.0,0.0,0.0,0.0,0.0,0.0,0.0,0.0,0.0,0.0,0.0,0.0,0.0,0.0,0.0,0.0,0.259,0.2277,0.0,0.0,0.0,0.0,0.0,0.0,0.0,0.0,0.0081,0.0,0.0,0.0,0.0,0.0,0.0,0.0,0.0,0.0,0.0,0.0,0.0,0.0,0.0,0.0,0.0,0.0,0.0,0.0,0.0,0.0,0.0,0.0,0.0,0.0,0.0,0.0,0.0,0.0,0.0,0.0,0.0,0.0,0.0,0.0,0.0,0.0,0.0,0.0,0.0,0.0,0.0,0.0,0.0,0.0,0.0,0.0,0.0,0.0,0.0,0.0,0.0,0.0,0.0,0.0,1.544,1.7702,1.9586,2.0969,2.1368,2.105,2.0001,1.7568,1.4735,0.0,0.0,0.0,0.0,0.0,0.0,0.0,0.0,0.0,0.0,0.0,0.0,0.0,0.0,0.0,0.0,0.0,0.0,0.0,0.0,0.0,0.0,0.0,0.0,0.0,0.0,0.0,0.0,0.0,0.0,0.0,0.0,0.0,0.0,0.0,0.0,0.0,0.0,0.0,0.0,0.3304,0.3034,0.2752,0.0,0.0,0.0,0.0,0.0,0.0,0.0714,0.0251,0.0,0.0,0.0,0.0,0.0,0.0,0.0,0.0,0.0,0.0,0.0,0.0,0.0,0.0,0.0,0.0,0.0,0.0,0.0,0.0,0.0,0.0,0.0,0.0,0.0,0.0,0.0,0.0,0.0,0.0,0.0,0.0,0.0,0.0,0.0,0.0,0.0,0.0,0.0,0.0,0.0,0.0,0.0,0.0,0.0,0.0,0.0,0.0,0.0,0.0,0.0,0.0,0.0,0.0,0.0,1.6286,1.8571,2.0369,2.1588,2.2106,2.1569,1.9968,1.7811,1.5001,0.0,0.0,0.0,0.0,0.0,0.0,0.0,0.0,0.0,0.0,0.0,0.0,0.0,0.0,0.0,0.0,0.0,0.0,0.0,0.0,0.0,0.0,0.0,0.0,0.0,0.0,0.0,0.0,0.0,0.0,0.0,0.0,0.0,0.0,0.0,0.0,0.0,0.0,0.0,0.0,0.0,0.3733,0.3353,0.306,0.0,0.0,0.0,0.0,0.1548,0.1019,0.0,0.0,0.0,0.0,0.0,0.0,0.0,0.0,0.0,0.0,0.0,0.0,0.0,0.0,0.0,0.0,0.0,0.0,0.0,0.0,0.0,0.0,0.0,0.0,0.0,0.0,0.0,0.0,0.0,0.0,0.0,0.0,0.0,0.0,0.0,0.0,0.0,0.0,0.0,0.0,0.0,0.0,0.0,0.0,0.0,0.0,0.0,0.0,0.0,0.0,0.0,0.0,0.0,0.0,0.0,0.0,1.7223,1.9487,2.1022,2.1784,2.2671,2.2154,2.0033,1.7863,1.5015,0.0,0.0,0.0,0.0,0.0,0.0,0.0,0.0,0.0,0.0,0.0,0.0,0.0,0.0,0.0,0.0,0.0,0.0,0.0,0.0,0.0,0.0,0.0,0.0,0.0,0.0,0.0,0.0,0.0,0.0,0.0,0.0,0.0,0.0,0.0,0.0,0.0,0.0,0.0,0.0,0.0,0.4311,0.4098,0.3875,0.3625,0.0,0.0,0.2604,0.2246,0.1643,0.0,0.0,0.0,0.0,0.0,0.0,0.0,0.0,0.0,0.0,0.0,0.0,0.0,0.0,0.0,0.0,0.0,0.0,0.0,0.0,0.0,0.0,0.0,0.0,0.0,0.0,0.0,0.0,0.0,0.0,0.0,0.0,0.0,0.0,0.0,0.0,0.0,0.0,0.0,0.0,0.0,0.0,0.0,0.0,0.0,0.0,0.0,0.0,0.0,0.0,0.0,0.0,0.0,0.0,0.0,1.5681,1.8063,2.0321,2.18,2.2481,2.3016,2.2224,2.0023,1.7822,1.4925,0.0,0.0,0.0,0.0,0.0,0.0,0.0,0.0,0.0,0.0,0.0,0.0,0.0,0.0,0.0,0.0,0.0,0.0,0.0,0.0,0.0,0.0,0.0,0.0,0.0,0.0,0.0,0.0,0.0,0.0,0.0,0.0,0.0,0.0,0.0,0.0,0.0,0.0,0.0,0.0,0.0,0.0,0.4867,0.4782,0.0,0.0,0.0,0.3155,0.262,0.0,0.0,0.0,0.0,0.0,0.0,0.0,0.0,0.0,0.0,0.0,0.0,0.0,0.0,0.0,0.0,0.0,0.0,0.0,0.0,0.0,0.0,0.0,0.0,0.0,0.0,0.0,0.0,0.0,0.0,0.0,0.0,0.0,0.0,0.0,0.0,0.0,0.0,0.0,0.0,0.0,0.0,0.0,0.0,0.0,0.0,0.0,0.0,0.0,0.0,0.0,0.0,0.0,0.0,0.0,0.0,0.0,1.8634,2.0872,2.2351,2.3013,2.3217,2.2248,2.0006,1.796,0.0,0.0,0.0,0.0,0.0,0.0,0.0,0.0,0.0,0.0,0.0,0.0,0.0,0.0,0.0,0.0,0.0,0.0,0.0,0.0,0.0,0.0,0.0,0.0,0.0,0.0,0.0,0.4817,0.0,0.0,0.0,0.0,0.0,0.0,0.0,0.0,0.0,0.0,0.0,0.0,0.0,0.0,0.5944,0.5561,0.5474,0.5187,0.0,0.0,0.3432,0.2794,0.1946,0.1127,0.0,0.0,0.0,0.0,0.0,0.0,0.0,0.0,0.0,0.0,0.0,0.0,0.0,0.0,0.0,0.0,0.0,0.0,0.0,0.0,0.0,0.0,0.0,0.0,0.0,0.0,0.0,0.0,0.0,0.0,0.0,0.0,0.0,0.0,0.0,0.0,0.0,0.0,0.0,0.0,0.0,0.0,0.0,0.0,0.0,0.0,0.0,0.0,0.0,0.0,0.0,0.0,0.0,0.0,0.0,1.8792,2.0966,2.2427,2.3081,2.3223,2.2271,2.0137,1.8546,1.5983,0.0,0.0,0.0,0.0,0.0,0.0,0.0,0.0,0.0,0.0,0.0,0.0,0.0,0.0,0.0,0.0,0.0,0.0,0.0,0.0,0.0,0.0,0.0,0.0,0.0,0.0,0.0,0.0,0.0,0.0,0.0,0.0,0.0,0.0,0.0,0.0,0.0,0.0,0.0,0.0,0.0,0.6277,0.6158,0.5829,0.5362,0.0,0.4037,0.3406,0.2794,0.1879,0.0983,0.0394,0.0,0.0,0.0,0.0,0.0,0.0,0.0,0.0,0.0,0.0,0.0,0.0,0.0,0.0,0.0,0.0,0.0,0.0,0.0,0.0,0.0,0.0,0.0,0.0,0.0,0.0,0.0,0.0,0.0,0.0,0.0,0.0,0.0,0.0,0.0,0.0,0.0,0.0,0.0,0.0,0.0,0.0,0.0,0.0,0.0,0.0,0.0,0.0,0.0,0.0,0.0,0.0,0.0,1.7439,1.9535,2.1223,2.2651,2.3765,2.3578,2.2594,2.0938,1.9033,1.6553,0.0,0.0,0.0,0.0,0.0,0.0,0.0,0.0,0.0,0.0,0.0,0.0,0.0,0.0,0.0,0.0,0.0,0.0,0.0,0.0,0.0,0.0,0.0,0.0,0.0,0.0,0.0,0.0,0.6358,0.6471,0.6067,0.0,0.0,0.0,0.0,0.0,0.0,0.0,0.0,0.0,0.0,0.6572,0.6501,0.6145,0.0,0.0,0.3959,0.3205,0.2366,0.1433,0.0599,-0.0039,-0.0477,0.0,0.0,0.0,0.0,0.0,0.0,0.0,0.0,0.0,0.0,0.0,0.0,0.0,0.0,0.0,0.0,0.0,0.0,0.0,0.0,0.0,0.0,0.0,0.0,0.0,0.0,0.0,0.0,0.0,0.0,0.0,0.0,0.0,0.0,0.0,0.0,0.0,0.0,0.0,0.0,0.0,0.0,0.0,0.0,0.0,0.0,0.0,0.0,0.0,0.0,0.0,0.0,1.7846,2.0011,2.1399,2.2831,2.4299,2.3803,2.2863,2.1485,1.9605,1.7381,0.0,0.0,0.0,0.0,0.0,0.0,0.0,0.0,0.0,0.0,0.0,0.0,0.0,0.0,0.0,0.0,0.0,0.0,0.0,0.0,0.0,0.0,0.0,0.0,0.0,0.0,0.0,0.0,0.6816,0.6811,0.6401,0.0,0.0,0.0,0.0,0.0,0.0,0.0,0.0,0.0,0.0,0.6599,0.6613,0.5985,0.5222,0.4248,0.3328,0.2443,0.156,0.0636,-0.0121,-0.064,0.0,0.0,0.0,0.0,0.0,0.0,0.0,0.0,0.0,0.0,0.0,0.0,0.0,0.0,0.0,0.0,0.0,0.0,0.0,0.0,0.0,0.0,0.0,0.0,0.0,0.0,0.0,1.1175,0.0,0.0,1.017,0.0,0.0,0.0,0.0,0.0,0.0,0.0,0.0,0.0,0.0,0.0,0.0,0.0,0.0,0.0,0.0,0.0,0.0,0.0,0.0,0.0,0.0,1.8463,2.0088,2.1438,2.2843,2.4315,2.3864,2.3008,2.1753,2.034,1.8532,1.6385,0.0,0.0,0.0,0.0,0.0,0.0,0.0,0.0,0.0,0.0,0.0,0.0,0.0,0.0,0.0,0.0,0.0,0.0,0.0,0.0,0.0,0.0,0.0,0.0,0.0,0.0,0.713,0.7009,0.6794,0.0,0.0,0.0,0.0,0.0,0.0,0.0,0.0,0.0,0.0,0.6511,0.6221,0.6282,0.5308,0.4173,0.3175,0.2039,0.0976,0.0178,-0.0666,-0.1316,0.0,0.0,0.0,0.0,0.0,0.0,0.0,0.0,0.0,0.0,0.0,0.0,0.0,0.0,0.0,0.0,0.0,0.0,0.0,0.0,0.0,0.0,0.0,0.0,0.0,0.0,0.0,1.1952,1.2003,0.0,0.0,0.0,0.0,0.0,0.0,0.0,0.0,0.0,0.0,0.0,1.6268,1.6562,0.0,0.0,0.0,0.0,0.0,0.0,0.0,0.0,0.0,0.0,0.0,0.0,1.8751,2.0821,2.1689,2.2824,2.428,2.3903,2.3348,2.2614,2.1404,1.9339,1.6409,0.0,0.0,0.0,0.0,0.0,0.0,0.0,0.0,0.0,0.0,0.0,0.0,0.0,0.0,0.0,0.0,0.0,0.0,0.0,0.0,0.0,0.0,0.0,0.0,0.0,0.7926,0.0,0.0,0.0,0.0,0.0,0.0,0.0,0.0,0.0,0.0,0.0,0.6071,0.6166,0.5778,0.5461,0.5451,0.4341,0.3159,0.0,0.0,0.0,0.0,0.0,0.0,0.0,0.0,0.0,0.0,0.0,0.0,0.0,0.0,0.1603,0.1509,0.1833,0.2251,0.2514,0.0,0.0,0.0,0.0,0.0,0.0,0.0,0.0,0.0,0.0,0.0,0.0,0.0,0.0,1.3588,0.0,1.3352,0.0,0.0,0.0,0.0,0.0,0.0,0.0,0.0,1.721,1.8013,1.8792,1.9068,1.9057,0.0,1.8744,1.7509,0.0,0.0,0.0,0.0,0.0,0.0,0.0,0.0,1.9445,2.1257,2.2122,2.3123,2.4262,2.4001,2.3628,2.32,2.1927,1.9896,1.7051,1.4609,1.2814,0.0,0.0,0.0,0.0,0.0,0.0,0.0,0.0,0.0,0.0,0.0,0.0,0.0,0.0,0.0,0.0,0.0,0.0,0.0,0.0,0.0,0.0,0.0,0.8518,0.0,0.0,0.0,0.0,0.0,0.0,0.0,0.0,0.0,0.7005,0.6445,0.5762,0.5248,0.4915,0.466,0.4426,0.0,0.0,0.0,0.0,0.0,0.0,0.0,-0.244,-0.2314,-0.2035,-0.1564,-0.0816,0.0258,0.1132,0.1654,0.0,0.0,0.2258,0.2681,0.3132,0.3468,0.3895,0.4278,0.4539,0.474,0.4944,0.0,0.0,0.0,0.0,0.0,0.0,0.0,0.0,1.591,1.5912,0.0,1.5245,0.0,0.0,0.0,0.0,1.6409,1.652,0.0,0.0,1.9688,2.0481,2.124,2.1971,2.1953,2.1218,2.1117,2.0665,1.9769,1.7587,0.0,0.0,0.0,0.0,0.0,0.0,2.0528,2.1352,2.2701,2.3733,2.4369,2.421,2.3858,2.3374,2.1935,2.0243,1.8379,1.7141,1.5448,1.3137,1.187,0.0,0.0,0.0,0.0,0.0,0.0,0.0,0.0,0.0,0.0,0.0,0.0,0.0,0.0,0.0,0.0,0.0,0.0,0.0,0.0,0.8644,0.0,0.0,0.0,0.0,0.0,0.0,0.0,0.0,0.0,0.0,0.6657,0.6308,0.5547,0.4204,0.0,0.0,0.0,0.0,0.0594,-0.0373,-0.1388,-0.2233,-0.2901,-0.3214,-0.3217,-0.2779,0.0,0.0,0.005,0.1057,0.1808,0.2269,0.2866,0.329,0.322,0.371,0.4231,0.4624,0.5149,0.559,0.5883,0.6182,0.649,1.7553,0.0,0.0,0.0,0.0,1.6465,1.6683,1.6693,1.7285,1.7256,1.6813,1.6686,0.0,0.0,0.0,0.0,0.0,0.0,1.9657,2.0623,2.1458,2.1947,2.2142,2.2313,2.2545,2.2806,2.2187,2.2079,2.2364,2.1193,1.9593,1.7709,0.0,0.0,0.0,0.0,2.0842,2.2195,2.3095,2.3873,2.4522,2.4338,2.4018,2.3482,2.2253,2.1198,2.0372,1.8628,1.7007,1.5443,1.3404,0.0,0.0,0.0,0.0,0.0,0.0,0.0,0.0,0.0,0.0,0.0,0.0,0.0,0.0,0.0,0.0,0.0,0.0,0.0,0.9933,0.9566,0.9228,0.0,0.0,0.0,0.0,0.0,0.0,0.0,0.0,0.0,0.5164,0.5402,0.5147,0.0,0.0,0.2881,0.2179,0.0835,-0.0401,-0.1294,-0.2165,0.0,-0.3524,-0.3615,-0.3471,-0.3112,-0.1978,-0.0746,0.0503,0.1312,0.1985,0.2555,0.3193,0.3678,0.4092,0.4477,0.4964,0.5483,0.5883,0.6369,0.6804,0.7092,0.7302,1.9936,1.8638,1.8006,1.7964,1.8349,1.8855,1.9044,1.8988,1.9493,1.9509,1.9125,1.8895,1.887,1.897,1.9012,0.0,0.0,0.0,2.1598,2.2361,2.3228,2.3786,2.4049,2.4327,2.4671,2.4997,2.4486,2.4306,2.4471,2.3691,2.2432,2.072,0.0,0.0,1.8989,2.0123,2.1346,2.2623,2.3324,2.4009,2.4708,2.4491,2.4211,2.3846,2.3038,2.2265,2.1478,1.9799,1.813,1.6485,1.4217,1.2328,0.0,0.0,0.0,0.0,0.0,0.0,0.0,0.0,0.0,0.0,0.0,0.5735,0.6912,0.0,0.0,0.0,0.9943,1.0991,1.1176,1.0819,0.0,0.0,0.0,0.0,0.0,0.0,0.0,0.8051,0.7443,0.6412,0.4815,0.4744,0.4369,0.3239,0.2601,0.1972,0.1129,0.0,-0.1308,-0.2235,-0.3037,-0.3747,-0.4202,-0.421,-0.3886,-0.296,-0.172,-0.0518,0.0525,0.1316,0.1962,0.2593,0.3202,0.3818,0.4391,0.4945,0.5422,0.5933,0.6395,0.6907,0.7354,0.771,0.8015,2.1844,2.1768,2.0238,2.0051,2.0698,2.0788,2.1224,2.1916,2.2033,2.2129,2.2081,2.1478,2.1255,2.1324,2.1453,0.0,2.2786,2.2815,2.3237,2.4049,2.4922,2.5692,2.6447,2.721,2.758,2.7517,2.738,2.6953,2.6208,2.5423,2.4655,2.3888,2.2458,2.0896,1.9374,2.0812,2.1979,2.2711,2.3514,2.4266,2.4886,2.4614,2.4409,2.4327,2.3897,2.3084,2.1901,2.0556,1.8809,1.6602,1.4513,1.2516,1.0626,0.0,0.0,0.0,0.0,0.0,0.0,0.0,0.0,0.0,0.0,0.0,0.0,0.0,0.0,0.0,1.0804,0.0,1.2171,1.2139,0.0,0.0,0.0,1.0929,1.0644,1.0173,0.9593,0.8979,0.0,0.0,0.5082,0.4231,0.3434,0.2578,0.1847,0.106,0.0079,-0.1069,-0.2187,-0.3201,-0.3988,-0.4607,-0.49,-0.4943,-0.4353,-0.2821,-0.1593,-0.0754,0.0111,0.0948,0.1732,0.2291,0.2961,0.3624,0.4239,0.4886,0.5618,0.5968,0.6627,0.723,0.7688,0.8153,0.8619,2.3621,2.3639,2.3253,2.2497,2.166,2.2305,2.237,2.2111,2.2756,2.2757,2.2238,2.2141,2.2161,2.228,2.2412,2.292,2.3688,2.3735,2.4196,2.4995,2.5861,2.637,2.6591,2.7313,2.8013,2.8549,2.7875,2.7771,2.815,2.7408,2.6316,2.4985,2.4648,2.3334,2.1106,2.2036,2.2656,2.2843,2.4285,2.505,2.511,2.4361,2.3907,2.3796,2.2915,2.215,2.1516,2.0082,1.8534,1.6838,1.4449,1.2436,1.0939,0.9219,0.0,0.0,0.0,0.0,0.0,0.0,0.0,0.0,0.0,0.7256,0.8543,0.0,0.9728,0.0,1.1349,1.2566,1.231,1.2268,0.0,0.0,1.216,1.2145,1.1636,1.1353,1.0832,0.9765,0.8677,0.6948,0.4153,0.3516,0.282,0.1436,0.079,0.0126,-0.0941,-0.218,-0.3283,-0.4166,-0.4866,-0.5335,-0.5596,-0.5294,-0.4698,-0.3638,-0.2862,-0.1988,-0.0781,0.0,0.067,0.1454,0.2122,0.2732,0.3297,0.3962,0.457,0.5171,0.6312,0.7402,0.7949,0.8415,0.883,2.4339,2.4446,2.4445,2.3973,2.3247,2.367,2.3612,2.3349,2.3855,2.3837,2.3472,2.3594,2.3702,2.3821,2.388,2.4177,2.4656,2.5048,2.5517,2.6017,2.7224,2.7793,2.7832,2.8627,2.9216,2.964,2.914,2.8941,2.8998,2.8599,2.7557,2.5979,2.5686,2.463,2.289,2.2935,2.3173,2.3572,2.4807,2.5402,2.5321,2.4419,2.3898,2.381,2.2824,2.1909,2.1142,1.9957,1.8551,1.684,1.4566,1.2692,1.1376,0.9598,0.8507,0.0,0.0,0.0,0.0,0.0,0.0,0.0,0.0,0.0,0.0,0.0,1.0744,1.1183,1.2686,1.3666,1.3645,1.3552,1.3547,1.3638,1.3672,1.3436,1.2806,1.2244,1.1612,1.0945,0.8905,0.6313,0.3164,0.2237,0.1344,-0.03,-0.132,-0.1974,-0.2347,-0.3375,-0.4479,-0.5344,-0.6056,-0.6568,-0.6817,-0.6463,-0.5848,-0.4957,-0.4263,-0.3434,-0.2169,-0.1447,-0.0724,0.0167,0.0892,0.1562,0.2291,0.2903,0.3514,0.4174,0.5164,0.6312,0.7295,0.7877,0.8296,2.451,2.4631,2.4623,2.4746,2.4893,2.4741,2.4731,2.4846,2.4888,2.4936,2.4962,2.5157,2.5253,2.5322,2.533,2.5432,2.5635,2.6355,2.6817,2.7078,2.8612,2.9318,2.9357,3.0212,3.0586,3.054,3.0517,3.0128,2.9399,2.9378,2.8636,2.7152,2.6326,2.5486,2.4629,2.382,2.3815,2.4564,2.52,2.5522,2.5523,2.4519,2.399,2.3926,2.2914,2.1825,2.0755,1.9819,1.8498,1.6685,1.4666,1.2976,1.1716,1.0087,0.8992,0.0,0.8246,0.0,0.0,0.0,0.0,0.0,0.0,0.0,0.0,1.085,1.1722,1.3714,1.4485,1.5022,1.5475,1.5325,1.5296,1.5533,1.5133,1.4484,1.3761,1.2701,1.2011,1.2061,0.8773,0.5157,0.1743,0.0576,-0.0555,-0.2177,-0.3783,-0.4622,-0.4328,-0.496,-0.5849,-0.6715,-0.7461,-0.8044,-0.8228,-0.8029,-0.7446,-0.6538,-0.5936,-0.5066,-0.3926,-0.3159,-0.233,-0.1445,-0.0668,0.0167,0.1118,0.1786,0.2399,0.2899,0.3677,0.467,0.6036,0.6907,0.7444,2.4738,2.4783,2.4818,2.4923,2.5068,2.5077,2.5084,2.5043,2.5053,2.5143,2.5245,2.5318,2.5395,2.5464,2.5517,2.5899,2.654,2.6763,2.7262,2.7963,2.8984,2.9481,2.95,3.031,3.0677,3.0661,3.068,3.0583,3.043,3.0422,2.99,2.8903,2.8104,2.7265,2.6408,0.0,0.0,0.0,2.5583,2.5655,2.5615,2.4093,2.3276,2.3259,2.1733,0.0,2.0222,1.8793,1.7444,1.6231,1.4001,0.0,0.0,0.0,0.0,0.0,0.0,0.0,0.0,0.0,0.0,0.0,1.1899,1.1872,1.2047,1.2252,1.3262,1.5241,1.625,1.6747,1.6693,1.6348,1.6014,1.5634,1.5112,1.4392,1.3281,1.2022,1.1441,1.1861,0.7904,0.3377,-0.0712,-0.1634,-0.2314,-0.3971,-0.5593,-0.6869,-0.7574,-0.7369,-0.7552,-0.8306,-0.9001,-0.9438,-0.9607,-0.9415,-0.9044,-0.8403,-0.7929,-0.7175,-0.6152,-0.5345,-0.4419,-0.3262,-0.233,-0.1446,-0.0447,0.0335,0.1004,0.1564,0.2176,0.3174,0.4995,0.5928,0.6583,2.4912,2.4947,2.5012,2.513,0.0,2.5318,2.534,2.531,2.5293,2.5357,2.5441,2.5479,2.5512,2.5546,2.557,2.5816,2.6247,2.7097,2.7711,2.822,2.9492,3.0077,3.0097,3.0507,3.0703,3.0702,3.0702,3.0701,3.0698,3.0704,3.0281,2.9458,2.9003,2.8372,2.7562,2.7136,2.6532,2.5693,2.5702,2.5703,2.5642,2.4431,2.3548,2.309,2.1835,0.0,0.0,0.0,0.0,0.0,0.0,0.0,0.0,1.1759,0.0,1.1963,1.216,1.2594,1.337,1.3686,1.3987,1.4334,1.4708,1.4562,1.3763,1.3663,1.4485,1.6452,1.7836,1.8258,1.7412,1.6853,1.6302,1.5676,1.4751,1.3515,1.1978,1.0286,0.888,0.7731,0.4703,0.0759,-0.3566,-0.4158,-0.4796,-0.6318,-0.7781,-0.9061,-0.9877,-0.9409,-0.914,-0.9995,-1.0485,-1.0839,-1.0948,-1.0897,-1.0637,-1.0222,-0.9798,-0.9165,-0.8227,-0.7435,-0.6474,-0.5175,-0.4142,-0.3157,-0.2003,-0.1114,-0.039,0.0223,0.1005,0.1839,0.3058,0.4278,0.5386,2.5094,2.5134,2.5196,2.529,2.5418,2.549,2.552,2.5515,0.0,0.0,0.0,2.5567,2.5586,2.5581,2.5579,2.5662,2.5915,2.7407,2.8154,2.8379,2.9913,3.065,3.0669,3.0657,3.0652,3.0652,3.0652,3.0667,3.0658,3.0642,3.0327,2.9719,2.9492,2.8994,2.8247,2.8188,2.7527,2.622,2.6003,2.585,2.5685,2.4842,2.4068,2.333,2.2469,2.1601,2.0736,2.0081,1.9247,1.8228,1.6799,1.5503,1.4393,1.3646,1.347,1.3926,1.4093,1.4574,1.5561,1.5958,1.6293,1.6547,1.7199,1.6968,1.5552,1.5107,1.5716,1.7512,1.9105,1.9471,1.8042,1.7129,1.6263,1.5445,1.3893,1.2062,1.0011,0.7768,0.5488,0.3081,0.0749,-0.2318,-0.6313,-0.6903,-0.7302,-0.8754,-0.9921,-1.0981,-1.1756,-1.1223,-1.0856,-1.1548,-1.1913,-1.2101,-1.2258,-1.2267,-1.2169,-1.1805,-1.1548,-1.1073,-1.0207,-0.9386,-0.839,-0.7068,-0.6049,-0.4856,-0.3605,-0.2559,-0.1783,-0.1172,-0.0223,0.0614,0.1061,0.2397,0.384,2.5283,2.5283,2.5333,2.542,2.5488,2.5483,2.5508,2.552,2.5508,2.5543,2.5605,2.5522,2.5514,2.551,2.5504,2.5906,2.6669,2.7594,2.8367,2.907,3.0014,3.0438,3.0458,3.0449,3.0449,3.0449,3.0449,3.046,3.051,3.053,3.0462,3.0279,2.965,2.897,2.8246,2.8199,2.8131,2.7923,2.7203,2.6459,2.5712,2.484,2.4316,2.4109,2.3374,2.2842,2.2609,2.2069,2.1384,2.055,1.9396,1.8345,1.7501,1.6868,1.6717,1.6892,1.7035,1.7267,1.7638,1.7619,1.7584,1.7625,1.8275,1.8205,1.7181,1.6809,1.7214,1.8557,1.9653,1.9843,1.8802,1.7235,1.5691,1.4191,1.2034,0.9665,0.7058,0.4428,0.1923,-0.0476,-0.2779,-0.5628,-0.9022,-0.9672,-0.9852,-1.0897,-1.1831,-1.2677,-1.315,-1.3006,-1.2754,-1.3006,-1.316,-1.3266,-1.3409,-1.342,-1.3304,-1.3324,-1.3054,-1.2638,-1.1895,-1.1173,-1.0242,-0.8964,-0.77,-0.6474,-0.5194,-0.4058,-0.3121,-0.2343,-0.1506,-0.0726,-0.0112,0.0781,0.1895,2.5379,2.5415,2.5484,2.5525,2.5559,2.5473,2.5396,2.533,2.526,2.5329,2.5482,2.5421,2.5396,2.5382,2.5341,2.5518,2.5917,2.6726,2.7501,2.8267,2.9053,2.9647,3.0056,3.0107,3.0152,3.0183,3.0177,3.0208,3.0278,3.0328,3.0325,3.0342,3.0057,2.9815,2.9531,2.9536,2.9353,2.8934,2.8115,2.7513,2.7111,2.6692,2.6225,2.5721,2.5333,2.492,2.4414,2.3573,2.2796,2.2103,2.0695,1.9553,1.8864,1.8277,1.8207,1.8671,1.8796,1.9108,1.9689,1.9641,1.9529,1.9462,1.969,1.9651,1.9095,1.8673,1.8702,1.9331,1.9963,1.9677,1.8252,1.637,1.4339,1.2244,0.9554,0.6659,0.3667,0.0746,-0.1917,-0.439,-0.6514,-0.8765,-1.1219,-1.1746,-1.2194,-1.2954,-1.3622,-1.4143,-1.4466,-1.4305,-1.4061,-1.3894,-1.3941,-1.4093,-1.4291,-1.4373,-1.4408,-1.4408,-1.4258,-1.3909,-1.3321,-1.2677,-1.1679,-1.0503,-0.9217,-0.797,-0.6661,-0.537,-0.433,-0.3456,-0.2565,-0.1786,-0.1061,-0.0112,0.1283,2.5465,2.5526,2.5583,2.5566,2.5498,2.5363,2.5234,2.5086,2.4941,2.501,2.516,2.5198,2.5173,2.5168,2.5098,2.5053,2.5087,2.5785,2.6437,2.698,2.7765,2.8563,2.9298,2.9427,2.9574,2.9794,2.9842,2.9908,2.9988,3.0052,3.0098,3.0157,3.0344,3.0481,3.0552,3.0625,3.0354,2.9722,2.9093,2.8638,2.826,2.8188,2.7834,2.7198,2.7137,2.6813,2.6163,2.5288,2.4483,2.3707,2.2313,2.1157,2.0355,1.982,1.9801,2.0254,2.0353,2.0659,2.124,2.1244,2.1103,2.0877,2.0761,2.0543,2.0254,2.001,1.9797,1.9762,1.9889,1.9207,1.7049,1.4266,1.1835,0.9725,0.6686,0.345,0.0105,-0.2913,-0.5536,-0.7819,-0.983,-1.1601,-1.275,-1.3632,-1.4242,-1.4653,-1.5119,-1.5322,-1.5334,-1.5334,-1.5096,-1.4789,-1.4708,-1.4754,-1.488,-1.5062,-1.5232,-1.5289,-1.5232,-1.4892,-1.4422,-1.3805,-1.289,-1.172,-1.0578,-0.9238,-0.7888,-0.6558,-0.5366,-0.4388,-0.3453,-0.2567,-0.1676,-0.0615,0.0838,2.5593,2.5593,2.5604,2.5453,2.5219,2.509,2.4929,2.4733,2.4595,2.4503,2.4522,2.4752,2.4818,2.4752,2.4756,2.4682,2.461,2.5338,2.5632,2.569,2.6355,2.7167,2.7948,2.8083,2.8515,2.917,2.9381,2.9514,2.9644,2.9716,2.9834,3.0003,3.0157,3.0294,3.0413,3.0472,3.0468,3.0393,3.0347,2.9586,2.821,2.8054,2.795,2.7825,2.7862,2.7884,2.7844,2.7672,2.7023,2.5992,2.5308,2.4394,2.3167,2.2628,2.2341,2.2258,2.2194,2.2135,2.2022,2.1807,2.1587,2.1198,2.0828,2.0379,1.9929,2.0065,1.9995,1.9485,1.9273,1.8166,1.5708,1.1194,0.8037,0.6974,0.3751,0.0204,-0.3318,-0.638,-0.8572,-0.9606,-1.2254,-1.4247,-1.4967,-1.5492,-1.5872,-1.6027,-1.6126,-1.6107,-1.5988,-1.5944,-1.5869,-1.5647,-1.5435,-1.5345,-1.5424,-1.5579,-1.5756,-1.5901,-1.5901,-1.5668,-1.5254,-1.4687,-1.3982,-1.2735,-1.1598,-1.0332,-0.894,-0.7576,-0.6298,-0.521,-0.4229,-0.3239,-0.2068,-0.1119,0.0056,2.5602,2.5602,2.5564,2.5376,2.5072,2.4885,2.4693,2.4458,2.4265,2.4154,2.4041,2.4044,2.4137,2.4316,2.4229,2.4137,2.4098,2.4278,2.4592,2.4904,2.5177,2.5737,2.6566,2.7167,2.7679,2.81,2.8676,2.9049,2.9196,2.9377,2.9551,2.9767,2.988,3.0032,3.0157,3.0266,3.0287,3.0252,3.0225,2.9843,2.9217,2.9222,2.9273,2.9209,2.9228,2.9255,2.9253,2.8851,2.8378,2.7857,2.7103,2.6331,2.5576,2.5152,2.4851,2.4622,2.4408,2.3999,2.3325,2.3078,2.2505,2.1554,2.1023,2.0366,1.9585,1.9615,1.8912,1.713,1.7424,1.677,1.3429,0.8413,0.4908,0.389,0.0889,-0.2814,-0.6481,-0.9377,-1.1547,-1.2617,-1.4698,-1.6283,-1.6822,-1.7094,-1.7175,-1.716,-1.7089,-1.6909,-1.6723,-1.6637,-1.6539,-1.6466,-1.6337,-1.6163,-1.6044,-1.6175,-1.6306,-1.6392,-1.6349,-1.6163,-1.5869,-1.5311,-1.4525,-1.3532,-1.2346,-1.1107,-0.974,-0.8488,-0.7219,-0.5973,-0.4505,-0.3405,-0.2464,-0.1736,-0.0783,2.5598,2.5554,2.5408,2.5197,2.4896,2.467,2.4462,2.4173,2.3976,2.381,2.3646,2.3473,2.354,2.3756,2.3678,2.3631,2.3584,2.3405,2.3573,2.4032,2.395,2.4355,2.526,2.6126,2.6772,2.7205,2.8066,2.8603,2.8814,2.9101,2.9314,2.9456,2.9626,2.975,2.9883,2.9992,3.0018,2.995,2.9855,2.9723,2.9581,2.969,2.9813,2.9832,2.9813,2.9841,2.987,2.9476,2.9177,2.8964,2.8303,2.7707,2.7178,2.6848,2.654,2.6249,2.5791,2.5189,2.4424,2.3893,2.3096,2.1982,2.121,2.0239,1.9207,1.8844,1.7156,1.4061,1.3991,1.2866,1.0979,0.5868,0.2489,0.1484,-0.179,-0.5564,-0.9018,-1.1912,-1.3989,-1.5136,-1.6687,-1.8011,-1.8224,-1.8305,-1.8187,-1.7948,-1.7828,-1.7679,-1.7447,-1.7256,-1.716,-1.7073,-1.7144,-1.6964,-1.6565,-1.6675,-1.6846,-1.6791,-1.6693,-1.6565,-1.6287,-1.5647,-1.4915,-1.3909,-1.289,-1.1706,-1.0356,-0.9117,-0.7753,-0.6308,-0.4893,-0.3627,-0.2968,-0.2294,-0.1511,2.5564,2.5465,2.5168,2.4911,2.4697,2.4425,2.4154,2.3917,2.3725,2.3504,2.3336,2.3175,2.3052,2.2985,2.323,2.3236,2.3126,2.2927,2.2834,2.2868,2.2691,2.3096,2.4002,2.4813,2.5684,2.6574,2.7581,2.8228,2.8601,2.8868,2.9052,2.9129,2.9375,2.9532,2.9533,2.9644,2.9644,2.9514,2.94,2.9184,2.8953,2.8773,2.885,2.913,2.913,2.9136,2.9324,2.954,2.9421,2.8929,2.8973,2.8613,2.7733,2.7497,2.7245,2.6767,2.589,2.5305,2.5008,2.4078,2.3067,2.2238,2.1187,1.9897,1.8124,1.7638,1.5447,1.105,0.8461,0.7325,0.751,0.3278,0.0,-0.0884,-0.4134,-0.77,-1.0994,-1.3771,-1.5684,-1.6824,-1.8252,-1.9084,-1.9093,-1.9049,-1.8889,-1.8606,-1.8475,-1.8319,-1.7908,-1.7787,-1.7707,-1.7598,-1.7557,-1.7489,-1.7089,-1.7128,-1.7225,-1.7128,-1.696,-1.6833,-1.6392,-1.5888,-1.5119,-1.4247,-1.3236,-1.2061,-1.0855,-0.9474,-0.7953,-0.6514,-0.5218,-0.4125,-0.3469,-0.2687,-0.1959,2.5493,2.5292,2.5041,2.4799,2.4559,2.4284,2.3999,2.3747,2.3522,2.3336,2.3168,2.2995,2.2868,2.2764,2.279,2.2747,2.2712,2.2552,2.246,2.2343,2.226,2.2423,2.2971,2.4149,2.5016,2.564,2.6988,2.7858,2.8201,2.8492,2.8694,2.8868,2.9075,2.9206,2.9249,2.9295,2.9235,2.9027,2.8893,2.8621,2.833,2.8049,2.7885,2.7814,2.818,2.8482,2.8718,2.9001,2.925,2.9382,2.9706,2.9758,2.9496,2.9284,2.9063,2.8695,2.7855,2.7026,2.6228,2.5072,2.3726,2.2278,2.0559,1.8535,1.6705,1.5934,1.3688,0.8461,0.4624,0.303,0.2016,-0.0273,-0.2347,-0.3512,-0.6381,-0.9719,-1.2848,-1.5738,-1.7717,-1.8323,-1.9806,-2.0835,-2.01,-2.0027,-1.9916,-1.9263,-1.9064,-1.8874,-1.8553,-1.8422,-1.8319,-1.8121,-1.8028,-1.8028,-1.7855,-1.7625,-1.7515,-1.735,-1.7128,-1.6778,-1.6367,-1.5856,-1.513,-1.4305,-1.3341,-1.2218,-1.0914,-0.9273,-0.7853,-0.6681,-0.5382,-0.4512,-0.3913,-0.3074,-0.2293,2.5331,2.5107,2.4902,2.467,2.4426,2.4154,2.3878,2.3656,2.3383,2.3193,2.3028,2.2868,2.2738,2.2659,2.2552,2.2487,2.2432,2.2293,2.2192,2.2135,2.2015,2.2166,2.2748,2.39,2.4751,2.5326,2.6718,2.763,2.7915,2.8174,2.8406,2.8594,2.881,2.8952,2.8998,2.9007,2.8879,2.8688,2.8471,2.8058,2.7505,2.7313,2.7006,2.6629,2.7109,2.7694,2.8066,2.8464,2.8975,2.9545,2.999,3.0325,3.0523,3.04,3.0132,2.9665,2.875,2.7782,2.6622,2.517,2.3504,2.1678,1.9224,1.6676,1.4176,1.396,1.1066,0.6064,0.1578,-0.0948,-0.1935,-0.3675,-0.5123,-0.5871,-0.8351,-1.1468,-1.4373,-1.7203,-1.8993,-1.9979,-2.169,-2.2224,-2.1314,-2.0999,-2.0707,-2.0154,-1.9849,-1.9383,-1.9272,-1.9013,-1.8898,-1.8821,-1.8787,-1.8861,-1.8852,-1.8767,-1.8042,-1.7714,-1.7248,-1.6859,-1.6318,-1.5792,-1.5096,-1.4305,-1.3294,-1.2218,-1.0805,-0.9169,-0.7913,-0.6794,-0.5769,-0.4842,-0.4125,-0.335,-0.2571,2.5126,2.4981,2.4697,2.4528,2.4358,2.4037,2.3792,2.3571,2.3319,2.3095,2.2902,2.2842,2.2712,2.2623,2.2605,2.2487,2.2321,2.2175,2.2056,2.1998,2.1899,2.2265,2.3066,2.3933,2.4917,2.5768,2.6854,2.7478,2.773,2.7996,2.8209,2.8424,2.8594,2.8743,2.8785,2.8785,2.8651,2.8314,2.8022,2.737,2.6375,2.6487,2.6183,2.5464,2.5967,2.6619,2.7257,2.7895,2.8554,2.9249,2.981,3.0277,3.0605,3.054,3.016,2.9276,2.829,2.724,2.6058,2.4126,2.2275,2.0111,1.7303,1.4021,1.1286,1.0902,0.8963,0.3748,-0.0855,-0.3785,-0.4293,-0.6802,-0.8332,-0.7835,-1.0003,-1.2876,-1.55,-1.8058,-2.022,-2.1837,-2.3452,-2.398,-2.3033,-2.2003,-2.1402,-2.1218,-2.0565,-1.9975,-2.006,-1.9696,-1.9474,-1.9609,-1.9648,-1.9639,-1.9824,-1.9915,-1.8958,-1.8108,-1.7502,-1.6961,-1.6398,-1.5811,-1.4971,-1.4118,-1.2957,-1.1832,-1.0568,-0.8974,-0.8019,-0.6956,-0.6036,-0.5117,-0.4346,-0.3516,-0.2738,2.5025,2.4847,2.4673,2.4444,2.4192,2.3998,2.3768,2.3517,2.3241,2.3045,2.2876,2.279,2.2668,2.2632,2.2649,2.2596,2.2432,2.2343,2.2215,2.201,2.1969,2.2137,2.2694,2.3813,2.5169,2.643,2.7034,2.7376,2.7587,2.7888,2.8134,2.8273,2.8466,2.8587,2.8626,2.8594,2.8232,2.7433,2.7108,2.6353,2.5219,2.5145,2.4859,2.4315,2.458,2.4927,2.534,2.7005,2.8268,2.8963,2.9578,3.013,3.0505,3.0156,2.9708,2.9284,2.7925,2.6627,2.5423,2.3518,2.1019,1.8085,1.4653,1.0981,0.7612,0.6717,0.4599,0.0207,-0.4338,-0.6934,-0.6711,-0.8851,-1.0144,-0.9286,-1.1613,-1.4227,-1.6827,-1.9691,-2.2278,-2.4004,-2.4563,-2.4321,-2.3744,-2.2858,-2.223,-2.1868,-2.13,-2.0941,-2.0906,-2.0629,-2.048,-2.0466,-2.0399,-2.0288,-2.0382,-2.0237,-1.957,-1.8645,-1.7909,-1.7042,-1.6418,-1.5598,-1.4765,-1.3732,-1.257,-1.1425,-1.0115,-0.8974,-0.8025,-0.7117,-0.6204,-0.5332,-0.457,-0.3683,-0.285,2.4921,2.4749,2.4599,2.4357,2.4096,2.3937,2.3707,2.3476,2.3241,2.3052,2.2919,2.2816,2.2738,2.2685,2.2738,2.2712,2.2623,2.2605,2.2453,2.2243,2.2101,2.2252,2.2752,2.416,2.5586,2.685,2.7154,2.7327,2.7569,2.7842,2.8088,2.8246,2.8414,2.8355,2.8189,2.8023,2.7492,2.6552,2.6176,2.5444,2.4501,2.4278,2.398,2.3539,2.3753,2.4048,2.4385,2.5947,2.7157,2.7934,2.8866,2.9798,3.0495,2.9923,2.9312,2.8748,2.7627,2.6226,2.4659,2.1559,1.8468,1.4835,1.0204,0.5895,0.2763,0.1386,-0.0715,-0.3679,-0.697,-0.9117,-0.9092,-1.0764,-1.1957,-1.184,-1.3434,-1.585,-1.8495,-2.134,-2.3586,-2.4906,-2.5013,-2.4508,-2.4013,-2.3457,-2.3006,-2.2486,-2.1949,-2.1628,-2.1524,-2.1245,-2.1066,-2.0941,-2.0912,-2.0821,-2.0809,-2.0516,-2.01,-1.9225,-1.8318,-1.7314,-1.6426,-1.5406,-1.4455,-1.3102,-1.195,-1.1032,-0.9814,-0.8876,-0.7871,-0.7069,-0.6263,-0.5445,-0.457,-0.3685,-0.285,2.4804,2.4676,2.4481,2.4284,2.4094,2.3917,2.3707,2.3499,2.3289,2.3077,2.2944,2.2893,2.285,2.2825,2.2893,2.285,2.2842,2.2816,2.2738,2.2561,2.2422,2.2569,2.3334,2.4588,2.5712,2.6719,2.704,2.7296,2.7526,2.7869,2.8109,2.83,2.8396,2.8139,2.7622,2.7295,2.6724,2.5727,2.5304,2.4607,2.3596,2.3748,2.3551,2.2781,2.3276,2.3653,2.3857,2.4586,2.5445,2.6374,2.8001,2.9248,3.0023,2.9667,2.8699,2.8005,2.7184,2.5041,2.2697,1.8393,1.3845,0.966,0.4192,-0.0791,-0.2996,-0.4248,-0.5398,-0.6935,-0.8959,-1.0517,-1.1399,-1.258,-1.3726,-1.4875,-1.5784,-1.7801,-2.0916,-2.2885,-2.4072,-2.511,-2.5068,-2.4517,-2.4078,-2.3544,-2.3322,-2.3116,-2.2396,-2.1982,-2.1844,-2.1629,-2.1298,-2.1238,-2.133,-2.1171,-2.1074,-2.0711,-2.0268,-1.9487,-1.8518,-1.7459,-1.6232,-1.5079,-1.3884,-1.2579,-1.1451,-1.0533,-0.9658,-0.8666,-0.7765,-0.6912,-0.6154,-0.5399,-0.457,-0.3683,-0.2852,2.4753,2.4626,2.4464,2.4321,2.417,2.4016,2.3831,2.3634,2.3383,2.3168,2.2995,2.2919,2.2893,2.2893,2.2995,2.3045,2.302,2.3028,2.2927,2.2816,2.2642,2.2897,2.3362,2.3896,2.4722,2.5604,2.639,2.673,2.7032,2.7779,2.8192,2.83,2.8308,2.8026,2.741,2.7079,2.6221,2.4916,2.4453,2.3808,2.2892,2.2618,2.2385,2.2012,2.2079,2.2161,2.2252,2.2959,2.4569,2.6712,2.7494,2.8134,2.8617,2.7973,2.7176,2.6355,2.5389,2.2248,1.708,1.3636,0.8999,0.2084,-0.1744,-0.4803,-0.7031,-0.8219,-0.8969,-0.9706,-1.0755,-1.1882,-1.2716,-1.3474,-1.4994,-1.7535,-1.8248,-1.968,-2.2236,-2.3044,-2.3549,-2.5099,-2.4871,-2.4492,-2.4199,-2.3857,-2.3471,-2.323,-2.2732,-2.2221,-2.2144,-2.1917,-2.1552,-2.1597,-2.1605,-2.1438,-2.1218,-2.0841,-2.0356,-1.9648,-1.8619,-1.7476,-1.6071,-1.4623,-1.3302,-1.1968,-1.1099,-1.0182,-0.9347,-0.8455,-0.7605,-0.675,-0.605,-0.5289,-0.4457,-0.3624,-0.2794,2.4738,2.4626,2.4498,2.4358,2.419,2.4056,2.3894,2.366,2.3453,2.3217,2.3045,2.2977,2.2952,2.297,2.3122,2.3203,2.3217,2.3265,2.3193,2.307,2.2893,2.3143,2.3539,2.3693,2.424,2.5199,2.612,2.6613,2.6977,2.779,2.8255,2.8237,2.8038,2.7489,2.6662,2.6154,2.5319,2.4056,2.3563,2.3017,2.236,2.1697,2.1305,2.0989,2.0705,2.0372,2.0489,2.1284,2.3194,2.5577,2.6591,2.7089,2.7643,2.6894,2.5077,2.2445,2.0384,1.6149,0.9531,0.5711,0.141,-0.3817,-0.7192,-0.957,-1.1129,-1.1889,-1.2122,-1.2479,-1.2957,-1.3521,-1.4303,-1.5249,-1.7237,-1.9543,-2.0143,-2.1044,-2.3242,-2.3008,-2.3279,-2.4138,-2.4532,-2.4426,-2.4317,-2.394,-2.3509,-2.3053,-2.2649,-2.2349,-2.2207,-2.1983,-2.1746,-2.1554,-2.1361,-2.1091,-2.0782,-2.0446,-1.9888,-1.9206,-1.8067,-1.6983,-1.556,-1.4012,-1.2886,-1.1639,-1.0785,-0.9873,-0.9086,-0.8243,-0.7391,-0.6588,-0.5941,-0.5175,-0.4343,-0.3627,-0.2794,2.4783,2.4689,2.4566,2.4411,2.4247,2.4095,2.3915,2.3721,2.3499,2.3265,2.3077,2.3077,2.307,2.3038,2.3214,2.3336,2.343,2.3476,2.3554,2.349,2.345,2.3632,2.4155,2.3796,2.4191,2.5042,2.6171,2.6606,2.6961,2.7825,2.8317,2.8165,2.7607,2.6749,2.5986,2.5052,2.4035,2.3222,2.2762,2.2337,2.1782,2.1036,2.0453,1.9801,1.779,1.7362,1.7372,1.7836,1.888,2.2184,2.4246,2.5789,2.659,2.5804,2.1674,1.6049,1.2701,0.788,0.1109,-0.3502,-0.707,-0.9499,-1.2574,-1.4554,-1.5084,-1.4919,-1.4758,-1.482,-1.5122,-1.5212,-1.5936,-1.7681,-1.9306,-2.0726,-2.09,-2.1334,-2.2397,-2.287,-2.302,-2.3279,-2.4069,-2.4287,-2.4135,-2.3797,-2.3231,-2.2463,-2.217,-2.1969,-2.1684,-2.1348,-2.1153,-2.0957,-2.0759,-2.056,-2.0258,-1.9901,-1.9267,-1.8555,-1.7213,-1.5998,-1.4602,-1.3311,-1.2373,-1.1388,-1.0443,-0.9614,-0.883,-0.7984,-0.7182,-0.648,-0.5832,-0.5117,-0.4343,-0.3627,-0.2852,2.4842,2.4764,2.4679,2.4566,2.4426,2.4229,2.4037,2.3834,2.3589,2.3354,2.3193,2.3102,2.3119,2.3168,2.3324,2.3489,2.3629,2.3728,2.3916,2.4479,2.445,2.4861,2.5038,2.4268,2.3675,2.4335,2.5472,2.6136,2.657,2.7653,2.838,2.8246,2.7378,2.6586,2.5674,2.4585,2.3667,2.2752,2.2243,2.164,2.0961,2.03,1.9397,1.8067,1.437,1.213,1.0979,0.8029,0.6533,0.9567,1.6762,2.2037,2.1872,1.8348,1.4303,1.0752,0.5674,-0.0139,-0.6194,-0.9303,-1.1662,-1.557,-1.6734,-1.7705,-1.706,-1.6919,-1.6576,-1.6339,-1.6076,-1.6379,-1.7178,-1.8329,-1.9741,-2.0771,-2.0723,-2.0995,-2.2615,-2.2777,-2.3061,-2.4076,-2.4228,-2.4078,-2.3782,-2.3523,-2.2859,-2.1983,-2.1602,-2.1492,-2.1153,-2.0772,-2.0523,-2.0258,-2.0055,-1.9837,-1.9475,-1.9056,-1.8405,-1.782,-1.6573,-1.527,-1.3853,-1.2828,-1.2018,-1.1094,-1.0102,-0.9302,-0.858,-0.7877,-0.7079,-0.6426,-0.5719,-0.5007,-0.4291,-0.3574,-0.2796,2.4889,2.4779,2.4711,2.4615,2.4425,2.4284,2.4057,2.3834,2.3594,2.3407,2.3265,2.3193,2.3217,2.3307,2.3448,2.3629,2.3876,2.4312,2.472,2.5175,2.5448,2.5925,2.6115,2.5455,2.4896,2.4987,2.6074,2.6663,2.7013,2.7789,2.8484,2.8228,2.7102,2.6135,2.5288,2.3996,2.2928,2.2282,2.1761,2.1154,2.0477,1.9342,1.6337,1.3588,0.9836,0.7508,0.4572,0.2186,0.0791,0.2393,0.7474,1.2154,1.2772,0.9462,0.5745,0.0982,-0.2632,-0.8764,-1.3917,-1.6399,-1.774,-1.9692,-2.0082,-1.9586,-1.8954,-1.844,-1.803,-1.7706,-1.7594,-1.7725,-1.8473,-1.9218,-2.0193,-2.0789,-2.0468,-2.0855,-2.2193,-2.2345,-2.2701,-2.4008,-2.4048,-2.3508,-2.3113,-2.2889,-2.2434,-2.1554,-2.1202,-2.1042,-2.0484,-2.0105,-1.9798,-1.9552,-1.9331,-1.9069,-1.8685,-1.8201,-1.749,-1.6877,-1.6089,-1.4741,-1.3469,-1.26,-1.1811,-1.0809,-0.9777,-0.9099,-0.8374,-0.767,-0.7025,-0.6376,-0.5668,-0.4956,-0.4239,-0.3577,-0.274,2.4917,2.4813,2.4729,2.458,2.4408,2.4247,2.4074,2.3834,2.3594,2.3453,2.3354,2.3247,2.3354,2.3465,2.3636,2.3826,2.4215,2.4964,2.5485,2.5912,2.6616,2.71,2.7249,2.7231,2.7078,2.6903,2.7259,2.7502,2.7627,2.8215,2.8543,2.8084,2.6595,2.5703,2.4916,2.3316,2.2147,2.1718,2.1149,2.0445,1.9654,1.8107,1.4115,0.8494,0.4926,0.1759,-0.2167,-0.4737,-0.5356,-0.4497,-0.4647,-0.3664,-0.2362,-0.1279,-0.3481,-1.0215,-1.227,-1.6313,-2.0155,-2.2334,-2.2473,-2.1787,-2.1407,-2.094,-2.0265,-1.9523,-1.9032,-1.8815,-1.8672,-1.8672,-1.9488,-1.9787,-2.0383,-2.082,-2.0319,-2.058,-2.1397,-2.16,-2.2241,-2.3576,-2.3551,-2.292,-2.2466,-2.2109,-2.1698,-2.1264,-2.0908,-2.0497,-1.994,-1.9423,-1.9069,-1.8709,-1.8483,-1.8081,-1.771,-1.7512,-1.6797,-1.6016,-1.5332,-1.4268,-1.3079,-1.2244,-1.1396,-1.0385,-0.9524,-0.8844,-0.8215,-0.7622,-0.6977,-0.6327,-0.5681,-0.503,-0.4307,-0.3583,-0.2745,2.4926,2.4798,2.4673,2.4559,2.4461,2.4211,2.4057,2.3935,2.3678,2.3562,2.3539,2.3476,2.3539,2.3674,2.3807,2.4018,2.4487,2.5405,2.6255,2.6866,2.7617,2.8236,2.8703,2.8572,2.88,2.8858,2.842,2.7837,2.7958,2.833,2.8601,2.8038,2.6543,2.5464,2.4579,2.3038,2.1718,2.1181,2.0518,1.9641,1.8373,1.5882,1.1772,0.4746,0.0136,-0.4884,-1.0078,-1.518,-1.8393,-1.8461,-1.8894,-1.8574,-1.6422,-1.252,-1.176,-1.3961,-1.8217,-2.1875,-2.3836,-2.3903,-2.349,-2.2801,-2.2267,-2.147,-2.0707,-2.0005,-1.9418,-1.9049,-1.8881,-1.8893,-1.9239,-1.9537,-1.99,-2.0104,-2.0015,-1.99,-2.055,-2.0752,-2.1167,-2.276,-2.262,-2.2328,-2.1813,-2.1444,-2.1202,-2.0809,-2.0396,-1.9876,-1.9267,-1.8738,-1.8321,-1.7897,-1.7523,-1.7112,-1.6652,-1.6513,-1.6134,-1.5313,-1.4563,-1.3803,-1.2687,-1.1825,-1.09,-1.0058,-0.9365,-0.8738,-0.8103,-0.7526,-0.7018,-0.6481,-0.5772,-0.5123,-0.4386,-0.3683,-0.2824,2.5019,2.4879,2.4749,2.4645,2.4512,2.4248,2.4115,2.4034,2.381,2.3743,2.3743,2.3725,2.3771,2.3912,2.4039,2.4303,2.487,2.614,2.6953,2.7547,2.8264,2.881,2.9152,2.889,2.8938,2.8915,2.8537,2.8387,2.8572,2.8773,2.8737,2.8106,2.6621,2.5473,2.4574,2.2853,2.1608,2.0845,1.9974,1.8899,1.6961,1.324,0.6598,0.0229,-0.5907,-1.158,-1.6436,-1.9654,-2.2057,-2.2133,-2.2819,-2.3422,-2.2596,-2.1269,-1.9018,-1.9855,-2.2444,-2.4541,-2.5014,-2.4636,-2.4017,-2.3169,-2.2634,-2.1867,-2.0914,-2.0091,-1.9448,-1.8881,-1.8614,-1.8518,-1.8697,-1.8946,-1.921,-1.9414,-1.9195,-1.9321,-1.9661,-1.9532,-2.0408,-2.158,-2.1615,-2.1369,-2.1091,-2.0809,-2.0759,-2.0359,-1.9888,-1.9267,-1.8643,-1.8104,-1.7556,-1.7112,-1.6684,-1.6322,-1.5864,-1.571,-1.5498,-1.4688,-1.3981,-1.322,-1.2445,-1.1615,-1.076,-0.9937,-0.926,-0.8691,-0.8063,-0.7509,-0.7022,-0.6639,-0.6028,-0.5347,-0.4546,-0.3712,-0.2894,2.4996,2.5,2.487,2.4738,2.4613,2.4374,2.4229,2.4153,2.3959,2.3919,2.3979,2.3999,2.4059,2.421,2.4395,2.4634,2.5015,2.6562,2.7173,2.7459,2.8173,2.8645,2.8453,2.8141,2.8003,2.846,2.8688,2.8907,2.9191,2.9181,2.8947,2.8318,2.6864,2.5623,2.47,2.3009,2.171,2.0614,1.9651,1.845,1.4958,0.8575,0.1195,-0.5168,-1.11,-1.6243,-2.0426,-2.1968,-2.2593,-2.2849,-2.3313,-2.3844,-2.4129,-2.4706,-2.5039,-2.5032,-2.505,-2.5226,-2.5255,-2.4873,-2.4116,-2.3268,-2.2673,-2.1834,-2.0828,-1.9838,-1.9093,-1.8422,-1.8139,-1.8073,-1.8224,-1.8379,-1.8595,-1.8715,-1.857,-1.8442,-1.8839,-1.897,-1.9115,-1.9927,-2.0395,-2.0383,-2.0093,-2.0308,-2.0207,-1.9747,-1.9226,-1.8673,-1.805,-1.7446,-1.6888,-1.6332,-1.5884,-1.5526,-1.5186,-1.4951,-1.4656,-1.4094,-1.3537,-1.2978,-1.2238,-1.1491,-1.0659,-0.9883,-0.9356,-0.8773,-0.8098,-0.7539,-0.7188,-0.6744,-0.6241,-0.5631,-0.4786,-0.3942,-0.3038,2.4514,2.5077,2.4937,2.4836,2.476,2.4559,2.4478,2.4426,2.4229,2.4174,2.4265,2.4319,2.4407,2.4559,2.479,2.4968,2.5382,2.6151,2.6809,2.7014,2.7566,2.7927,2.7903,2.7802,2.7498,2.7826,2.8389,2.9071,2.9399,2.9321,2.9119,2.8547,2.7486,2.6286,2.5149,2.354,2.1972,2.0624,1.9368,1.6877,1.2526,0.6206,-0.0314,-0.647,-1.236,-1.7422,-2.1249,-2.2296,-2.2615,-2.2758,-2.3045,-2.3281,-2.3434,-2.3848,-2.4369,-2.4753,-2.508,-2.5329,-2.5169,-2.4482,-2.3717,-2.2946,-2.2218,-2.1349,-2.0206,-1.9319,-1.8506,-1.7865,-1.7689,-1.7678,-1.7799,-1.7922,-1.8087,-1.815,-1.8132,-1.8086,-1.8244,-1.8293,-1.846,-1.8631,-1.9242,-1.9214,-1.9016,-1.9436,-1.9643,-1.9121,-1.8548,-1.8061,-1.7446,-1.6842,-1.6151,-1.5584,-1.5245,-1.4893,-1.4588,-1.4369,-1.4001,-1.3502,-1.307,-1.2696,-1.2011,-1.1323,-1.0682,-0.9964,-0.9388,-0.8871,-0.8315,-0.7775,-0.741,-0.6921,-0.6424,-0.5802,-0.5084,-0.4187,-0.3184,2.3869,2.4527,2.4389,2.4629,2.4972,2.4804,2.4708,2.4644,2.4556,2.4508,2.4538,2.4586,2.4716,2.4893,2.5101,2.5196,2.5451,2.6221,2.6676,2.6639,2.6969,2.7091,2.6891,2.6522,2.6314,2.7071,2.7731,2.8479,2.9001,2.9382,2.9316,2.8887,2.7876,2.6826,2.5782,2.4377,2.2993,2.1316,1.8877,1.4543,0.8412,0.2014,-0.4424,-1.0771,-1.6112,-1.942,-2.0891,-2.1596,-2.1749,-2.1785,-2.1868,-2.1915,-2.2177,-2.27,-2.334,-2.3372,-2.3964,-2.4433,-2.4636,-2.3778,-2.3003,-2.2164,-2.126,-2.0155,-1.9137,-1.8429,-1.7897,-1.7357,-1.7312,-1.7312,-1.7301,-1.7323,-1.7379,-1.7479,-1.759,-1.759,-1.7634,-1.7634,-1.771,-1.7897,-1.8018,-1.8007,-1.8116,-1.8429,-1.8685,-1.8429,-1.7952,-1.7457,-1.6842,-1.6171,-1.5526,-1.4874,-1.4597,-1.4369,-1.4061,-1.3821,-1.3519,-1.3094,-1.2658,-1.2205,-1.172,-1.1102,-1.0493,-0.9946,-0.9316,-0.8804,-0.8398,-0.8039,-0.7633,-0.713,-0.6611,-0.595,-0.5206,-0.4365,-0.333,2.3389,2.4066,2.4211,2.4675,2.5216,2.5077,2.4965,2.4929,2.4872,2.4842,2.485,2.493,2.503,2.5163,2.5283,2.5362,2.5481,2.6187,2.6424,2.6442,2.6337,2.6246,2.5998,2.5461,2.5444,2.606,2.6892,2.7725,2.8503,2.9036,2.9288,2.9258,2.8429,2.747,2.6587,2.5443,2.4034,2.2036,1.9612,1.4259,0.6887,0.0186,-0.6372,-1.2574,-1.7785,-2.0718,-2.0312,-2.0042,-1.9941,-2.0115,-2.021,-2.0304,-2.0648,-2.1389,-2.1929,-2.2033,-2.2431,-2.2656,-2.2789,-2.2408,-2.1867,-2.0944,-1.9864,-1.872,-1.7972,-1.7457,-1.7245,-1.6909,-1.6874,-1.6761,-1.6751,-1.6807,-1.6864,-1.692,-1.6976,-1.6976,-1.7032,-1.7022,-1.7134,-1.7301,-1.7301,-1.7088,-1.7245,-1.7512,-1.7623,-1.7623,-1.7301,-1.6853,-1.6228,-1.5604,-1.5069,-1.4478,-1.424,-1.4019,-1.3709,-1.3346,-1.3042,-1.2674,-1.2243,-1.1856,-1.1439,-1.094,-1.0409,-0.9836,-0.9246,-0.9004,-0.8763,-0.8275,-0.7856,-0.7312,-0.675,-0.609,-0.5304,-0.4452,-0.3352,2.3285,2.4088,2.492,2.5297,2.535,2.5312,2.5263,2.5232,2.5178,2.5194,2.5205,2.5302,2.5321,2.537,2.5415,2.5483,2.5522,2.5632,2.5644,2.556,2.5456,2.5255,2.5083,2.5005,2.498,2.5297,2.6167,2.7065,2.7816,2.8712,2.9169,2.9494,2.8918,2.815,2.732,2.6362,2.4731,2.2845,2.0814,1.5739,0.8505,0.1978,-0.3972,-1.0246,-1.5038,-1.7737,-1.756,-1.7611,-1.7904,-1.8232,-1.846,-1.8836,-1.928,-1.99,-2.0331,-2.0556,-2.0657,-2.0664,-2.0361,-2.0607,-2.0364,-1.9403,-1.8335,-1.7401,-1.6877,-1.7145,-1.6931,-1.6467,-1.6363,-1.6363,-1.6374,-1.6441,-1.6431,-1.642,-1.641,-1.641,-1.64,-1.64,-1.6513,-1.6694,-1.6705,-1.6534,-1.6477,-1.674,-1.7022,-1.7078,-1.6729,-1.6275,-1.5778,-1.5205,-1.4725,-1.4309,-1.401,-1.3718,-1.3354,-1.305,-1.2805,-1.2428,-1.1996,-1.1622,-1.117,-1.0732,-1.024,-0.9913,-0.9432,-0.922,-0.8942,-0.8397,-0.7869,-0.7459,-0.6868,-0.6148,-0.5223,-0.4183,-0.3146,2.3877,2.4647,2.502,2.5206,2.5273,2.5291,2.5299,2.531,2.5325,2.5349,2.5355,2.5441,2.5465,2.5457,2.5479,2.5526,2.5473,2.4926,2.4824,2.4483,2.418,2.4045,2.408,2.4359,2.4382,2.4996,2.5863,2.6503,2.7083,2.8191,2.8913,2.9235,2.9157,2.8966,2.819,2.7046,2.5477,2.4102,2.1854,1.7318,0.8866,0.42,-0.1641,-0.967,-1.2627,-1.4749,-1.5128,-1.5548,-1.6102,-1.6646,-1.6983,-1.7473,-1.7957,-1.8461,-1.8789,-1.8991,-1.9029,-1.8613,-1.8193,-1.8543,-1.8502,-1.75,-1.6666,-1.613,-1.6026,-1.6239,-1.6306,-1.6019,-1.5836,-1.5836,-1.5972,-1.5972,-1.5972,-1.5904,-1.5894,-1.5836,-1.5894,-1.5894,-1.5941,-1.6171,-1.6181,-1.6066,-1.6019,-1.6077,-1.6353,-1.6524,-1.6114,-1.57,-1.5313,-1.4911,-1.4547,-1.4249,-1.395,-1.3588,-1.3233,-1.2928,-1.256,-1.2182,-1.1747,-1.1373,-1.0933,-1.0485,-1.0009,-0.9786,-0.953,-0.9192,-0.8773,-0.835,-0.7911,-0.7577,-0.6933,-0.6145,-0.515,-0.4023,-0.3058,2.4448,2.4877,2.4911,2.5011,2.5168,2.5235,2.5273,2.5274,2.5334,2.5389,2.5421,2.5492,2.5528,2.5502,2.5418,2.5161,2.4885,2.4402,2.3996,2.3628,2.3252,2.3224,2.3544,2.3876,2.4193,2.4921,2.5533,2.6087,2.6736,2.7864,2.8364,2.8648,2.885,2.8703,2.8447,2.7432,2.6164,2.5069,2.3424,1.847,0.9623,0.6099,0.062,-0.7385,-1.0955,-1.2589,-1.3481,-1.4266,-1.5073,-1.5671,-1.6126,-1.6544,-1.6927,-1.7303,-1.752,-1.7607,-1.7472,-1.7081,-1.6701,-1.6588,-1.6578,-1.5756,-1.5429,-1.5157,-1.5235,-1.543,-1.5556,-1.5488,-1.5371,-1.5362,-1.5498,-1.5556,-1.5517,-1.5508,-1.5439,-1.5371,-1.543,-1.5488,-1.5478,-1.5584,-1.5536,-1.5546,-1.5614,-1.5614,-1.5778,-1.5941,-1.5816,-1.5468,-1.5069,-1.4784,-1.4547,-1.4249,-1.395,-1.3528,-1.3164,-1.2797,-1.2428,-1.1996,-1.1622,-1.1185,-1.0744,-1.0301,-0.9919,-0.9658,-0.9402,-0.9081,-0.8678,-0.8259,-0.7952,-0.7722,-0.6937,-0.6017,-0.5084,-0.4023,-0.3224,2.478,2.4704,2.4704,2.4869,2.5053,2.5163,2.5177,2.5149,2.5221,2.5338,2.5464,2.5522,2.5519,2.5414,2.5149,2.4601,2.3955,2.3592,2.3113,2.2562,2.2262,2.2898,2.3435,2.3692,2.3967,2.4726,2.5253,2.5798,2.6487,2.7003,2.7462,2.7793,2.7958,2.803,2.814,2.7135,2.6164,2.5449,2.5084,1.9319,1.2723,0.8782,0.2435,-0.4349,-0.9067,-1.1012,-1.2406,-1.3641,-1.4576,-1.5234,-1.5846,-1.6241,-1.6616,-1.6763,-1.6857,-1.6905,-1.6409,-1.5776,-1.508,-1.5021,-1.4728,-1.4442,-1.4341,-1.441,-1.4529,-1.4834,-1.5079,-1.5079,-1.502,-1.501,-1.5079,-1.5137,-1.5156,-1.5107,-1.5029,-1.502,-1.502,-1.5079,-1.5059,-1.5186,-1.5137,-1.5088,-1.5147,-1.5205,-1.5254,-1.5362,-1.541,-1.5177,-1.4834,-1.4597,-1.4428,-1.4181,-1.389,-1.3528,-1.3103,-1.2613,-1.2243,-1.1872,-1.1435,-1.1059,-1.0618,-1.0238,-0.9856,-0.9594,-0.921,-0.8823,-0.8506,-0.8177,-0.7792,-0.733,-0.6613,-0.5756,-0.4821,-0.4023,-0.3222,2.4772,2.4629,2.4578,2.4575,2.467,2.4804,2.4828,2.4761,2.4901,2.5089,2.529,2.5372,2.5372,2.5078,2.4309,2.3676,2.3139,2.1601,2.1086,2.1225,2.0954,2.1738,2.2494,2.3204,2.3758,2.4729,2.5198,2.537,2.583,2.6366,2.684,2.7204,2.7129,2.7278,2.7509,2.7135,2.6726,2.6096,2.5132,2.1928,1.477,1.0388,0.4915,-0.3049,-0.7361,-1.0285,-1.2021,-1.3419,-1.4478,-1.5185,-1.5793,-1.6115,-1.6258,-1.6299,-1.6032,-1.5877,-1.5332,-1.4569,-1.3734,-1.3381,-1.3321,-1.3329,-1.3571,-1.3761,-1.4001,-1.4437,-1.4675,-1.4784,-1.4734,-1.4725,-1.4775,-1.4902,-1.4852,-1.4793,-1.4725,-1.4725,-1.4725,-1.4715,-1.4706,-1.4902,-1.4911,-1.4911,-1.498,-1.4784,-1.4834,-1.4834,-1.4824,-1.4883,-1.4656,-1.4488,-1.4318,-1.407,-1.3769,-1.3407,-1.3042,-1.2613,-1.2182,-1.1809,-1.1373,-1.0933,-1.0555,-1.011,-0.9728,-0.9402,-0.9022,-0.8635,-0.8312,-0.7922,-0.7396,-0.6872,-0.6218,-0.5557,-0.4821,-0.4023,-0.3222,2.4676,2.4564,2.4478,2.4393,2.4321,2.4462,2.4441,2.4366,2.4497,2.4715,2.4936,2.5014,2.4966,2.453,2.3581,2.2464,2.2005,2.059,1.9658,1.9828,1.9694,2.0929,2.2069,2.2759,2.3755,2.4754,2.5263,2.5422,2.5574,2.6139,2.6381,2.6367,2.6304,2.6348,2.6504,2.6352,2.62,2.5584,2.4627,2.127,1.5011,0.9818,0.4541,-0.2301,-0.7269,-1.0578,-1.2245,-1.3561,-1.4676,-1.5361,-1.5844,-1.6092,-1.5998,-1.5735,-1.5392,-1.5041,-1.4222,-1.345,-1.2728,-1.2297,-1.2359,-1.2544,-1.2903,-1.3277,-1.3649,-1.407,-1.4378,-1.4497,-1.4506,-1.4565,-1.4616,-1.4675,-1.4675,-1.4547,-1.4488,-1.4488,-1.4428,-1.4359,-1.4478,-1.4616,-1.4734,-1.4803,-1.4743,-1.4488,-1.4359,-1.43,-1.4291,-1.4359,-1.4419,-1.4249,-1.4079,-1.389,-1.3649,-1.3338,-1.2981,-1.2613,-1.2182,-1.1802,-1.131,-1.087,-1.0434,-0.9989,-0.96,-0.9215,-0.8829,-0.8441,-0.8052,-0.7591,-0.7003,-0.6478,-0.5881,-0.5286,-0.4688,-0.3956,-0.3222,2.461,2.4495,2.4429,2.4266,2.4114,2.4115,2.4061,2.3988,2.4045,2.4236,2.4478,2.4482,2.4396,2.398,2.274,2.1488,2.0359,1.9359,1.8854,1.8903,1.9218,2.0784,2.2088,2.2921,2.3973,2.4853,2.5337,2.5359,2.5482,2.5595,2.5646,2.5644,2.5683,2.5601,2.5474,2.3759,2.3284,2.2269,2.121,1.6517,0.9881,0.6505,0.0791,-0.5092,-0.9451,-1.179,-1.3302,-1.4366,-1.5124,-1.5734,-1.62,-1.5998,-1.578,-1.5481,-1.5041,-1.4282,-1.3208,-1.2605,-1.212,-1.1809,-1.1747,-1.1988,-1.249,-1.285,-1.3338,-1.3769,-1.4079,-1.4327,-1.4446,-1.4455,-1.4515,-1.4515,-1.4515,-1.4387,-1.4318,-1.4258,-1.4139,-1.413,-1.4249,-1.4318,-1.4437,-1.4446,-1.4318,-1.407,-1.3881,-1.3761,-1.37,-1.37,-1.3821,-1.3941,-1.383,-1.3709,-1.3519,-1.3277,-1.2911,-1.2552,-1.212,-1.1747,-1.131,-1.0807,-1.0308,-0.9862,-0.9472,-0.9087,-0.8635,-0.8182,-0.7526,-0.7003,-0.6548,-0.6017,-0.5554,-0.5153,-0.4556,-0.3889,-0.3155,2.4578,2.4481,2.4284,2.4078,2.3896,2.3576,2.3513,2.3631,2.3681,2.3794,2.4008,2.3933,2.3725,2.3347,2.1321,2.0082,1.8976,1.8044,1.7619,1.7959,1.9065,2.0756,2.2168,2.3318,2.4378,2.5013,2.5341,2.5208,2.5161,2.5142,2.5081,2.5171,2.5007,2.4907,2.2533,1.9039,1.7229,1.5643,1.4842,0.9763,0.3762,-0.0234,-0.4888,-0.8508,-1.158,-1.3462,-1.4293,-1.5142,-1.5816,-1.6084,-1.6284,-1.6115,-1.5686,-1.5187,-1.4529,-1.345,-1.2666,-1.2058,-1.1747,-1.1435,-1.1373,-1.1622,-1.2058,-1.256,-1.2981,-1.3459,-1.383,-1.4139,-1.4387,-1.4455,-1.4515,-1.4455,-1.4396,-1.4267,-1.4198,-1.407,-1.395,-1.395,-1.407,-1.4198,-1.4258,-1.4019,-1.389,-1.3709,-1.3519,-1.3277,-1.3164,-1.3164,-1.3224,-1.3398,-1.3528,-1.3467,-1.3285,-1.3042,-1.2797,-1.2428,-1.2065,-1.163,-1.1185,-1.0744,-1.0174,-0.9664,-0.928,-0.8829,-0.8247,-0.7531,-0.6811,-0.6416,-0.6152,-0.569,-0.5226,-0.4824,-0.4356,-0.3756,-0.3088,2.4462,2.4321,2.4058,2.3798,2.3491,2.3102,2.2977,2.3084,2.3164,2.3259,2.3302,2.3141,2.2821,2.209,2.0094,1.8631,1.7973,1.6789,1.6438,1.7671,1.8937,2.0784,2.2317,2.3475,2.4292,2.4872,2.4992,2.4709,2.453,2.4346,2.4279,2.42,2.4158,2.2416,1.9424,1.4484,0.8612,0.6569,0.4374,0.1347,-0.2543,-0.6462,-0.8659,-1.162,-1.3907,-1.4549,-1.506,-1.5818,-1.5942,-1.6108,-1.6079,-1.568,-1.5186,-1.4588,-1.3863,-1.285,-1.2297,-1.1872,-1.156,-1.131,-1.1247,-1.1435,-1.1685,-1.212,-1.2674,-1.3155,-1.364,-1.407,-1.4327,-1.4515,-1.4515,-1.4455,-1.4327,-1.4207,-1.407,-1.3941,-1.3881,-1.3821,-1.389,-1.4079,-1.3959,-1.3649,-1.3407,-1.3277,-1.3033,-1.2789,-1.2613,-1.2552,-1.2736,-1.292,-1.3103,-1.3164,-1.2989,-1.2744,-1.2498,-1.2313,-1.1941,-1.1567,-1.1122,-1.0618,-0.9983,-0.9402,-0.8952,-0.8371,-0.7722,-0.7073,-0.6482,-0.6148,-0.5885,-0.5359,-0.4897,-0.4495,-0.4023,-0.3422,-0.2753,2.4266,2.4059,2.3759,2.3382,2.2977,2.2712,2.2508,2.2371,2.249,2.2563,2.2468,2.218,2.174,2.0874,1.8873,1.7524,1.6752,1.5701,1.5831,1.7255,1.8688,2.0445,2.2121,2.3282,2.3898,2.4311,2.4207,2.3665,2.3379,2.299,2.2665,2.2788,2.1468,1.9206,1.504,0.9075,0.2805,-0.2672,-0.3884,-0.5627,-0.7672,-0.944,-1.0386,-1.3969,-1.5163,-1.5395,-1.5579,-1.5689,-1.5619,-1.5666,-1.5517,-1.5001,-1.4469,-1.3872,-1.3147,-1.2605,-1.205,-1.1677,-1.1373,-1.1059,-1.1059,-1.1122,-1.1373,-1.1747,-1.2236,-1.2911,-1.3467,-1.3881,-1.4139,-1.4387,-1.4455,-1.4327,-1.4198,-1.4079,-1.401,-1.3821,-1.3692,-1.3631,-1.364,-1.3709,-1.3407,-1.3164,-1.3042,-1.2858,-1.2605,-1.2305,-1.2182,-1.212,-1.2182,-1.2428,-1.2613,-1.2797,-1.2683,-1.2436,-1.2313,-1.2065,-1.1762,-1.1387,-1.1003,-1.0485,-0.9786,-0.9139,-0.8565,-0.7917,-0.7265,-0.6876,-0.6354,-0.602,-0.562,-0.5156,-0.4694,-0.4161,-0.3625,-0.3088,-0.2552,2.4096,2.3917,2.3427,2.3017,2.2668,2.2419,2.2169,2.1928,2.1655,2.1698,2.1786,2.1346,2.0751,1.9762,1.7758,1.6452,1.5749,1.4951,1.5244,1.6622,1.8196,1.9918,2.1702,2.2612,2.3212,2.327,2.2968,2.206,2.1345,2.0916,2.0358,1.9641,1.8044,1.4956,1.0722,0.4119,-0.3488,-0.8752,-1.1774,-1.2715,-1.4571,-1.5173,-1.622,-1.6351,-1.613,-1.5753,-1.5754,-1.5609,-1.5349,-1.5177,-1.4883,-1.441,-1.3812,-1.3338,-1.285,-1.2367,-1.1864,-1.149,-1.1122,-1.0807,-1.0681,-1.08,-1.1059,-1.1365,-1.1926,-1.2674,-1.3285,-1.364,-1.401,-1.4198,-1.4327,-1.4198,-1.407,-1.401,-1.3881,-1.3692,-1.3502,-1.345,-1.3459,-1.3216,-1.2928,-1.2744,-1.2621,-1.2436,-1.212,-1.1934,-1.1809,-1.1685,-1.1622,-1.1809,-1.1996,-1.2182,-1.2305,-1.212,-1.1996,-1.1809,-1.1505,-1.1066,-1.0618,-1.0104,-0.9524,-0.8818,-0.8107,-0.7461,-0.6876,-0.6482,-0.6156,-0.576,-0.5359,-0.496,-0.4425,-0.3828,-0.3224,-0.2621,-0.2151,2.3858,2.3602,2.3007,2.2581,2.2271,2.1969,2.1688,2.1354,2.0943,2.0684,2.0586,2.027,1.9708,1.8592,1.6615,1.5419,1.4853,1.4018,1.462,1.5986,1.7531,1.9251,2.0646,2.1524,2.1507,2.1481,2.041,1.9497,1.8882,1.8122,1.7385,1.6251,1.4082,1.0634,0.6191,-0.1651,-0.7303,-1.0755,-1.6002,-1.7768,-1.8278,-1.765,-1.714,-1.6573,-1.6126,-1.5796,-1.5355,-1.5146,-1.4758,-1.441,-1.4112,-1.3752,-1.3277,-1.2981,-1.2552,-1.212,-1.1685,-1.131,-1.0933,-1.0618,-1.0364,-1.0555,-1.0681,-1.1059,-1.149,-1.2174,-1.2789,-1.3147,-1.3631,-1.389,-1.4079,-1.407,-1.401,-1.3881,-1.383,-1.37,-1.3459,-1.3285,-1.3224,-1.3033,-1.2613,-1.212,-1.1996,-1.1864,-1.1615,-1.1498,-1.138,-1.138,-1.1317,-1.131,-1.1498,-1.1622,-1.1747,-1.1809,-1.1809,-1.156,-1.1185,-1.0744,-1.0238,-0.9588,-0.8947,-0.8236,-0.7587,-0.7068,-0.6613,-0.6218,-0.5822,-0.5495,-0.503,-0.4631,-0.4095,-0.3493,-0.2822,-0.2218,-0.1748,2.3558,2.3188,2.2529,2.2096,2.1794,2.1462,2.115,2.0747,2.0311,1.9702,1.9126,1.9022,1.8363,1.7168,1.5604,1.4667,1.3863,1.3244,1.3947,1.508,1.6473,1.7861,1.8846,1.9566,1.9313,1.8599,1.7479,1.6678,1.5992,1.5157,1.4048,1.2672,0.9657,0.6116,0.0644,-0.4104,-0.8275,-1.1767,-1.4976,-1.5704,-1.617,-1.6611,-1.6408,-1.6112,-1.5769,-1.5359,-1.4799,-1.431,-1.3965,-1.3631,-1.3338,-1.3094,-1.285,-1.2621,-1.2243,-1.1864,-1.1498,-1.1122,-1.0688,-1.0371,-1.0238,-1.0301,-1.0434,-1.0751,-1.1185,-1.1615,-1.2236,-1.2781,-1.3208,-1.3571,-1.3821,-1.389,-1.3821,-1.3769,-1.3709,-1.3588,-1.3294,-1.305,-1.292,-1.2789,-1.2236,-1.1685,-1.149,-1.1365,-1.124,-1.1122,-1.1066,-1.1066,-1.1066,-1.1059,-1.1185,-1.1247,-1.1303,-1.1373,-1.1435,-1.1247,-1.0933,-1.0428,-0.9919,-0.9081,-0.8371,-0.7852,-0.7265,-0.6679,-0.6288,-0.5954,-0.5624,-0.5226,-0.4831,-0.4367,-0.3761,-0.3226,-0.2621,-0.2017,-0.1412,2.308,2.2493,2.2108,2.1794,2.1462,2.1135,2.0763,2.0261,1.9722,1.9051,1.8327,1.7558,1.697,1.6541,1.4867,1.38,1.3227,1.2616,1.2977,1.4013,1.4898,1.6046,1.6823,1.7046,1.6491,1.5615,1.4589,1.3835,1.2986,1.1985,1.0681,0.914,0.5853,0.2261,-0.173,-0.5891,-0.9204,-1.2101,-1.344,-1.4269,-1.4575,-1.5072,-1.5553,-1.53,-1.5004,-1.4611,-1.4141,-1.3682,-1.3252,-1.2842,-1.2605,-1.2482,-1.2367,-1.2243,-1.1926,-1.1615,-1.1247,-1.094,-1.0561,-1.018,-1.0053,-1.0053,-1.0244,-1.0428,-1.0807,-1.1122,-1.174,-1.2351,-1.2842,-1.339,-1.364,-1.3631,-1.3571,-1.3588,-1.3597,-1.3294,-1.2989,-1.2736,-1.249,-1.2174,-1.174,-1.1365,-1.117,-1.1052,-1.0933,-1.0807,-1.0807,-1.0807,-1.0688,-1.0744,-1.087,-1.087,-1.0926,-1.0926,-1.0933,-1.087,-1.0555,-1.011,-0.9536,-0.8823,-0.8112,-0.7591,-0.7007,-0.642,-0.609,-0.5822,-0.5425,-0.5027,-0.4561,-0.4097,-0.3493,-0.2889,-0.242,-0.1883,-0.1278]},{"header":{"parameterUnit":"m.s-1","parameterCategory":1,"la1":31.0,"la2":29.5877,"lo1":-88.7671,"lo2":-86.6584,"dy":0.0162,"dx":0.0185,"nx":115,"ny":88,"refTime":"2024-04-23T12:00:00:Z","depth":0,"parameterNumber":3,"parameterNumberName":"V-component_of_WINDS"},"data":[0.0,0.0,0.0,0.0,0.0,0.0,0.0,0.0,0.0,0.0,0.0,0.0,0.0,0.0,0.0,0.0,0.0,0.0,0.0,0.0,0.0,0.0,0.0,0.0,0.0,0.0,0.0,0.0,0.0,0.0,0.0,0.0,0.0,0.0,0.0,0.0,0.0,0.0,0.0,0.0,0.0,0.0,0.0,0.0,0.0,0.0,0.0,0.0,0.0,0.0,0.0,0.0,0.0,0.0,0.0,0.0,0.0,0.0,0.0,0.0,0.0,0.0,0.0,0.0,0.0,0.0,0.0,0.0,0.0,0.0,0.0,0.0,0.0,0.0,0.0,0.0,0.0,0.0,0.0,0.0,0.0,0.0,0.0,0.0,0.0,0.0,0.0,0.0,0.0,0.0,0.0,0.0,0.0,0.0,0.0,0.0,0.0,0.0,0.0,0.0,0.0,0.0,0.0,0.0,0.0,0.0,0.0,0.0,0.0,0.0,0.0,0.0,0.0,0.0,0.0,0.0,0.0,0.0,0.0,0.0,0.0,0.0,0.0,0.0,0.0,0.0,0.0,0.0,0.0,0.0,0.0,0.0,0.0,0.0,0.0,0.0,0.0,0.0,0.0,0.0,0.0,0.0,0.0,0.0,0.0,0.0,0.0,0.0,0.0,0.0,0.0,0.0,0.0,0.0,0.0,0.0,0.0,0.0,0.0,0.0,0.0,0.0,0.0,0.0,0.0,0.0,0.0,0.0,0.0,0.0,0.0,0.0,0.0,0.0,0.0,0.0,0.0,0.0,0.0,0.0,0.0,0.0,0.0,0.0,0.0,0.0,0.0,0.0,0.0,0.0,0.0,0.0,0.0,0.0,0.0,0.0,0.0,0.0,0.0,0.0,0.0,0.0,0.0,0.0,0.0,0.0,0.0,0.0,0.0,0.0,0.0,0.0,0.0,0.0,0.0,0.0,0.0,0.0,0.0,0.0,0.0,0.0,0.0,0.0,0.0,0.0,0.0,0.0,0.0,0.0,0.0,0.0,0.0,0.0,0.0,0.0,0.0,0.0,0.0,0.0,0.0,0.0,0.0,0.0,0.0,0.0,0.0,0.0,0.0,0.0,0.0,0.0,0.0,0.0,0.0,0.0,0.0,0.0,0.0,0.0,0.0,0.0,0.0,0.0,0.0,0.0,0.0,0.0,0.0,0.0,0.0,0.0,0.0,0.0,0.0,0.0,0.0,0.0,0.0,0.0,0.0,0.0,0.0,0.0,0.0,0.0,0.0,0.0,0.0,0.0,0.0,0.0,0.0,0.0,0.0,0.0,0.0,0.0,0.0,0.0,0.0,0.0,0.0,0.0,0.0,0.0,0.0,0.0,0.0,0.0,0.0,0.0,0.0,0.0,0.0,0.0,0.0,0.0,0.0,0.0,0.0,0.0,0.0,0.0,0.0,0.0,0.0,0.0,0.0,0.0,0.0,0.0,0.0,0.0,0.0,0.0,0.0,0.0,0.0,0.0,0.0,0.0,0.0,0.0,0.0,0.0,0.0,0.0,0.0,0.0,0.0,0.0,0.0,0.0,0.0,0.0,0.0,0.0,0.0,0.0,0.0,0.0,0.0,0.0,0.0,0.0,0.0,0.0,0.0,0.0,0.0,0.0,0.0,0.0,0.0,0.0,0.0,0.0,0.0,0.0,0.0,0.0,0.0,0.0,0.0,0.0,0.0,0.0,0.0,0.0,0.0,0.0,0.0,0.0,0.0,0.0,0.0,0.0,0.0,0.0,0.0,0.0,0.0,0.0,0.0,0.0,0.0,0.0,0.0,0.0,0.0,0.0,0.0,0.0,0.0,0.0,0.0,0.0,0.0,0.0,0.0,0.0,0.0,0.0,0.0,0.0,0.0,0.0,0.0,0.0,0.0,0.0,0.0,0.0,0.0,0.0,0.0,0.0,0.0,0.0,0.0,0.0,0.0,0.0,0.0,0.0,0.0,0.0,0.0,0.0,0.0,0.0,0.0,0.0,0.0,0.0,0.0,0.0,0.0,0.0,0.0,0.0,0.0,0.0,0.0,0.0,0.0,0.0,0.0,0.0,0.0,0.0,0.0,0.0,0.0,0.0,0.0,0.0,0.0,0.0,0.0,0.0,0.0,0.0,0.0,0.0,0.0,0.0,0.0,0.0,0.0,0.0,0.0,0.0,0.0,0.0,0.0,0.0,0.0,0.0,0.0,0.0,0.0,0.0,0.0,0.0,0.0,0.0,0.0,0.0,0.0,0.0,0.0,0.0,0.0,0.0,0.0,0.0,0.0,0.0,0.0,0.0,0.0,0.0,0.0,0.0,0.0,0.0,0.0,0.0,0.0,0.0,0.0,0.0,0.0,0.0,0.0,0.0,0.0,0.0,0.0,0.0,0.0,0.0,0.0,0.0,0.0,0.0,0.0,0.0,0.0,0.0,0.0,0.0,0.0,0.0,0.0,0.0,0.0,0.0,0.0,0.0,0.0,0.0,0.0,0.0,0.0,0.0,0.0,0.0,0.0,0.0,0.0,0.0,0.0,0.0,0.0,0.0,0.0,0.0,0.0,0.0,0.0,0.0,0.0,0.0,0.0,0.0,0.0,0.0,0.0,0.0,0.0,0.0,0.0,0.0,0.0,0.0,0.0,0.0,0.0,0.0,0.0,0.0,0.0,0.0,0.0,0.0,0.0,0.0,0.0,0.0,0.0,0.0,0.0,0.0,0.0,0.0,0.0,0.0,0.0,0.0,0.0,0.0,0.0,0.0,0.0,0.0,0.0,0.0,0.0,0.0,0.0,0.0,0.0,0.0,0.0,0.0,0.0,0.0,0.0,0.0,0.0,0.0,0.0,0.0,0.0,0.0,0.0,0.0,0.0,0.0,0.0,0.0,0.0,0.0,0.0,0.0,0.0,0.0,0.0,0.0,0.0,0.0,0.0,0.0,0.0,0.0,0.0,0.0,0.0,0.0,0.0,0.0,0.0,0.0,0.0,0.0,0.0,0.0,0.0,0.0,0.0,0.0,0.0,0.0,0.0,0.0,0.0,0.0,0.0,0.0,0.0,0.0,0.0,0.0,0.0,0.0,0.0,0.0,0.0,0.0,0.0,0.0,0.0,0.0,0.0,0.0,0.0,0.0,0.0,0.0,0.0,0.0,0.0,0.0,0.0,0.0,0.0,0.0,0.0,0.0,0.0,0.0,0.0,0.0,0.0,0.0,0.0,0.0,0.0,0.0,0.0,0.0,0.0,0.0,0.0,0.0,0.0,0.0,0.0,0.0,0.0,0.0,0.0,0.0,0.0,0.0,0.0,0.0,0.0,0.0,0.0,0.0,0.0,0.0,0.0,0.0,0.0,0.0,0.0,0.0,0.0,0.0,0.0,0.0,0.0,0.0,0.0,0.0,0.0,0.0,0.0,0.0,0.0,0.0,0.0,0.0,0.0,0.0,0.0,0.0,0.0,0.0,0.0,0.0,0.0,0.0,0.0,0.0,0.0,0.0,0.0,0.0,0.0,0.0,0.0,0.0,0.0,0.0,0.0,0.0,0.0,0.0,0.0,0.0,0.0,0.0,0.0,0.0,0.0,0.0,0.0,0.0,0.0,0.0,0.0,0.0,0.0,0.0,0.0,0.0,0.0,0.0,0.0,0.0,0.0,0.0,0.0,0.0,0.0,0.0,0.0,0.0,0.0,0.0,0.0,0.0,0.0,0.0,0.0,0.0,0.0,0.0,0.0,0.0,0.0,0.0,0.0,0.0,0.0,0.0,0.0,0.0,0.0,0.0,0.0,0.0,0.0,0.0,0.0,0.0,0.0,0.0,0.0,0.0,0.0,0.0,0.0,0.0,0.0,0.0,0.0,0.0,0.0,0.0,0.0,0.0,0.0,0.0,0.0,0.0,0.0,0.0,0.0,0.0,0.0,0.0,0.0,0.0,0.0,0.0,0.0,0.0,0.0,0.0,0.0,0.0,0.0,0.0,0.0,0.0,0.0,0.0,0.0,0.0,0.0,0.0,0.0,0.0,0.0,0.0,0.0,0.0,0.0,0.0,0.0,0.0,0.0,0.0,0.0,0.0,0.0,0.0,0.0,0.0,0.0,0.0,0.0,0.0,0.0,0.0,0.0,0.0,0.0,0.0,0.0,0.0,0.0,0.0,0.0,0.0,0.0,0.0,0.0,0.0,0.0,0.0,0.0,0.0,0.0,0.0,0.0,0.0,0.0,0.0,0.0,0.0,0.0,0.0,0.0,0.0,0.0,0.0,0.0,0.0,0.3383,0.0,0.0,0.0,0.0,0.0,0.0,0.0,0.0,0.0,0.0,0.0,0.0,0.0,0.0,0.0,0.0,0.0,0.0,0.0,0.0,0.0,0.0,0.0,0.0,0.0,0.0,0.0,0.0,0.0,0.0,0.0,0.0,0.0,0.0,0.0,0.0,0.0,0.0,0.0,0.0,0.0,0.0,0.0,0.0,0.0,0.0,0.0,0.0,0.0,0.0,0.0,0.0,0.0,0.0,0.0,0.0,0.0,0.0,0.0,0.0,0.0,0.0,0.0,0.0,0.0,0.0,0.0,0.0,0.0,0.0,0.0,0.0,0.0,0.0,0.0,0.0,0.0,0.0,0.0,0.0,0.0,0.0,0.0,0.0,0.0,0.0,0.0,0.0,0.0,0.0,0.0,0.0,0.0,0.0,0.0,0.0,0.0,0.0,0.0,0.0,0.0,0.0,0.0,0.0,0.0,0.0,0.0,0.0,0.0,0.0,0.2331,0.2924,0.2953,0.3225,0.3815,0.0,0.0,0.0,0.0,0.0,0.0,0.0,0.0,0.0,0.0,0.0,0.0,0.0,0.0,0.0,0.0,0.0,0.0,0.0,0.0,0.0,0.0,0.0,0.0,0.0,0.0,0.0,0.0,0.0,0.0,0.0,0.0,0.0,0.0,0.0,0.0,0.0,0.0,0.0,0.0,0.0,0.0,0.0,0.0,0.0,0.0,0.0,0.0,0.0,0.0,0.0,0.0,0.0,0.0,0.0,0.0,0.0,0.0,0.0,0.0,0.0,0.0,0.0,0.0,0.0,0.0,0.0,0.0,0.0,0.0,0.0,0.0,0.0,0.0,0.0,0.0,0.0,0.0,0.0,0.0,0.0,0.0,0.0,0.0,0.0,0.0,0.0,0.0,0.0,0.0,0.0,0.0,0.0,0.0,0.0,0.0,0.0,0.0,0.0,0.0,0.0,0.0,0.0,0.0,0.0,0.0,0.0,0.0,0.0,0.0,0.0,0.0,0.3263,0.355,0.4299,0.0,0.0,0.0,0.0,0.0,0.0,0.0,0.0,0.0,0.0,0.0,0.0,0.0,0.0,0.0,0.0,0.0,0.0,0.0,0.0,0.0,0.0,0.0,0.0,0.0,0.0,0.0,0.0,0.0,0.0,0.0,0.0,0.0,0.0,0.0,0.0,0.0,0.0,0.0,0.0,0.0,0.0,0.0,0.0,0.0,0.0,0.0,0.0,0.0,0.0,0.0,0.0,0.0,0.0,0.0,0.0,0.0,0.0,0.0,0.0,0.0,0.0,0.0,0.0,0.0,0.0,0.0,0.0,0.0,0.0,0.0,0.0,0.0,0.0,0.0,0.0,0.0,0.0,0.0,0.0,0.0,0.0,0.0,0.0,0.0,0.0,0.0,0.0,0.0,0.0,0.0,0.0,0.0,0.0,0.0,0.0,0.0,0.0,0.0,0.0,0.0,0.0,0.0,0.0,0.0,0.0,0.0,0.0,0.0,0.0,0.3104,0.348,0.3664,0.0,0.469,0.0,0.0,0.0,0.0,0.0,0.0,0.0,0.0,0.0,0.0,0.0,0.0,0.0,0.0,0.0,0.0,0.0,0.0,0.0,0.0,0.0,0.0,0.0,0.0,0.0,0.0,0.0,0.0,0.0,0.0,0.0,0.0,0.0,0.0,0.0,0.0,0.0,0.0,0.0,0.0,0.0,0.0,0.0,0.0,0.0,0.0,0.0,0.0,0.0,0.0,0.0,0.0,0.0,0.0,0.0,0.0,0.0,0.0,0.0,0.0,0.0,0.0,0.0,0.0,0.0,0.0,0.0,0.0,0.0,0.0,0.0,0.0,0.0,0.0,0.0,0.0,0.0,0.0,0.0,0.0,0.0,0.0,0.0,0.0,0.0,0.0,0.0,0.0,0.0,0.0,0.0,0.0,0.0,0.0,0.0,0.0,0.0,0.0,0.0,0.0,0.0,0.0,0.0,0.0,0.0,0.0,0.0,0.0,0.0,0.0,0.3257,0.3911,0.4303,0.4413,0.0,0.0,0.0,0.0,0.0,0.0,0.0,0.0,0.0,0.0,0.0,0.0,0.0,0.0,0.0,0.0,0.0,0.0,0.0,0.0,0.0,0.0,0.0,0.0,0.0,0.0,0.0,0.0,0.0,0.0,0.0,0.0,0.0,0.0,0.0,0.0,0.0,0.0,0.0,0.0,0.0,0.0,0.0,0.0,0.0,0.0,0.0,0.0,0.0,0.0,0.0,0.0,0.0,0.0,0.0,0.0,0.0,0.0,0.0,0.0,0.0,0.0,0.0,0.0,0.0,0.0,0.0,0.0,0.0,0.0,0.0,0.0,0.0,0.0,0.0,0.0,0.0,0.0,0.0,0.0,0.0,0.0,0.0,0.0,0.0,0.0,0.0,0.0,0.0,0.0,0.0,0.0,0.0,0.0,0.0,0.0,0.0,0.0,0.0,0.0,0.0,0.0,0.0,0.0,0.0,0.0,0.0,0.0,0.0,0.0,0.2653,0.3462,0.4232,0.4753,0.4618,0.3839,0.0,0.0,0.0,0.0,0.0,0.0,0.0,0.0,0.0,0.0,0.0,0.0,0.0,0.0,0.0,0.0,0.0,0.0,0.0,0.0,0.0,0.0,0.0,0.0,0.0,0.0,0.0,0.0,0.0,0.0,0.0,0.0,0.0,0.0,0.0,0.0,0.0,0.0,0.0,0.0,0.0,0.0,0.0,0.0,0.0,0.0,0.0,0.0,0.0,0.0,0.0,0.0,0.0,0.0,0.0,0.0,0.0,0.0,0.0,0.0,0.0,0.0,0.0,0.0,0.0,0.0,0.0,0.0,0.0,0.0,0.0,0.0,0.0,0.0,0.0,0.0,0.0,0.0,0.0,0.0,0.0,0.0,0.0,0.0,0.0,0.0,0.0,0.0,0.0,0.0,0.0,0.0,0.0,0.0,0.0,0.0,0.0,0.0,0.0,0.0,0.0,0.0,0.0,0.0,0.0,0.0,0.0,0.0,0.1823,0.2949,0.3843,0.4375,0.4779,0.4631,0.0,0.0,0.0,0.0,0.0,0.0,0.0,0.0,0.0,0.0,0.0,0.0,0.0,0.0,0.0,0.0,0.0,0.0,0.0,0.0,0.0,0.0,0.0,0.0,0.0,0.0,0.0,0.0,0.0,0.0,0.0,0.0,0.0,0.0,0.0,0.0,0.0,0.0,0.0,0.0,0.0,0.0,0.0,0.0,0.0,0.0,0.0,0.0,0.0,0.0,0.0,0.0,0.0,0.0,0.0,0.0,0.0,0.0,0.0,0.0,0.0,0.0,0.0,0.0,0.0,0.0,0.0,0.0,0.0,0.0,0.0,0.0,0.0,0.0,0.0,0.0,0.0,0.0,0.0,0.0,0.0,0.0,0.0,0.0,0.0,0.0,0.0,0.0,0.0,0.0,0.0,0.0,0.0,0.0,0.0,0.0,0.0,0.0,0.0,0.0,0.0,0.0,0.0,0.0,0.0,0.0,0.0,0.0,0.0,0.2161,0.3493,0.4291,0.4411,0.4779,0.464,0.0,0.0,0.0,0.0,0.0,0.0,0.0,0.0,0.0,0.0,0.0,0.0,0.0,0.0,0.0,0.0,0.0,0.0,0.0,0.0,0.0,0.0,0.0,0.0,0.0,0.0,0.0,0.0,0.0,0.0,0.0,0.0,0.0,0.0,0.0,0.0,0.0,0.0,0.0,0.0,0.0,0.0,0.0,0.0,0.0,0.0,0.0,0.0,0.0,0.0,0.0,0.0,0.0,0.0,0.0,0.0,0.0,0.0,0.0,0.0,0.0,0.0,0.0,0.0,0.0,0.0,0.0,0.0,0.0,0.0,0.0,0.0,0.0,0.0,0.0,0.0,0.0,0.0,0.0,0.0,0.0,0.0,0.0,0.0,0.0,0.0,0.0,0.0,0.0,0.0,0.0,0.0,0.0,0.0,0.0,0.0,0.0,0.0,0.0,0.0,0.0,0.0,0.0,0.0,0.0,0.0,0.0,0.0,0.0,0.2773,0.0,0.4638,0.4704,0.4891,0.4769,0.0,0.0,0.0,0.0,0.0,0.0,0.0,0.0,0.0,0.0,0.0,0.0,0.0,0.0,0.0,0.0,0.0,0.0,0.0,0.0,0.0,0.0,0.0,0.0,0.0,0.0,0.0,0.0,0.0,0.0,0.0,0.0,0.0,0.0,0.0,0.0,0.0,0.0,0.0,0.0,0.0,0.0,0.0,0.0,0.0,0.0,0.0,0.0,0.0,0.0,0.0,0.0,0.0,0.0,0.0,0.0,0.0,0.0,0.0,0.0,0.0,0.0,0.0,0.0,0.0,0.0,0.0,0.0,0.0,0.0,0.0,0.0,0.0,0.0,0.0,0.0,0.0,0.0,0.0,0.0,0.0,0.0,0.0,0.0,0.0,0.0,0.0,0.0,0.0,0.0,0.0,0.0,0.0,0.0,0.0,0.0,0.0,0.0,0.0,0.0,0.0,0.0,0.0,0.0,0.0,0.0,0.0,0.0,0.2338,0.3731,0.4329,0.4827,0.5251,0.5101,0.4945,0.0,0.0,0.0,0.0,0.0,0.0,0.0,0.0,0.0,0.0,0.0,0.0,0.0,0.0,0.0,0.0,0.0,0.0,0.0,0.0,0.0,0.0,0.0,0.0,0.0,0.0,0.0,0.0,0.0,0.0,0.0,0.0,0.0,0.0,0.0,0.0,0.0,0.0,0.0,0.0,0.0,0.0,0.0,0.0,0.0,0.0,0.0,0.0,0.0,0.0,0.0,0.0,0.0,0.0,0.0,0.0,0.0,0.0,0.0,0.0,0.0,0.0,0.0,0.0,0.0,0.0,0.0,0.0,0.0,0.0,0.0,0.0,0.0,0.0,0.0,0.0,0.0,0.0,0.0,0.0,0.0,0.0,0.0,0.0,0.0,0.0,0.0,0.0,0.0,0.0,0.0,0.0,0.0,0.0,0.0,0.0,0.0,0.0,0.0,0.0,0.0,0.0,0.0,0.0,0.0,0.0,0.0,0.0,0.0,0.3789,0.4548,0.4907,0.4829,0.535,0.5175,0.0,0.0,0.0,0.0,0.0,0.0,0.0,0.0,0.0,0.0,0.0,0.0,0.0,0.0,0.0,0.0,0.0,0.0,0.0,0.0,0.0,0.0,0.0,0.0,0.0,0.0,0.0,0.0,0.0,0.0,0.0,0.0,0.0,0.0,0.0,0.0,0.0,0.0,0.0,0.0,0.0,0.0,0.0,0.0,0.0,0.0,0.0,0.0,0.0,0.0,0.0,0.0,0.0,0.0,0.0,0.0,0.0,0.0,0.0,0.0,0.0,0.0,0.0,0.0,0.0,0.0,0.0,0.0,0.0,0.0,0.0,0.0,0.0,0.0,0.0,0.0,0.0,0.0,0.0,0.0,0.0,0.0,0.0,0.0,0.0,0.0,0.0,0.0,0.0,0.0,0.0,0.0,0.0,0.0,0.0,0.0,0.0,0.0,0.0,0.0,0.0,0.0,0.0,0.0,0.0,0.0,0.0,0.0,0.0,0.419,0.5073,0.5502,0.5393,0.5893,0.5762,0.4945,0.0,0.0,0.0,0.0,0.0,0.0,0.0,0.0,0.0,0.0,0.0,0.0,0.0,0.0,0.0,0.0,0.0,0.0,0.0,0.0,0.0,0.0,0.0,0.0,0.0,0.0,0.0,0.0,0.0,0.0,0.0,0.0,0.0,0.0,0.0,0.0,0.0,0.0,0.0,0.0,0.0,0.0,0.0,0.0,0.0,0.0,0.0,0.0,0.0,0.0,0.0,0.0,0.0,0.0,0.0,0.0,0.0,0.0,0.0,0.0,0.0,0.0,0.0,0.0,0.0,0.0,0.0,0.0,0.0,0.0,0.0,0.0,0.0,0.0,0.0,0.0,0.0,0.0,0.0,0.0,0.0,0.0,0.0,0.0,0.0,0.0,0.0,0.0,0.0,0.0,0.0,0.0,0.0,0.0,0.0,0.0,0.0,0.0,0.0,0.0,0.0,0.0,0.0,0.0,0.0,0.0,0.0,0.0,0.4899,0.5866,0.6492,0.668,0.6675,0.6645,0.0,0.0,0.0,0.0,0.0,0.0,0.0,0.0,0.0,0.0,0.0,0.0,0.0,0.0,0.0,0.0,0.0,0.0,0.0,0.0,0.0,0.0,0.0,0.0,0.0,0.0,0.0,0.0,0.0,0.0,0.0,0.0,0.0,0.0,0.0,0.0,0.0,0.0,0.0,0.0,0.0,0.0,0.0,0.0,0.0,0.0,0.0,0.0,0.0,0.0,0.0,0.0,0.0,0.0,0.0,0.0,0.0,0.0,0.0,0.0,0.0,0.0,0.0,0.0,0.0,0.0,0.0,0.0,0.0,0.0,0.0,0.0,0.0,0.0,0.0,0.0,0.0,0.0,0.0,0.0,0.0,0.0,0.0,0.0,0.0,0.0,0.0,0.0,0.0,0.0,0.0,0.0,0.0,0.0,0.0,0.0,0.0,0.0,0.0,0.0,0.0,0.0,0.0,0.0,0.0,0.0,0.0,0.0,0.0,0.5953,0.7025,0.734,0.6869,0.7087,0.7301,0.0,0.0,0.0,0.0,0.0,0.0,0.0,0.0,0.0,0.0,0.0,0.0,0.0,0.0,0.0,0.0,0.0,0.0,0.0,0.0,0.0,0.0,0.0,0.0,0.0,0.0,0.0,0.0,0.0,0.0,0.0,0.0,0.0,0.0,0.0,0.0,0.0,0.0,0.0,0.0,0.0,0.0,0.0,0.0,0.0,0.0,0.0,0.0,0.0,0.0,0.0,0.0,0.0,0.0,0.0,0.0,0.0,0.0,0.0,0.0,0.0,0.0,0.0,0.0,0.0,0.0,0.0,0.0,0.0,0.0,0.0,0.0,0.0,0.0,0.0,0.0,0.0,0.0,0.0,0.0,0.0,0.0,0.0,0.0,0.0,0.0,0.0,0.0,0.0,0.0,0.0,0.0,0.0,0.0,0.0,0.0,0.0,0.0,0.0,0.0,0.0,0.0,0.0,0.0,0.0,0.0,0.0,0.0,0.5356,0.636,0.7519,0.8069,0.7831,0.8121,0.8196,0.0,0.0,0.0,0.0,0.0,0.0,0.0,0.0,0.0,0.0,0.0,0.0,0.0,0.0,0.0,0.0,0.0,0.0,0.0,0.0,0.0,0.0,0.0,0.0,0.0,0.0,0.0,0.0,0.0,0.0,0.0,0.0,0.0,0.0,0.0,0.0,0.0,0.0,0.0,0.0,0.0,0.0,0.0,0.0,0.0,0.0,0.0,0.0,0.0,0.0,0.0,0.0,0.0,0.0,0.0,0.0,0.0,0.0,0.0,0.0,0.0,0.0,0.0,0.0,0.0,0.0,0.0,0.0,0.0,0.0,0.0,0.0,0.0,0.0,0.0,0.0,0.0,0.0,0.0,0.0,0.0,0.0,0.0,0.0,0.0,0.0,0.0,0.0,0.0,0.0,0.0,0.0,0.0,0.0,0.0,0.0,0.0,0.0,0.0,0.0,0.0,0.0,0.0,0.0,0.0,0.0,0.0,0.0,0.5729,0.6419,0.7721,0.868,0.9204,0.9379,0.9081,0.0,0.0,0.0,0.0,0.0,0.0,0.0,0.0,0.0,0.0,0.0,0.0,0.0,0.0,0.0,0.0,0.0,0.0,0.0,0.0,0.0,0.0,0.0,0.0,0.0,0.0,0.0,0.0,0.0,0.0,0.0,0.0,0.0,0.0,0.0,0.0,0.0,0.0,0.0,0.0,0.0,0.0,0.0,0.0,0.0,0.0,0.0,0.0,0.0,0.0,0.0,0.0,0.0,0.0,0.0,0.0,0.0,0.0,0.0,0.0,0.0,0.0,0.0,0.0,0.0,0.0,0.0,0.0,0.0,0.0,0.0,0.0,0.0,0.0,0.0,0.0,0.0,0.0,0.0,0.0,0.0,0.0,0.0,0.0,0.0,0.0,0.0,0.0,0.0,0.0,0.0,0.0,0.0,0.0,0.0,0.0,0.0,0.0,0.0,0.0,0.0,0.0,0.0,0.0,0.0,0.0,0.0,0.0,0.5946,0.721,0.8117,0.9041,0.9997,0.9519,0.918,0.0,0.0,0.0,0.0,0.0,0.0,0.0,0.0,0.0,0.0,0.0,0.0,0.0,0.0,0.0,0.0,0.0,0.0,0.0,0.0,0.0,0.0,0.0,0.0,0.0,0.0,0.0,0.0,0.0,0.0,0.0,0.0,0.0,0.0,0.0,0.0,0.0,0.0,0.0,0.0,0.0,0.0,0.0,0.0,0.0,0.0,0.0,0.0,1.0312,0.0,0.0,0.0,0.0,0.0,0.0,0.0,0.0,0.0,0.0,0.0,0.0,0.0,0.0,0.0,0.0,0.0,0.0,0.0,0.0,0.0,0.0,0.0,0.0,0.0,0.0,0.0,0.0,0.0,0.0,0.0,0.0,0.0,0.0,0.0,0.0,0.0,0.0,0.0,0.0,0.0,0.0,0.0,0.0,0.0,0.0,0.0,0.0,0.0,0.0,0.0,0.0,0.0,0.0,0.0,0.0,0.0,0.0,0.0,0.6298,0.7596,0.8511,0.9239,0.9793,0.9932,0.9765,0.0,0.0,0.0,0.0,0.0,0.0,0.0,0.0,0.0,0.0,0.0,0.0,0.0,0.0,0.0,0.0,0.0,0.0,0.0,0.0,0.0,0.0,0.0,0.0,0.0,0.0,0.0,0.0,0.0,0.0,0.0,0.0,0.0,0.0,0.0,0.0,0.0,0.0,0.0,0.0,0.0,0.0,0.0,0.0,0.0,0.0,0.0,0.0,0.0,0.0,0.0,0.0,0.0,0.0,0.0,0.0,0.0,0.0,0.0,0.0,0.0,0.0,0.0,0.0,0.0,0.0,0.0,0.0,0.0,0.0,0.0,0.0,0.0,0.0,0.0,0.0,0.0,0.0,0.0,0.0,0.0,0.0,0.0,0.0,0.0,0.0,0.0,0.0,0.0,0.0,0.0,0.0,0.0,0.0,0.0,0.0,0.0,0.0,0.0,0.0,0.0,0.0,0.0,0.0,0.0,0.0,0.0,0.5396,0.6623,0.779,0.8856,0.947,0.9624,1.0426,1.0437,0.9452,0.0,0.0,0.0,0.0,0.0,0.0,0.0,0.0,0.0,0.0,0.0,0.0,0.0,0.0,0.0,0.0,0.0,0.0,0.0,0.0,0.0,0.0,0.0,0.0,0.0,0.0,0.0,0.0,0.0,0.0,0.0,0.0,0.0,0.0,0.0,0.0,0.0,0.0,0.7896,0.9333,0.0,0.0,0.0,0.0,0.0,0.0,0.0,0.0,1.1151,0.0,0.0,0.0,0.0,0.0,0.0,0.0,0.0,0.0,0.0,0.0,0.0,0.0,0.0,0.0,0.0,0.0,0.0,0.0,0.0,0.0,0.0,0.0,0.0,0.0,0.0,0.0,0.0,0.0,0.0,0.0,0.0,0.0,0.0,0.0,0.0,0.0,0.0,0.0,0.0,0.0,0.0,0.0,0.0,0.0,0.0,0.0,0.0,0.0,0.0,0.0,0.0,0.0,0.0,0.0,0.0,0.4417,0.5633,0.6766,0.788,0.9001,1.0,1.0835,1.086,1.0556,0.9982,0.0,0.0,0.0,0.0,0.0,0.0,0.0,0.0,0.0,0.0,0.0,0.0,0.0,0.0,0.0,0.0,0.0,0.0,0.0,0.0,0.0,0.0,0.0,0.0,0.0,0.0,0.0,0.0,0.0,0.0,0.0,0.0,0.0,0.0,0.0,0.0,0.0,0.0,0.0,1.0787,1.1316,0.0,0.0,0.0,0.0,0.0,0.0,0.0,0.0,1.2383,0.0,0.0,0.0,0.0,0.0,0.0,0.0,0.0,0.0,0.0,0.0,0.0,0.0,0.0,0.0,0.0,0.0,0.0,0.0,0.0,0.0,0.0,0.0,0.0,0.0,0.0,0.0,0.0,0.0,0.0,0.0,0.0,0.0,0.0,0.0,0.0,0.0,0.0,0.0,0.0,0.0,0.0,0.0,0.0,0.0,0.0,0.0,0.0,0.0,0.0,0.0,0.0,0.0,0.0,0.0,0.461,0.5752,0.6888,0.8049,0.9291,1.0438,1.149,1.1354,1.0854,0.0,0.0,0.0,0.0,0.0,0.0,0.0,0.0,0.0,0.0,0.0,0.0,0.0,0.0,0.0,0.0,0.0,0.0,0.0,0.0,0.0,0.0,0.0,0.0,0.0,0.0,0.0,0.0,0.0,0.0,0.0,0.0,0.0,0.0,0.0,0.0,0.0,0.0,0.0,0.0,1.1427,1.1945,1.2413,0.0,0.0,0.0,0.0,0.0,0.0,1.3086,1.279,0.0,0.0,0.0,0.0,0.0,0.0,0.0,0.0,0.0,0.0,0.0,0.0,0.0,0.0,0.0,0.0,0.0,0.0,0.0,0.0,0.0,0.0,0.0,0.0,0.0,0.0,0.0,0.0,0.0,0.0,0.0,0.0,0.0,0.0,0.0,0.0,0.0,0.0,0.0,0.0,0.0,0.0,0.0,0.0,0.0,0.0,0.0,0.0,0.0,0.0,0.0,0.0,0.0,0.0,0.0,0.4708,0.5856,0.7014,0.8125,0.9554,1.0754,1.1703,1.1733,1.1151,0.0,0.0,0.0,0.0,0.0,0.0,0.0,0.0,0.0,0.0,0.0,0.0,0.0,0.0,0.0,0.0,0.0,0.0,0.0,0.0,0.0,0.0,0.0,0.0,0.0,0.0,0.0,0.0,0.0,0.0,0.0,0.0,0.0,0.0,0.0,0.0,0.0,0.0,0.0,0.0,0.0,1.2603,1.2851,1.3124,0.0,0.0,0.0,0.0,1.4724,1.4123,0.0,0.0,0.0,0.0,0.0,0.0,0.0,0.0,0.0,0.0,0.0,0.0,0.0,0.0,0.0,0.0,0.0,0.0,0.0,0.0,0.0,0.0,0.0,0.0,0.0,0.0,0.0,0.0,0.0,0.0,0.0,0.0,0.0,0.0,0.0,0.0,0.0,0.0,0.0,0.0,0.0,0.0,0.0,0.0,0.0,0.0,0.0,0.0,0.0,0.0,0.0,0.0,0.0,0.0,0.0,0.0,0.4696,0.6004,0.7034,0.7875,0.9623,1.0805,1.1276,1.1545,1.1263,0.0,0.0,0.0,0.0,0.0,0.0,0.0,0.0,0.0,0.0,0.0,0.0,0.0,0.0,0.0,0.0,0.0,0.0,0.0,0.0,0.0,0.0,0.0,0.0,0.0,0.0,0.0,0.0,0.0,0.0,0.0,0.0,0.0,0.0,0.0,0.0,0.0,0.0,0.0,0.0,0.0,1.357,1.4409,1.5258,1.586,0.0,0.0,1.7167,1.7355,1.6677,0.0,0.0,0.0,0.0,0.0,0.0,0.0,0.0,0.0,0.0,0.0,0.0,0.0,0.0,0.0,0.0,0.0,0.0,0.0,0.0,0.0,0.0,0.0,0.0,0.0,0.0,0.0,0.0,0.0,0.0,0.0,0.0,0.0,0.0,0.0,0.0,0.0,0.0,0.0,0.0,0.0,0.0,0.0,0.0,0.0,0.0,0.0,0.0,0.0,0.0,0.0,0.0,0.0,0.0,0.0,0.3873,0.4882,0.6213,0.7294,0.8016,0.971,1.0839,1.1213,1.1574,1.1349,0.0,0.0,0.0,0.0,0.0,0.0,0.0,0.0,0.0,0.0,0.0,0.0,0.0,0.0,0.0,0.0,0.0,0.0,0.0,0.0,0.0,0.0,0.0,0.0,0.0,0.0,0.0,0.0,0.0,0.0,0.0,0.0,0.0,0.0,0.0,0.0,0.0,0.0,0.0,0.0,0.0,0.0,1.532,1.6143,0.0,0.0,0.0,1.767,1.7796,0.0,0.0,0.0,0.0,0.0,0.0,0.0,0.0,0.0,0.0,0.0,0.0,0.0,0.0,0.0,0.0,0.0,0.0,0.0,0.0,0.0,0.0,0.0,0.0,0.0,0.0,0.0,0.0,0.0,0.0,0.0,0.0,0.0,0.0,0.0,0.0,0.0,0.0,0.0,0.0,0.0,0.0,0.0,0.0,0.0,0.0,0.0,0.0,0.0,0.0,0.0,0.0,0.0,0.0,0.0,0.0,0.0,0.4862,0.6282,0.737,0.8093,0.9736,1.0791,1.1204,1.1719,0.0,0.0,0.0,0.0,0.0,0.0,0.0,0.0,0.0,0.0,0.0,0.0,0.0,0.0,0.0,0.0,0.0,0.0,0.0,0.0,0.0,0.0,0.0,0.0,0.0,0.0,0.0,0.4796,0.0,0.0,0.0,0.0,0.0,0.0,0.0,0.0,0.0,0.0,0.0,0.0,0.0,0.0,1.5689,1.6036,1.6848,1.751,0.0,0.0,1.8294,1.8422,1.7765,1.719,0.0,0.0,0.0,0.0,0.0,0.0,0.0,0.0,0.0,0.0,0.0,0.0,0.0,0.0,0.0,0.0,0.0,0.0,0.0,0.0,0.0,0.0,0.0,0.0,0.0,0.0,0.0,0.0,0.0,0.0,0.0,0.0,0.0,0.0,0.0,0.0,0.0,0.0,0.0,0.0,0.0,0.0,0.0,0.0,0.0,0.0,0.0,0.0,0.0,0.0,0.0,0.0,0.0,0.0,0.0,0.4468,0.5962,0.7071,0.7835,0.9619,1.0742,1.1048,1.1929,1.199,0.0,0.0,0.0,0.0,0.0,0.0,0.0,0.0,0.0,0.0,0.0,0.0,0.0,0.0,0.0,0.0,0.0,0.0,0.0,0.0,0.0,0.0,0.0,0.0,0.0,0.0,0.0,0.0,0.0,0.0,0.0,0.0,0.0,0.0,0.0,0.0,0.0,0.0,0.0,0.0,0.0,1.5832,1.6693,1.7677,1.8395,0.0,1.9409,2.0084,2.0198,1.9519,1.8763,1.8043,0.0,0.0,0.0,0.0,0.0,0.0,0.0,0.0,0.0,0.0,0.0,0.0,0.0,0.0,0.0,0.0,0.0,0.0,0.0,0.0,0.0,0.0,0.0,0.0,0.0,0.0,0.0,0.0,0.0,0.0,0.0,0.0,0.0,0.0,0.0,0.0,0.0,0.0,0.0,0.0,0.0,0.0,0.0,0.0,0.0,0.0,0.0,0.0,0.0,0.0,0.0,0.0,0.0,0.3627,0.4555,0.5985,0.7142,0.8009,0.9526,1.0656,1.1251,1.1778,1.1807,0.0,0.0,0.0,0.0,0.0,0.0,0.0,0.0,0.0,0.0,0.0,0.0,0.0,0.0,0.0,0.0,0.0,0.0,0.0,0.0,0.0,0.0,0.0,0.0,0.0,0.0,0.0,0.0,0.6729,0.7314,0.7627,0.0,0.0,0.0,0.0,0.0,0.0,0.0,0.0,0.0,0.0,1.6577,1.7504,1.8498,0.0,0.0,1.9903,2.0236,2.0371,1.9283,1.8291,1.7969,1.681,0.0,0.0,0.0,0.0,0.0,0.0,0.0,0.0,0.0,0.0,0.0,0.0,0.0,0.0,0.0,0.0,0.0,0.0,0.0,0.0,0.0,0.0,0.0,0.0,0.0,0.0,0.0,0.0,0.0,0.0,0.0,0.0,0.0,0.0,0.0,0.0,0.0,0.0,0.0,0.0,0.0,0.0,0.0,0.0,0.0,0.0,0.0,0.0,0.0,0.0,0.0,0.0,0.359,0.4574,0.5935,0.7089,0.8013,0.9436,1.054,1.1304,1.1664,1.1779,0.0,0.0,0.0,0.0,0.0,0.0,0.0,0.0,0.0,0.0,0.0,0.0,0.0,0.0,0.0,0.0,0.0,0.0,0.0,0.0,0.0,0.0,0.0,0.0,0.0,0.0,0.0,0.0,0.7183,0.7665,0.8011,0.0,0.0,0.0,0.0,0.0,0.0,0.0,0.0,0.0,0.0,1.686,1.8294,1.8981,1.9488,1.9983,2.0157,2.0263,2.039,1.9423,1.8554,1.8329,0.0,0.0,0.0,0.0,0.0,0.0,0.0,0.0,0.0,0.0,0.0,0.0,0.0,0.0,0.0,0.0,0.0,0.0,0.0,0.0,0.0,0.0,0.0,0.0,0.0,0.0,0.0,0.289,0.0,0.0,0.1931,0.0,0.0,0.0,0.0,0.0,0.0,0.0,0.0,0.0,0.0,0.0,0.0,0.0,0.0,0.0,0.0,0.0,0.0,0.0,0.0,0.0,0.0,0.3589,0.4316,0.5794,0.6984,0.79,0.928,1.0364,1.1084,1.1684,1.2093,1.2235,0.0,0.0,0.0,0.0,0.0,0.0,0.0,0.0,0.0,0.0,0.0,0.0,0.0,0.0,0.0,0.0,0.0,0.0,0.0,0.0,0.0,0.0,0.0,0.0,0.0,0.0,0.7287,0.7484,0.768,0.0,0.0,0.0,0.0,0.0,0.0,0.0,0.0,0.0,0.0,1.5526,1.642,1.905,1.8979,1.902,2.0043,2.0249,2.0328,2.039,2.0341,2.0074,0.0,0.0,0.0,0.0,0.0,0.0,0.0,0.0,0.0,0.0,0.0,0.0,0.0,0.0,0.0,0.0,0.0,0.0,0.0,0.0,0.0,0.0,0.0,0.0,0.0,0.0,0.0,0.3455,0.3272,0.0,0.0,0.0,0.0,0.0,0.0,0.0,0.0,0.0,0.0,0.0,0.3681,0.371,0.0,0.0,0.0,0.0,0.0,0.0,0.0,0.0,0.0,0.0,0.0,0.0,0.3645,0.4711,0.5913,0.6978,0.8006,0.9235,1.0273,1.1152,1.1621,1.2026,1.2365,0.0,0.0,0.0,0.0,0.0,0.0,0.0,0.0,0.0,0.0,0.0,0.0,0.0,0.0,0.0,0.0,0.0,0.0,0.0,0.0,0.0,0.0,0.0,0.0,0.0,0.8499,0.0,0.0,0.0,0.0,0.0,0.0,0.0,0.0,0.0,0.0,0.0,1.3245,1.4527,1.5251,1.6441,1.8552,1.8802,1.9135,0.0,0.0,0.0,0.0,0.0,0.0,0.0,0.0,0.0,0.0,0.0,0.0,0.0,0.0,1.8799,1.769,1.7443,1.7394,1.7338,0.0,0.0,0.0,0.0,0.0,0.0,0.0,0.0,0.0,0.0,0.0,0.0,0.0,0.0,0.4187,0.0,0.3671,0.0,0.0,0.0,0.0,0.0,0.0,0.0,0.0,0.3855,0.42,0.4555,0.4578,0.4619,0.0,0.4587,0.4123,0.0,0.0,0.0,0.0,0.0,0.0,0.0,0.0,0.3956,0.4908,0.6031,0.7069,0.8,0.9033,0.9969,1.088,1.1597,1.2014,1.2218,1.1312,1.08,0.0,0.0,0.0,0.0,0.0,0.0,0.0,0.0,0.0,0.0,0.0,0.0,0.0,0.0,0.0,0.0,0.0,0.0,0.0,0.0,0.0,0.0,0.0,0.9175,0.0,0.0,0.0,0.0,0.0,0.0,0.0,0.0,0.0,1.3528,1.3437,1.3574,1.4323,1.5017,1.6117,1.7918,0.0,0.0,0.0,0.0,0.0,0.0,0.0,1.9516,1.9551,1.9366,1.9331,1.9671,1.9725,1.9929,2.0441,0.0,0.0,1.944,1.9386,1.9496,1.9419,1.9358,1.9297,1.9277,1.9189,1.9117,0.0,0.0,0.0,0.0,0.0,0.0,0.0,0.0,0.5324,0.5132,0.0,0.4371,0.0,0.0,0.0,0.0,0.3301,0.3248,0.0,0.0,0.45,0.4964,0.5394,0.5529,0.5678,0.5785,0.5708,0.5585,0.5529,0.4303,0.0,0.0,0.0,0.0,0.0,0.0,0.441,0.493,0.6136,0.7143,0.7859,0.8633,0.9458,1.0407,1.154,1.2043,1.1935,1.2058,1.1694,1.0685,1.0548,0.0,0.0,0.0,0.0,0.0,0.0,0.0,0.0,0.0,0.0,0.0,0.0,0.0,0.0,0.0,0.0,0.0,0.0,0.0,0.0,0.9642,0.0,0.0,0.0,0.0,0.0,0.0,0.0,0.0,0.0,0.0,1.4114,1.4167,1.4356,1.4907,0.0,0.0,0.0,0.0,1.8135,1.902,1.9854,2.0386,2.0321,2.0294,2.0313,2.0417,0.0,0.0,2.291,2.3062,2.2976,2.3033,2.2927,2.2692,2.1874,2.2172,2.2556,2.2478,2.2304,2.2419,2.2344,2.1918,2.191,0.7181,0.0,0.0,0.0,0.0,0.6156,0.6072,0.587,0.5952,0.5732,0.5261,0.4943,0.0,0.0,0.0,0.0,0.0,0.0,0.4089,0.4525,0.4905,0.5218,0.5572,0.577,0.6041,0.6271,0.631,0.6331,0.6255,0.5728,0.4976,0.4129,0.0,0.0,0.0,0.0,0.424,0.4921,0.5865,0.6733,0.7439,0.8203,0.9099,1.021,1.0914,1.151,1.194,1.1982,1.1908,1.1797,1.1098,0.0,0.0,0.0,0.0,0.0,0.0,0.0,0.0,0.0,0.0,0.0,0.0,0.0,0.0,0.0,0.0,0.0,0.0,0.0,1.0793,1.044,1.0114,0.0,0.0,0.0,0.0,0.0,0.0,0.0,0.0,0.0,1.7862,1.6502,1.5496,0.0,0.0,1.6548,1.8407,1.8203,1.8374,1.9743,2.0177,0.0,2.0242,2.0246,2.0469,2.1139,2.206,2.28,2.3061,2.3107,2.3275,2.3809,2.385,2.3898,2.4128,2.3304,2.2626,2.2405,2.2344,2.221,2.2081,2.199,2.1983,0.7903,0.7201,0.7047,0.6941,0.686,0.6956,0.6838,0.6585,0.6617,0.6386,0.5984,0.5597,0.5189,0.473,0.4389,0.0,0.0,0.0,0.4443,0.4804,0.5043,0.5328,0.5663,0.6009,0.6323,0.6698,0.6791,0.6855,0.6844,0.6514,0.5854,0.4974,0.0,0.0,0.3434,0.3639,0.4004,0.45,0.5331,0.6153,0.6794,0.7605,0.8455,0.9273,0.9957,1.062,1.136,1.1604,1.1887,1.2198,1.1616,1.1149,0.0,0.0,0.0,0.0,0.0,0.0,0.0,0.0,0.0,0.0,0.0,0.5811,0.7064,0.0,0.0,0.0,1.0757,1.189,1.2037,1.1756,0.0,0.0,0.0,0.0,0.0,0.0,0.0,1.1339,1.3359,1.6073,1.9492,1.818,1.7047,1.7476,1.7148,1.731,1.8462,0.0,1.8704,1.9619,2.0321,2.0719,2.0651,2.0928,2.1487,2.2482,2.3139,2.3725,2.4076,2.4105,2.4257,2.4669,2.4735,2.4806,2.5226,2.4307,2.3484,2.336,2.3258,2.3131,2.2973,2.2876,2.2792,0.8221,0.7977,0.7718,0.7497,0.7432,0.7413,0.7412,0.744,0.7212,0.6977,0.6804,0.6159,0.5646,0.5218,0.4658,0.0,0.4584,0.4435,0.4517,0.4838,0.4957,0.5286,0.5682,0.6032,0.6431,0.6861,0.7081,0.7096,0.7084,0.6693,0.6147,0.5405,0.4722,0.3967,0.3155,0.3436,0.3678,0.3801,0.4624,0.5324,0.586,0.6768,0.7405,0.767,0.8639,0.9444,1.0154,1.093,1.1583,1.2006,1.1964,1.1723,1.1295,0.0,0.0,0.0,0.0,0.0,0.0,0.0,0.0,0.0,0.0,0.0,0.0,0.0,0.0,0.0,1.1637,0.0,1.3166,1.3248,0.0,0.0,0.0,1.2909,1.3145,1.3562,1.3573,1.2883,0.0,0.0,1.9828,1.9487,1.8989,1.8946,1.8345,1.7977,1.8164,1.8817,1.9192,1.9386,2.0514,2.1444,2.1439,2.207,2.293,2.3837,2.4303,2.4676,2.539,2.5549,2.5566,2.5542,2.5493,2.5387,2.5331,2.5135,2.5082,2.486,2.4733,2.4604,2.4383,2.419,2.4007,0.8539,0.8313,0.8234,0.7911,0.7405,0.7571,0.7376,0.6971,0.7066,0.6795,0.6272,0.6036,0.5577,0.499,0.4458,0.43,0.4444,0.4185,0.4158,0.4351,0.4502,0.465,0.4749,0.5247,0.5636,0.5938,0.6371,0.6475,0.6305,0.5951,0.5354,0.4518,0.418,0.3748,0.3201,0.3048,0.2983,0.2906,0.3467,0.4024,0.4597,0.5067,0.541,0.5713,0.6463,0.7358,0.8313,0.9525,1.0593,1.1465,1.1858,1.2062,1.2043,1.1384,0.0,0.0,0.0,0.0,0.0,0.0,0.0,0.0,0.0,0.7815,0.8964,0.0,1.0477,0.0,1.2117,1.3358,1.3143,1.3156,0.0,0.0,1.3624,1.4157,1.4628,1.5483,1.5614,1.4546,1.7214,1.9896,2.1875,2.1887,2.1791,2.1906,2.0102,1.9277,2.0525,2.0313,2.0441,2.1435,2.1948,2.222,2.2236,2.2932,2.3619,2.3983,2.4639,2.5254,2.5574,2.5605,2.5597,2.5603,2.5537,2.5459,2.5471,2.5376,2.5274,2.5138,2.4855,2.4594,2.4464,2.4266,2.4097,0.8262,0.8002,0.7943,0.7559,0.6997,0.735,0.7275,0.6861,0.6728,0.6499,0.6125,0.5719,0.5255,0.4684,0.4372,0.4154,0.4015,0.3911,0.3814,0.3772,0.3887,0.3906,0.3912,0.4278,0.4562,0.4761,0.5138,0.5364,0.5375,0.5171,0.455,0.3478,0.3154,0.2589,0.1902,0.2057,0.2027,0.17,0.2389,0.3063,0.3671,0.3759,0.3678,0.3611,0.4592,0.5615,0.6666,0.8369,0.9916,1.1252,1.2114,1.2692,1.2858,1.223,1.1709,0.0,0.0,0.0,0.0,0.0,0.0,0.0,0.0,0.0,0.0,0.0,1.1372,1.1682,1.3136,1.409,1.4192,1.4281,1.4527,1.4948,1.5521,1.6083,1.6614,1.7487,1.7796,1.7181,1.9316,2.1657,2.3637,2.3232,2.2792,2.2889,2.1581,2.0982,2.1867,2.1613,2.1531,2.2258,2.2601,2.2905,2.3199,2.3705,2.4126,2.4364,2.4812,2.5236,2.5435,2.5486,2.5517,2.5546,2.5551,2.5538,2.5542,2.548,2.5403,2.5283,2.5099,2.4855,2.4626,2.4425,2.4265,0.761,0.7413,0.7235,0.6804,0.6322,0.6745,0.6858,0.6657,0.6263,0.5987,0.5878,0.5175,0.468,0.4294,0.4125,0.3858,0.3546,0.347,0.3233,0.3025,0.3007,0.3017,0.3021,0.3109,0.3282,0.3345,0.3544,0.3833,0.4132,0.3998,0.3326,0.2256,0.1783,0.1057,0.0054,0.0624,0.078,0.0536,0.1321,0.2065,0.2683,0.2523,0.2099,0.1673,0.2813,0.3996,0.5079,0.7165,0.9122,1.0992,1.236,1.3262,1.3598,1.3087,1.2491,0.0,1.1246,0.0,0.0,0.0,0.0,0.0,0.0,0.0,0.0,1.1433,1.2085,1.3714,1.4296,1.4892,1.5543,1.58,1.626,1.7026,1.7563,1.8127,1.8682,1.9465,1.9989,2.0073,2.1312,2.3023,2.492,2.4016,2.3118,2.314,2.2912,2.2718,2.2796,2.2607,2.2413,2.2312,2.2794,2.3361,2.3896,2.417,2.4356,2.4615,2.4727,2.49,2.5144,2.5272,2.5362,2.5447,2.5499,2.5566,2.5601,2.5543,2.5493,2.5441,2.536,2.5196,2.4904,2.4697,2.454,0.6977,0.6815,0.6534,0.6041,0.55,0.5273,0.5332,0.5609,0.5382,0.4944,0.4395,0.3953,0.3569,0.3352,0.3246,0.318,0.3083,0.2224,0.1847,0.1894,0.1519,0.1352,0.1352,0.1588,0.1675,0.1607,0.1608,0.1603,0.1528,0.0664,0.0326,0.0441,0.0307,-0.0178,-0.098,0.0,0.0,0.0,0.0391,0.0672,0.0727,0.0631,0.0508,0.0355,0.1044,0.0,0.3293,0.5389,0.754,0.9657,1.1541,0.0,0.0,0.0,0.0,0.0,0.0,0.0,0.0,0.0,0.0,0.0,1.2376,1.2347,1.2639,1.2523,1.3033,1.4526,1.5021,1.5346,1.5634,1.5995,1.6439,1.6987,1.817,1.9186,1.9971,2.1249,2.2096,2.2074,2.3285,2.4416,2.5088,2.4927,2.4598,2.4386,2.4226,2.3956,2.3661,2.3194,2.3073,2.3456,2.3449,2.3508,2.3629,2.3749,2.3871,2.4063,2.4223,2.4417,2.4674,2.4881,2.5063,2.52,2.5362,2.5467,2.5582,2.5603,2.5566,2.5577,2.5513,2.5388,2.5113,2.493,2.4785,0.6327,0.6105,0.566,0.5113,0.0,0.3953,0.3674,0.3613,0.4233,0.3959,0.3067,0.2734,0.24,0.2011,0.1956,0.1805,0.149,0.0828,0.0484,0.0369,-0.0,-0.0197,-0.0197,-0.0133,-0.0134,-0.0201,-0.0268,-0.0335,-0.0536,-0.1072,-0.1388,-0.1415,-0.152,-0.1611,-0.1746,-0.1957,-0.1623,-0.0729,-0.028,-0.0168,-0.0336,-0.0373,-0.0565,-0.0857,-0.0238,0.0,0.0,0.0,0.0,0.0,0.0,0.0,0.0,1.4328,0.0,1.4132,1.3989,1.3865,1.3724,1.3988,1.4048,1.3722,1.3896,1.388,1.3525,1.3544,1.3988,1.4944,1.5504,1.5942,1.6237,1.6707,1.7406,1.8435,1.9576,2.0613,2.1498,2.2571,2.3286,2.3446,2.4196,2.4832,2.4981,2.485,2.4675,2.4431,2.4128,2.376,2.3412,2.3288,2.3353,2.3404,2.3275,2.3112,2.3082,2.3106,2.3206,2.337,2.3509,2.3721,2.4062,2.4318,2.4592,2.4878,2.509,2.5253,2.5449,2.5523,2.5544,2.5604,2.5586,2.55,2.5363,2.5226,2.5072,0.5563,0.5285,0.467,0.4006,0.3403,0.2623,0.184,0.1281,0.0,0.0,0.0,0.1396,0.1005,0.0502,0.0614,0.028,-0.0396,-0.0897,-0.1291,-0.1487,-0.1699,-0.1808,-0.1809,-0.2009,-0.2076,-0.2076,-0.2076,-0.2144,-0.2278,-0.2479,-0.272,-0.3124,-0.323,-0.292,-0.2285,-0.2033,-0.1684,-0.1259,-0.0794,-0.0677,-0.0953,-0.103,-0.1261,-0.1785,-0.1178,-0.0189,0.1041,0.3541,0.6115,0.8694,1.1384,1.3124,1.3718,1.438,1.4572,1.4109,1.397,1.3952,1.395,1.4559,1.48,1.4575,1.5017,1.5012,1.4251,1.4525,1.4849,1.5223,1.5819,1.6266,1.6678,1.7506,1.8626,2.0128,2.1089,2.1987,2.2887,2.3557,2.401,2.4219,2.45,2.4637,2.4412,2.4272,2.4073,2.373,2.3372,2.3023,2.2703,2.2884,2.3018,2.2788,2.2643,2.2521,2.2459,2.2476,2.2529,2.2678,2.2788,2.2957,2.3334,2.3676,2.4026,2.4448,2.472,2.4982,2.5252,2.5418,2.5504,2.5559,2.5604,2.5598,2.5583,2.5473,2.5316,0.4629,0.4174,0.3448,0.2728,0.2006,0.1113,-0.0056,-0.117,0.0111,0.0446,-0.0056,-0.0501,-0.0835,-0.0947,-0.0445,-0.0791,-0.1923,-0.3633,-0.4303,-0.4085,-0.3951,-0.3872,-0.3875,-0.3941,-0.3941,-0.3941,-0.3941,-0.401,-0.422,-0.4223,-0.4281,-0.4323,-0.4167,-0.3493,-0.2533,-0.2157,-0.1721,-0.1219,-0.1128,-0.1155,-0.1235,-0.1465,-0.17,-0.1845,-0.143,-0.0648,0.0592,0.2954,0.5381,0.7888,1.0531,1.2549,1.3797,1.4534,1.4855,1.4684,1.4549,1.4425,1.4283,1.446,1.4625,1.4789,1.5199,1.5344,1.5067,1.5336,1.55,1.5502,1.5703,1.5997,1.6417,1.8083,1.9638,2.0842,2.1935,2.2908,2.3637,2.4188,2.4436,2.4253,2.4393,2.4138,2.3504,2.335,2.321,2.2847,2.2488,2.218,2.1994,2.2079,2.2203,2.2079,2.201,2.1969,2.1882,2.1899,2.1924,2.1957,2.2051,2.2224,2.2609,2.2909,2.3276,2.3818,2.4236,2.4592,2.4973,2.5262,2.5415,2.5498,2.5542,2.5595,2.5605,2.5554,2.5496,0.368,0.3121,0.2286,0.1449,0.0613,-0.089,-0.2166,-0.3166,-0.2934,-0.2662,-0.251,-0.2896,-0.295,-0.2724,-0.2552,-0.2907,-0.3642,-0.4773,-0.5408,-0.5559,-0.5713,-0.583,-0.5978,-0.592,-0.5793,-0.5731,-0.5661,-0.5599,-0.5543,-0.5484,-0.5279,-0.4942,-0.4358,-0.3661,-0.3039,-0.2584,-0.2181,-0.1706,-0.1289,-0.1201,-0.1421,-0.1574,-0.1834,-0.2024,-0.1716,-0.1034,0.0107,0.2166,0.4431,0.6863,0.9268,1.1289,1.2724,1.3586,1.4161,1.4392,1.4358,1.4334,1.4436,1.4534,1.4716,1.4934,1.5246,1.5422,1.5463,1.5878,1.6115,1.6006,1.5879,1.6293,1.7397,1.8998,2.0479,2.1752,2.2785,2.361,2.4177,2.4403,2.4358,2.3976,2.3691,2.3288,2.2625,2.2444,2.2226,2.1883,2.1589,2.1368,2.1246,2.1308,2.1446,2.1601,2.157,2.1495,2.1388,2.1309,2.1261,2.1261,2.1339,2.1521,2.1845,2.218,2.2677,2.3181,2.3701,2.4169,2.4643,2.4996,2.5197,2.5391,2.5477,2.5543,2.5583,2.5605,2.5554,0.2676,0.2009,0.1061,-0.0,-0.1225,-0.289,-0.411,-0.4933,-0.5529,-0.5487,-0.5062,-0.5069,-0.4893,-0.4608,-0.4765,-0.5097,-0.5504,-0.6131,-0.6591,-0.6915,-0.731,-0.7653,-0.785,-0.7747,-0.7648,-0.7497,-0.7302,-0.7111,-0.6854,-0.6662,-0.626,-0.5657,-0.4806,-0.4148,-0.3751,-0.3286,-0.2856,-0.247,-0.1971,-0.1752,-0.1852,-0.2033,-0.2313,-0.2619,-0.2434,-0.1816,-0.0685,0.1104,0.3169,0.5582,0.7847,0.9809,1.1341,1.2325,1.3044,1.3597,1.3729,1.3869,1.4125,1.4329,1.4571,1.496,1.5153,1.548,1.5824,1.6132,1.6392,1.6436,1.625,1.6844,1.8524,1.9908,2.1242,2.25,2.3318,2.3794,2.416,2.4161,2.3979,2.354,2.288,2.2167,2.1754,2.1398,2.1115,2.0927,2.0714,2.0613,2.0628,2.0628,2.0778,2.1023,2.1103,2.1071,2.0958,2.0827,2.0679,2.0662,2.0679,2.0878,2.1181,2.1565,2.2102,2.2634,2.3211,2.3755,2.4278,2.4691,2.4977,2.5207,2.5372,2.5496,2.557,2.5618,2.5592,0.1621,0.0782,-0.0279,-0.1947,-0.3825,-0.4707,-0.5584,-0.6396,-0.7052,-0.7433,-0.7439,-0.6632,-0.6303,-0.6401,-0.6691,-0.6961,-0.7348,-0.8539,-0.8826,-0.8471,-0.8946,-0.9288,-0.9419,-0.926,-0.9196,-0.9197,-0.8913,-0.8603,-0.8291,-0.8102,-0.7577,-0.6789,-0.6067,-0.5342,-0.4749,-0.435,-0.3944,-0.3597,-0.3659,-0.3436,-0.2903,-0.3258,-0.3618,-0.4096,-0.3978,-0.3362,-0.2191,-0.0423,0.1594,0.3942,0.6193,0.8221,0.9953,1.1036,1.1816,1.2338,1.2493,1.2715,1.3102,1.3494,1.3952,1.4501,1.4994,1.5567,1.6139,1.6032,1.612,1.6642,1.6976,1.7851,1.9398,2.0725,2.1933,2.2989,2.3353,2.3319,2.3241,2.3201,2.3235,2.3334,2.1881,2.0827,2.0413,2.019,2.0043,1.9969,1.9914,1.998,2.01,2.0135,2.022,2.0392,2.0577,2.0644,2.0561,2.0395,2.0258,2.017,2.017,2.0326,2.0614,2.0975,2.1428,2.2169,2.2762,2.3343,2.3911,2.4398,2.4799,2.505,2.5274,2.5459,2.5561,2.564,2.5625,0.0447,-0.0447,-0.1452,-0.3116,-0.5101,-0.6032,-0.6848,-0.7711,-0.8296,-0.8672,-0.8869,-0.8692,-0.837,-0.796,-0.8283,-0.8547,-0.8771,-0.9563,-0.9936,-0.9999,-1.0364,-1.0595,-1.0733,-1.0702,-1.0625,-1.0506,-1.0296,-1.0002,-0.9627,-0.9192,-0.8613,-0.7837,-0.7312,-0.6658,-0.6067,-0.5609,-0.5272,-0.513,-0.5397,-0.5531,-0.5481,-0.489,-0.4702,-0.5085,-0.5088,-0.4568,-0.3592,-0.2081,-0.0186,0.2009,0.4171,0.62,0.8126,0.9467,1.0485,1.1156,1.1707,1.2096,1.2337,1.2793,1.3322,1.3931,1.4652,1.5487,1.6434,1.6459,1.7029,1.845,1.8522,1.9038,2.0878,2.2502,2.3596,2.3884,2.3968,2.3779,2.3173,2.2499,2.2063,2.1854,2.0512,1.9405,1.9097,1.8985,1.8991,1.9058,1.9147,1.9281,1.9493,1.9566,1.9624,1.9711,1.9818,1.996,2.008,1.9975,1.9869,1.9797,1.9833,1.996,2.022,2.0597,2.1134,2.1761,2.2388,2.3028,2.366,2.4137,2.4567,2.4879,2.5226,2.5437,2.5585,2.5625,2.5633,-0.0614,-0.1619,-0.2839,-0.4443,-0.615,-0.7074,-0.7889,-0.8679,-0.9263,-0.9681,-0.9976,-1.0328,-1.0174,-0.9658,-0.9747,-0.9909,-1.0072,-1.0482,-1.0867,-1.127,-1.1488,-1.1682,-1.1779,-1.1906,-1.185,-1.1688,-1.1554,-1.1267,-1.0773,-1.0091,-0.9454,-0.8935,-0.8425,-0.7902,-0.7381,-0.6924,-0.6724,-0.6846,-0.7167,-0.7618,-0.7926,-0.7265,-0.6746,-0.675,-0.6746,-0.6343,-0.5603,-0.4143,-0.2424,-0.0253,0.1793,0.3956,0.6087,0.7698,0.9009,0.9879,1.0617,1.1083,1.126,1.1783,1.2475,1.3208,1.4239,1.546,1.6696,1.7192,1.8398,2.0458,2.0742,2.1412,2.2264,2.398,2.4719,2.4271,2.4094,2.3631,2.2603,2.1601,2.0837,2.0362,1.9111,1.809,1.7987,1.7988,1.8108,1.8344,1.8461,1.863,1.8874,1.8997,1.9058,1.9213,1.9124,1.9258,1.9654,1.9611,1.9465,1.9487,1.9545,1.9654,1.9935,2.0392,2.0909,2.1521,2.2102,2.2729,2.3397,2.3906,2.4403,2.4836,2.5173,2.5406,2.5551,2.5581,2.5619,-0.1452,-0.2676,-0.4608,-0.5923,-0.6907,-0.7877,-0.8732,-0.9361,-0.9888,-1.0403,-1.082,-1.1116,-1.1368,-1.146,-1.0956,-1.0897,-1.1217,-1.1619,-1.1886,-1.2031,-1.232,-1.2475,-1.2561,-1.2779,-1.2876,-1.2746,-1.2715,-1.2274,-1.1483,-1.0793,-1.0288,-0.9888,-0.9262,-0.8818,-0.8608,-0.8291,-0.8291,-0.8533,-0.8918,-0.9412,-1.004,-1.0544,-1.0216,-0.9325,-0.9325,-0.9047,-0.8201,-0.6888,-0.5122,-0.2977,-0.0822,0.15,0.3774,0.5719,0.7364,0.8504,0.8978,0.9336,0.9788,1.0407,1.125,1.2454,1.3957,1.5615,1.7502,1.8264,1.9682,2.2164,2.3566,2.4148,2.364,2.4489,2.4785,2.3812,2.3149,2.2364,2.1118,2.0513,1.9718,1.9016,1.8014,1.7334,1.7267,1.7227,1.7461,1.7733,1.7841,1.8002,1.8383,1.85,1.8577,1.8707,1.8745,1.8755,1.9147,1.9191,1.913,1.9191,1.9339,1.945,1.9797,2.0154,2.0714,2.1323,2.1919,2.2565,2.3147,2.3746,2.4298,2.4743,2.5088,2.533,2.5488,2.5562,2.5609,-0.2961,-0.4119,-0.5437,-0.6529,-0.745,-0.8302,-0.9093,-0.9836,-1.0411,-1.082,-1.1175,-1.1528,-1.1778,-1.1977,-1.1927,-1.1968,-1.2076,-1.2372,-1.2578,-1.2706,-1.2852,-1.2881,-1.2864,-1.3317,-1.3442,-1.3347,-1.3456,-1.3139,-1.2336,-1.1802,-1.1303,-1.0793,-1.0225,-0.9843,-0.9716,-0.9448,-0.957,-1.0066,-1.0445,-1.1058,-1.1735,-1.2488,-1.2708,-1.2676,-1.1889,-1.1148,-1.0524,-0.9214,-0.7496,-0.5446,-0.3057,-0.0649,0.1804,0.4377,0.6244,0.7221,0.7725,0.8198,0.8712,0.9624,1.0813,1.2222,1.3737,1.583,1.823,1.9416,2.0779,2.3088,2.4648,2.513,2.4919,2.5057,2.4948,2.4219,2.3404,2.2353,2.0966,1.9875,1.8917,1.8164,1.7523,1.7099,1.6792,1.6879,1.716,1.7193,1.724,1.7447,1.776,1.7868,1.8002,1.8201,1.8266,1.8266,1.8489,1.8736,1.8865,1.9017,1.9191,1.9472,1.9767,2.0204,2.073,2.1308,2.1878,2.2502,2.3141,2.3846,2.4351,2.4718,2.5053,2.5264,2.5423,2.5499,2.5561,-0.4239,-0.5222,-0.6209,-0.7074,-0.7937,-0.8672,-0.9406,-1.0102,-1.0718,-1.1124,-1.1418,-1.1778,-1.2026,-1.2175,-1.2372,-1.2529,-1.2627,-1.2871,-1.3007,-1.3104,-1.3228,-1.3319,-1.3333,-1.3799,-1.4003,-1.3894,-1.3983,-1.37,-1.3017,-1.2544,-1.2058,-1.1553,-1.1059,-1.0681,-1.0555,-1.0415,-1.0654,-1.1156,-1.1648,-1.2273,-1.2972,-1.3767,-1.4359,-1.4685,-1.4037,-1.321,-1.2496,-1.1141,-0.9485,-0.7366,-0.5153,-0.252,0.0533,0.2994,0.4772,0.5632,0.6308,0.6927,0.7634,0.8728,1.0159,1.2016,1.3712,1.5964,1.8812,2.0124,2.1718,2.3447,2.4911,2.5549,2.5297,2.4965,2.4629,2.422,2.3419,2.2148,2.0527,1.9359,1.8261,1.7445,1.7564,1.7364,1.6878,1.6929,1.707,1.7213,1.7028,1.6999,1.7505,1.7499,1.7623,1.8017,1.8221,1.8454,1.8852,1.9265,1.9013,1.908,1.924,1.9479,1.9884,2.0304,2.0778,2.1308,2.1907,2.2502,2.3171,2.3886,2.4352,2.4708,2.4987,2.5203,2.533,2.5444,2.5535,-0.5226,-0.5882,-0.6907,-0.7616,-0.8268,-0.9047,-0.9673,-1.0249,-1.0812,-1.1326,-1.1669,-1.1828,-1.2076,-1.2283,-1.2274,-1.2529,-1.2822,-1.2997,-1.3122,-1.3218,-1.342,-1.3644,-1.3791,-1.4168,-1.4459,-1.4505,-1.4354,-1.4001,-1.345,-1.2981,-1.256,-1.2065,-1.1553,-1.1178,-1.1122,-1.1122,-1.1358,-1.1873,-1.2403,-1.2982,-1.3584,-1.4456,-1.5041,-1.5225,-1.5449,-1.4984,-1.3963,-1.2639,-1.0961,-0.8942,-0.7019,-0.4053,-0.02,0.1667,0.2838,0.3724,0.4544,0.5418,0.6497,0.7723,0.9455,1.1728,1.3763,1.6201,1.8876,2.0504,2.1909,2.3334,2.4497,2.5324,2.4985,2.4321,2.386,2.3761,2.2869,2.1429,1.9839,1.87,1.7733,1.6908,1.7592,1.8318,1.7915,1.7424,1.7331,1.7647,1.7332,1.7061,1.7826,1.7735,1.7689,1.8206,1.8564,1.88,1.9396,1.9915,1.946,1.9166,1.9353,1.9598,2.0071,2.0512,2.0893,2.1432,2.2108,2.273,2.3323,2.4002,2.4317,2.4663,2.4904,2.5149,2.5293,2.5422,2.5517,-0.5778,-0.6426,-0.7133,-0.7883,-0.8626,-0.9152,-0.9784,-1.047,-1.1023,-1.1427,-1.1719,-1.1927,-1.2116,-1.2224,-1.2234,-1.2332,-1.2627,-1.2706,-1.289,-1.316,-1.3266,-1.3367,-1.3501,-1.4027,-1.4531,-1.4802,-1.4678,-1.4327,-1.383,-1.3302,-1.2821,-1.2367,-1.1864,-1.1622,-1.1421,-1.1553,-1.1766,-1.2142,-1.2713,-1.3283,-1.3764,-1.4299,-1.479,-1.5268,-1.5285,-1.4904,-1.4191,-1.3244,-1.1781,-0.9832,-0.7787,-0.4907,-0.1599,0.0066,0.1037,0.2048,0.2812,0.392,0.552,0.7246,0.9358,1.2027,1.4653,1.7574,2.0091,2.0222,2.1406,2.371,2.4601,2.4588,2.4407,2.3673,2.3191,2.3275,2.2073,2.0604,1.8936,1.7886,1.7327,1.7201,1.7928,1.8578,1.8718,1.8263,1.7922,1.8026,1.7793,1.7885,1.8254,1.8332,1.844,1.8919,1.9106,1.9337,1.9942,2.0504,2.0443,2.0081,2.0065,2.0042,2.0457,2.0699,2.1087,2.1658,2.233,2.2915,2.3544,2.4002,2.4336,2.4617,2.4883,2.5084,2.5274,2.5398,2.5505,-0.6213,-0.6864,-0.7521,-0.8209,-0.889,-0.9309,-0.988,-1.0514,-1.1023,-1.1368,-1.1678,-1.1877,-1.2026,-1.2126,-1.2026,-1.2076,-1.2283,-1.2274,-1.251,-1.2842,-1.3084,-1.3173,-1.3402,-1.409,-1.455,-1.473,-1.4743,-1.4378,-1.3821,-1.3354,-1.2875,-1.2428,-1.1988,-1.1673,-1.1461,-1.1608,-1.1811,-1.2101,-1.2626,-1.3175,-1.3651,-1.4159,-1.4695,-1.4996,-1.506,-1.4809,-1.4364,-1.3435,-1.2091,-1.0167,-0.7802,-0.512,-0.2601,-0.1503,-0.0512,0.0314,0.1267,0.2525,0.4459,0.6901,0.9614,1.2614,1.5637,1.8415,2.0636,2.0461,2.1844,2.3562,2.411,2.3906,2.3686,2.2953,2.2488,2.2505,2.1292,1.9661,1.8017,1.7127,1.698,1.7278,1.8007,1.8721,1.9101,1.8827,1.8547,1.8536,1.8417,1.8554,1.8793,1.8962,1.9219,1.9527,1.9758,2.0107,2.0539,2.0969,2.1367,2.1166,2.098,2.0911,2.1024,2.1012,2.123,2.2022,2.2712,2.3129,2.3692,2.4059,2.4407,2.4651,2.4888,2.508,2.5274,2.5418,2.5505,-0.6588,-0.7192,-0.7895,-0.848,-0.9008,-0.9361,-0.988,-1.0462,-1.0922,-1.1318,-1.1628,-1.1728,-1.1769,-1.1819,-1.1728,-1.1769,-1.1828,-1.1877,-1.2026,-1.2314,-1.2686,-1.3096,-1.3608,-1.4053,-1.4326,-1.4357,-1.4378,-1.4058,-1.3425,-1.307,-1.2736,-1.2305,-1.1981,-1.1584,-1.13,-1.1376,-1.162,-1.1792,-1.241,-1.2878,-1.3147,-1.4059,-1.4574,-1.4513,-1.4828,-1.4852,-1.4335,-1.321,-1.1798,-0.9992,-0.7176,-0.5091,-0.3886,-0.2857,-0.2007,-0.1529,-0.0415,0.1367,0.3646,0.6333,0.9784,1.3357,1.6507,1.9066,2.0663,2.1856,2.2486,2.3042,2.3339,2.3346,2.2863,2.2235,2.1754,2.1343,2.0112,1.8514,1.6938,1.655,1.6699,1.7258,1.7963,1.8643,1.9239,1.8812,1.9055,1.9397,1.9128,1.9278,1.9582,1.9819,1.9774,2.0067,2.0508,2.0896,2.1352,2.173,2.2118,2.2319,2.2069,2.185,2.1639,2.1535,2.1584,2.2347,2.2968,2.3382,2.3756,2.4136,2.4441,2.4716,2.4915,2.513,2.5274,2.5398,2.5525,-0.6923,-0.7295,-0.7949,-0.8434,-0.8857,-0.9159,-0.9629,-1.0154,-1.0718,-1.1175,-1.1528,-1.1678,-1.1728,-1.1728,-1.1528,-1.1427,-1.1477,-1.1418,-1.1619,-1.1877,-1.2166,-1.2757,-1.3285,-1.3451,-1.3493,-1.3542,-1.3811,-1.362,-1.2966,-1.2659,-1.2405,-1.2305,-1.2089,-1.1752,-1.1353,-1.1634,-1.1743,-1.1685,-1.2192,-1.2593,-1.2886,-1.3323,-1.3785,-1.4158,-1.427,-1.4323,-1.4108,-1.2726,-1.0747,-0.8486,-0.6791,-0.5214,-0.4213,-0.3745,-0.3517,-0.347,-0.3005,-0.0874,0.3012,0.5509,0.8843,1.3947,1.7315,1.9817,2.1167,2.2428,2.3063,2.3145,2.3065,2.2704,2.2248,2.1774,2.1021,1.956,1.8488,1.7488,1.7062,1.6361,1.6185,1.717,1.807,1.8709,1.8992,1.9233,1.952,2.0016,2.02,2.0184,2.047,2.0798,2.0813,2.1131,2.1511,2.1815,2.2165,2.2546,2.2907,2.3313,2.3198,2.2878,2.2531,2.2198,2.2358,2.2747,2.314,2.3558,2.3881,2.4211,2.4491,2.476,2.4961,2.5153,2.5274,2.5387,2.5511,-0.6977,-0.7295,-0.7842,-0.8328,-0.8745,-0.9054,-0.9472,-1.0043,-1.0565,-1.1074,-1.1427,-1.1519,-1.1569,-1.1578,-1.1403,-1.1192,-1.1074,-1.0972,-1.1124,-1.1377,-1.1728,-1.2305,-1.2847,-1.2931,-1.2821,-1.2839,-1.3094,-1.298,-1.2579,-1.23,-1.2212,-1.2205,-1.1974,-1.1668,-1.1317,-1.1508,-1.1605,-1.1538,-1.2006,-1.2497,-1.2715,-1.3037,-1.3377,-1.3761,-1.3835,-1.3806,-1.3561,-1.2662,-1.0939,-0.8807,-0.7312,-0.613,-0.5186,-0.5045,-0.5273,-0.5648,-0.4426,-0.1626,0.1939,0.5302,0.9723,1.4244,1.7801,1.9952,2.1378,2.2479,2.3041,2.347,2.3255,2.2954,2.2452,2.1677,2.0543,1.9458,1.7821,1.6965,1.712,1.6412,1.63,1.698,1.7905,1.8827,1.8999,1.9473,1.999,2.0485,2.0845,2.1024,2.1259,2.1602,2.1841,2.203,2.2217,2.242,2.268,2.3009,2.3493,2.393,2.4194,2.392,2.3288,2.2865,2.2892,2.3092,2.3395,2.3689,2.3981,2.4284,2.4556,2.4804,2.4987,2.5157,2.5274,2.5406,2.5511,-0.6815,-0.7079,-0.7628,-0.8109,-0.8527,-0.8949,-0.942,-0.9947,-1.0462,-1.0972,-1.1318,-1.1318,-1.1377,-1.1486,-1.126,-1.1006,-1.0616,-1.0514,-1.0672,-1.0953,-1.1311,-1.1782,-1.2307,-1.2322,-1.2193,-1.2146,-1.2273,-1.2265,-1.2145,-1.2026,-1.2166,-1.2174,-1.179,-1.1561,-1.1502,-1.1483,-1.14,-1.1641,-1.223,-1.2638,-1.2895,-1.3144,-1.3474,-1.3672,-1.3775,-1.3626,-1.339,-1.2899,-1.1912,-1.0052,-0.8705,-0.77,-0.6939,-0.6854,-0.699,-0.6978,-0.4844,-0.2278,0.0927,0.6254,1.1151,1.4697,1.7709,1.9941,2.1244,2.2118,2.2834,2.3489,2.3737,2.3424,2.2865,2.1545,2.0613,1.984,1.8409,1.7353,1.7108,1.6769,1.6496,1.6604,1.7973,1.872,1.9198,1.9617,2.0283,2.1131,2.141,2.1589,2.1874,2.2203,2.2388,2.2572,2.2754,2.2934,2.3201,2.3508,2.4006,2.4511,2.4928,2.4753,2.3946,2.3527,2.3394,2.3478,2.3593,2.3795,2.4097,2.4391,2.4639,2.4832,2.5013,2.5149,2.5274,2.5406,2.5525,-0.6598,-0.681,-0.7252,-0.7628,-0.7937,-0.8521,-0.9047,-0.9569,-1.0257,-1.0828,-1.1124,-1.1267,-1.1276,-1.1175,-1.0938,-1.0581,-1.0213,-1.0133,-1.0337,-1.0707,-1.0822,-1.1004,-1.1279,-1.1317,-1.1292,-1.1219,-1.1408,-1.15,-1.1484,-1.1881,-1.212,-1.2135,-1.1975,-1.1837,-1.1768,-1.1925,-1.2059,-1.2289,-1.2842,-1.3131,-1.3226,-1.3564,-1.3772,-1.38,-1.3938,-1.4015,-1.3927,-1.3767,-1.3176,-1.2081,-1.073,-0.9468,-0.9004,-0.885,-0.8467,-0.7355,-0.6192,-0.3024,0.1983,0.5898,0.9742,1.4775,1.7481,1.9407,2.0512,2.1753,2.2503,2.3012,2.3173,2.3175,2.259,2.1844,2.1169,2.0411,1.9073,1.8331,1.8808,1.7956,1.7299,1.7734,1.8507,1.9239,1.9604,1.9914,2.0673,2.1602,2.1983,2.2063,2.2388,2.2768,2.2994,2.3201,2.3377,2.3537,2.3837,2.4173,2.4648,2.5098,2.552,2.5414,2.4611,2.4126,2.3973,2.3791,2.3656,2.3919,2.4229,2.4425,2.4689,2.4847,2.5019,2.5171,2.5303,2.5434,2.5531,-0.6495,-0.6756,-0.7144,-0.7467,-0.7877,-0.8421,-0.8995,-0.9569,-1.0198,-1.0667,-1.0972,-1.1124,-1.1074,-1.093,-1.081,-1.0458,-0.9829,-0.9638,-0.9613,-0.979,-0.9896,-1.0017,-0.9959,-1.0091,-1.0122,-1.0414,-1.08,-1.0908,-1.1189,-1.151,-1.1872,-1.2128,-1.1925,-1.1979,-1.213,-1.2359,-1.2579,-1.2929,-1.3532,-1.3936,-1.4205,-1.4247,-1.3953,-1.3647,-1.3664,-1.3614,-1.3092,-1.3239,-1.2925,-1.2309,-1.1564,-1.0991,-1.0575,-1.0191,-0.9376,-0.8144,-0.4949,-0.2064,0.2611,0.7003,1.1193,1.5179,1.7534,1.9248,2.0594,2.1879,2.2769,2.339,2.3669,2.3522,2.2915,2.2602,2.2134,2.1248,1.9939,1.9533,2.007,1.8917,1.7896,1.8505,1.9214,1.9901,2.0359,2.061,2.1104,2.203,2.2342,2.2466,2.295,2.3334,2.3595,2.3824,2.3979,2.4188,2.4461,2.4823,2.5329,2.5742,2.6127,2.5792,2.5067,2.4729,2.4488,2.4135,2.375,2.4018,2.4321,2.4512,2.4704,2.4879,2.505,2.5201,2.5331,2.5453,2.5537,-0.6386,-0.6707,-0.7149,-0.7515,-0.7931,-0.8527,-0.9061,-0.9569,-1.0198,-1.0565,-1.0828,-1.0964,-1.0828,-1.0632,-1.0585,-1.0052,-0.9295,-0.8902,-0.8775,-0.867,-0.8906,-0.8936,-0.892,-0.8913,-0.9126,-0.9858,-1.0192,-1.0488,-1.0813,-1.1185,-1.1677,-1.2066,-1.1911,-1.2122,-1.249,-1.2725,-1.3045,-1.3637,-1.44,-1.4991,-1.5355,-1.5126,-1.4553,-1.3462,-1.3088,-1.2514,-1.1835,-1.1652,-1.1618,-1.1201,-1.1288,-1.1193,-1.0879,-1.0607,-0.9437,-0.8053,-0.3259,0.0712,0.4284,0.8797,1.3106,1.5902,1.7725,1.9442,2.1076,2.2261,2.319,2.3866,2.4225,2.4225,2.3852,2.3477,2.3039,2.2326,2.1133,2.0851,2.1027,1.9879,1.9249,1.9177,1.985,2.0547,2.1042,2.1444,2.1888,2.231,2.2618,2.2965,2.345,2.3879,2.4188,2.4492,2.4639,2.4887,2.5176,2.5362,2.5864,2.6264,2.6691,2.6279,2.5669,2.5385,2.5006,2.4172,2.3873,2.4134,2.4375,2.4547,2.4738,2.4912,2.5107,2.5286,2.5399,2.5492,2.5576,-0.6273,-0.6761,-0.7133,-0.745,-0.783,-0.8514,-0.8995,-0.9368,-1.0051,-1.0368,-1.0419,-1.0514,-1.0419,-1.011,-0.974,-0.9099,-0.8253,-0.7888,-0.7777,-0.7704,-0.7919,-0.803,-0.8028,-0.7991,-0.8258,-0.8685,-0.9234,-0.9858,-1.0384,-1.0946,-1.1483,-1.1974,-1.2027,-1.2351,-1.2932,-1.3301,-1.3637,-1.4422,-1.5252,-1.5905,-1.6255,-1.6021,-1.5068,-1.3403,-1.2499,-1.1166,-0.9947,-0.9394,-0.907,-0.8658,-0.8511,-0.8028,-0.7484,-0.7938,-0.6858,-0.4435,-0.0955,0.2928,0.6722,1.0269,1.3494,1.5892,1.8031,1.9674,2.1164,2.2513,2.3556,2.4055,2.4385,2.44,2.4078,2.3912,2.3611,2.3025,2.2425,2.2004,2.223,2.1583,2.062,2.0403,2.0818,2.1188,2.1718,2.2109,2.2342,2.2709,2.3054,2.3478,2.4006,2.442,2.4759,2.5091,2.5378,2.561,2.5888,2.6046,2.6329,2.6657,2.6963,2.6944,2.6451,2.6098,2.5524,2.4585,2.4083,2.4172,2.4393,2.4617,2.5092,2.5518,2.5507,2.5466,2.5861,2.6207,2.5783,-0.5891,-0.6376,-0.6864,-0.73,-0.767,-0.8408,-0.8837,-0.9166,-0.9681,-0.9895,-0.9895,-0.9888,-0.9725,-0.948,-0.953,-0.8487,-0.7014,-0.6882,-0.6783,-0.6741,-0.6851,-0.6917,-0.6999,-0.7003,-0.7215,-0.7545,-0.8183,-0.9019,-0.9768,-1.0544,-1.1247,-1.1714,-1.1853,-1.2287,-1.3066,-1.3462,-1.4099,-1.4937,-1.5959,-1.6868,-1.726,-1.6795,-1.5085,-1.3142,-1.0548,-0.8452,-0.6557,-0.5358,-0.4638,-0.4152,-0.387,-0.3292,-0.2674,-0.2048,-0.1789,-0.0563,0.2062,0.5441,0.9166,1.235,1.5007,1.6989,1.8908,2.0481,2.1752,2.301,2.3909,2.4385,2.4589,2.4686,2.4477,2.4359,2.4151,2.3761,2.3182,2.3026,2.3122,2.2668,2.2175,2.1675,2.1805,2.2128,2.242,2.2709,2.2754,2.3113,2.3493,2.4006,2.4517,2.4918,2.5307,2.561,2.5937,2.612,2.6401,2.6538,2.6708,2.7051,2.7291,2.7256,2.6996,2.6555,2.5816,2.4907,2.4604,2.4542,2.4632,2.4949,2.5536,2.6143,2.6371,2.6577,2.6805,2.6834,2.6424,-0.537,-0.5887,-0.649,-0.6977,-0.7408,-0.8096,-0.8521,-0.8791,-0.9197,-0.9302,-0.9145,-0.9093,-0.8876,-0.8633,-0.834,-0.7473,-0.5374,-0.5889,-0.5838,-0.5712,-0.5924,-0.5958,-0.5918,-0.5982,-0.6336,-0.6701,-0.7086,-0.7949,-0.9064,-0.9977,-1.0751,-1.1298,-1.1542,-1.2153,-1.2995,-1.3621,-1.437,-1.5254,-1.6416,-1.7585,-1.8145,-1.674,-1.4384,-1.1745,-0.7881,-0.4428,-0.1832,-0.0431,0.0444,0.0998,0.1477,0.1981,0.3016,0.4635,0.4867,0.4133,0.6014,0.8686,1.1509,1.4144,1.6497,1.8343,1.9971,2.1363,2.2532,2.3434,2.4219,2.4782,2.4966,2.4989,2.4855,2.4838,2.4677,2.4389,2.3983,2.3711,2.3897,2.3743,2.35,2.3126,2.2951,2.3039,2.3319,2.3157,2.3246,2.3638,2.4063,2.4446,2.4958,2.5384,2.5758,2.6137,2.6435,2.6624,2.6842,2.6973,2.7135,2.7365,2.7601,2.7674,2.7326,2.6907,2.6217,2.5746,2.536,2.5299,2.5298,2.545,2.6139,2.6801,2.7304,2.7675,2.7853,2.7611,2.7194,-0.4599,-0.5273,-0.5814,-0.6308,-0.675,-0.745,-0.7777,-0.7937,-0.8461,-0.856,-0.8237,-0.8137,-0.7871,-0.745,-0.6642,-0.5937,-0.5337,-0.5083,-0.4969,-0.4824,-0.5171,-0.5365,-0.5487,-0.5593,-0.5908,-0.6233,-0.6489,-0.7248,-0.8222,-0.9175,-1.0098,-1.0816,-1.1526,-1.2258,-1.3022,-1.3797,-1.4612,-1.5471,-1.6689,-1.8178,-1.8925,-1.6488,-1.3063,-0.9155,-0.4529,-0.0038,0.3034,0.4638,0.5691,0.6151,0.6717,0.7285,0.8012,0.9214,1.047,1.0763,1.1232,1.1677,1.4096,1.6127,1.7953,1.9598,2.0992,2.2011,2.3143,2.3964,2.467,2.5162,2.5262,2.5246,2.5185,2.5242,2.5124,2.4982,2.4729,2.4666,2.4768,2.461,2.4387,2.4281,2.3975,2.4048,2.423,2.3894,2.3724,2.4147,2.4614,2.4974,2.5384,2.5811,2.6227,2.659,2.6808,2.7006,2.7149,2.731,2.7478,2.7683,2.7869,2.802,2.7789,2.7507,2.7469,2.701,2.6512,2.6133,2.6172,2.6459,2.6949,2.7502,2.8103,2.8517,2.8832,2.8443,2.7944,-0.2351,-0.383,-0.463,-0.5123,-0.5479,-0.6357,-0.6794,-0.695,-0.7391,-0.7551,-0.7385,-0.7224,-0.6912,-0.6322,-0.5622,-0.467,-0.386,-0.386,-0.3987,-0.41,-0.4392,-0.4838,-0.5166,-0.5517,-0.5834,-0.594,-0.6211,-0.6444,-0.7365,-0.8356,-0.9384,-1.0229,-1.0981,-1.1873,-1.2854,-1.3792,-1.4508,-1.5487,-1.6922,-1.7879,-1.6779,-1.3681,-0.9488,-0.5138,0.0809,0.5022,0.7759,0.9502,1.0432,1.0802,1.1202,1.1408,1.1916,1.2908,1.4094,1.4676,1.5563,1.6095,1.6774,1.8163,1.956,2.085,2.2016,2.3084,2.4059,2.4679,2.5091,2.5492,2.5546,2.5546,2.553,2.5562,2.5524,2.5432,2.5355,2.5355,2.5301,2.5301,2.5176,2.5091,2.5029,2.5013,2.4934,2.4679,2.4461,2.4679,2.5052,2.54,2.5811,2.626,2.6624,2.6971,2.7166,2.731,2.7448,2.7569,2.7719,2.7922,2.8101,2.8237,2.8294,2.8185,2.8064,2.7702,2.7054,2.6896,2.7046,2.7359,2.7759,2.8335,2.8922,2.9245,2.9525,2.9207,2.8674,0.0664,-0.1314,-0.2651,-0.3358,-0.3712,-0.4875,-0.542,-0.5584,-0.6086,-0.6367,-0.6253,-0.5928,-0.5492,-0.4948,-0.4288,-0.3226,-0.1838,-0.2522,-0.2894,-0.3247,-0.3877,-0.4569,-0.5053,-0.5528,-0.5874,-0.5897,-0.6023,-0.6147,-0.6515,-0.7307,-0.8398,-0.9436,-1.0347,-1.1308,-1.2398,-1.3386,-1.4228,-1.5075,-1.6824,-1.6331,-1.3589,-0.9471,-0.4587,0.0769,0.6298,1.0958,1.2754,1.3839,1.4554,1.4614,1.4616,1.4752,1.5209,1.6045,1.6979,1.7762,1.8906,1.9695,1.981,2.0443,2.1302,2.2264,2.3258,2.4287,2.4965,2.54,2.5567,2.5791,2.586,2.5934,2.5917,2.5881,2.5844,2.5807,2.577,2.577,2.5733,2.5717,2.5642,2.553,2.553,2.5696,2.5567,2.5362,2.5285,2.5285,2.553,2.5828,2.6225,2.6623,2.6908,2.723,2.7355,2.7513,2.7647,2.7824,2.7968,2.8136,2.8327,2.8448,2.8492,2.85,2.8407,2.7969,2.7635,2.792,2.8222,2.8389,2.8568,2.9055,2.9531,2.9934,3.0083,2.9786,2.9419,0.4473,0.2691,0.0326,-0.0883,-0.1439,-0.2996,-0.3663,-0.3602,-0.444,-0.4783,-0.4728,-0.4177,-0.3671,-0.3003,-0.2391,-0.1503,-0.0501,-0.1287,-0.1737,-0.2517,-0.3691,-0.4453,-0.5046,-0.5601,-0.6055,-0.6073,-0.6041,-0.5876,-0.5912,-0.63,-0.734,-0.8318,-0.9536,-1.0595,-1.1667,-1.2645,-1.3638,-1.4414,-1.5542,-1.3148,-0.916,-0.4549,0.0505,0.6814,1.2123,1.597,1.7408,1.7688,1.7671,1.753,1.729,1.7488,1.79,1.8639,1.9377,2.0378,2.1485,2.2257,2.2614,2.239,2.2716,2.3643,2.4554,2.5319,2.5742,2.5659,2.5824,2.6099,2.6187,2.6187,2.6203,2.6184,2.6168,2.6151,2.6134,2.6134,2.6118,2.6118,2.6046,2.5954,2.597,2.6079,2.6115,2.5901,2.5717,2.568,2.5885,2.6173,2.6521,2.6876,2.712,2.7341,2.7496,2.7665,2.7842,2.7986,2.8099,2.8246,2.8432,2.8587,2.8725,2.8704,2.8717,2.879,2.8602,2.902,2.9249,2.9045,2.9112,2.9642,3.0045,3.0221,3.0394,3.0239,2.9933,0.5184,0.4735,0.3572,0.2316,0.0993,-0.0276,-0.0828,-0.105,-0.1826,-0.2664,-0.3282,-0.3067,-0.2676,-0.1892,-0.0667,0.0278,0.089,0.087,0.0,-0.1176,-0.2382,-0.3755,-0.4681,-0.5624,-0.6192,-0.6232,-0.5971,-0.5513,-0.5203,-0.5544,-0.5817,-0.6817,-0.8361,-0.9762,-1.0821,-1.176,-1.2633,-1.2748,-1.2301,-0.9649,-0.3855,0.0572,0.5869,1.2717,1.6382,1.8963,1.9805,1.99,1.9708,1.9405,1.9111,1.9406,1.9943,2.0593,2.1424,2.2334,2.3394,2.4147,2.4587,2.4275,2.4331,2.5109,2.5786,2.6193,2.628,2.6241,2.6222,2.6399,2.6486,2.6486,2.645,2.645,2.645,2.6468,2.6452,2.6486,2.6452,2.6452,2.64,2.626,2.6277,2.6347,2.6399,2.6364,2.617,2.6063,2.6295,2.6521,2.6792,2.704,2.7215,2.7373,2.7526,2.7707,2.79,2.8042,2.8209,2.8353,2.8536,2.8687,2.8858,2.9003,2.9067,2.9246,2.933,2.9377,2.9382,2.9363,2.9525,2.9834,3.003,3.0202,3.0367,3.0557,3.0374,0.5757,0.6145,0.5923,0.4805,0.3202,0.243,0.1989,0.1712,0.094,-0.0277,-0.1555,-0.1671,-0.1394,-0.0556,0.0777,0.1925,0.2396,0.2511,0.1783,0.0464,-0.1168,-0.2852,-0.4364,-0.5457,-0.6144,-0.6213,-0.5836,-0.5307,-0.4714,-0.4725,-0.481,-0.5439,-0.6661,-0.8028,-0.9587,-1.0668,-1.1241,-1.0771,-0.9227,-0.4949,0.1417,0.5515,1.092,1.7086,2.0388,2.1055,2.1262,2.1051,2.0651,2.0423,2.0365,2.0706,2.1375,2.2147,2.304,2.3903,2.4722,2.5443,2.5717,2.579,2.5773,2.6352,2.659,2.6791,2.6791,2.6725,2.6674,2.6691,2.6759,2.6742,2.6708,2.6674,2.6742,2.6725,2.6742,2.6759,2.6725,2.6691,2.6674,2.659,2.664,2.6657,2.664,2.664,2.6521,2.64,2.6453,2.6657,2.6908,2.7087,2.7215,2.7373,2.7526,2.7736,2.7911,2.8081,2.8246,2.8432,2.8587,2.8761,2.8929,2.9089,2.9222,2.9289,2.9372,2.9472,2.9533,2.9531,2.9676,2.9857,3.0049,3.0247,3.0378,3.0557,3.0671,0.6524,0.7025,0.7025,0.6258,0.5097,0.4948,0.4666,0.4265,0.3545,0.2161,0.05,0.0501,0.0668,0.1332,0.2699,0.3732,0.4062,0.4319,0.3764,0.2272,0.0389,-0.1802,-0.3607,-0.4928,-0.5754,-0.6108,-0.5656,-0.4956,-0.4432,-0.3915,-0.3737,-0.3906,-0.4867,-0.6214,-0.7936,-0.9079,-0.9201,-0.8392,-0.6898,-0.0801,0.5565,0.9542,1.5157,2.0461,2.2584,2.2705,2.2153,2.1831,2.1407,2.1065,2.1415,2.1949,2.2765,2.3501,2.4413,2.5419,2.5881,2.6386,2.679,2.6822,2.6985,2.7161,2.7258,2.7244,2.7181,2.7038,2.6925,2.6925,2.6957,2.694,2.6925,2.6892,2.6926,2.6976,2.6975,2.6957,2.6957,2.6925,2.6891,2.6842,2.6892,2.6942,2.6909,2.6876,2.6825,2.6742,2.6691,2.6825,2.7038,2.7166,2.7279,2.7386,2.7557,2.7736,2.794,2.8164,2.8327,2.8484,2.8662,2.881,2.8975,2.9112,2.9243,2.931,2.9433,2.9551,2.9664,2.9736,2.9859,2.9956,3.0142,3.0318,3.0441,3.0557,3.0651,0.6928,0.7354,0.7456,0.7396,0.7074,0.6588,0.6421,0.6288,0.535,0.403,0.2658,0.222,0.222,0.3135,0.4835,0.5958,0.593,0.6296,0.5749,0.4318,0.2249,-0.0047,-0.2166,-0.3935,-0.4996,-0.5313,-0.5069,-0.4473,-0.4091,-0.3062,-0.2466,-0.256,-0.3572,-0.5117,-0.6478,-0.7398,-0.7412,-0.6506,-0.3476,0.1678,0.8441,1.2546,1.7283,2.3553,2.3708,2.3236,2.2608,2.2333,2.2083,2.1889,2.2346,2.3122,2.3877,2.4626,2.5287,2.6165,2.6691,2.7115,2.7547,2.7742,2.7771,2.7789,2.7672,2.76,2.7478,2.7296,2.7169,2.7087,2.7137,2.712,2.707,2.7023,2.7072,2.7105,2.712,2.712,2.712,2.7103,2.7085,2.7023,2.704,2.704,2.7024,2.7087,2.7038,2.7038,2.7021,2.6989,2.7135,2.7247,2.7359,2.7465,2.7617,2.7795,2.7968,2.8164,2.8353,2.851,2.8687,2.8858,2.8998,2.9156,2.9286,2.9372,2.9511,2.9626,2.9719,2.9825,2.994,3.0064,3.0226,3.0355,3.0441,3.0557,3.0651,0.7192,0.7568,0.7777,0.8103,0.8374,0.7889,0.7765,0.7741,0.6967,0.582,0.4678,0.4242,0.429,0.5214,0.6762,0.8176,0.7955,0.8214,0.7595,0.6157,0.4007,0.1418,-0.0964,-0.2794,-0.4189,-0.4588,-0.4171,-0.3516,-0.2575,-0.1656,-0.1152,-0.144,-0.2533,-0.3938,-0.5212,-0.6023,-0.6411,-0.5031,-0.1722,0.3416,0.9109,1.3892,1.8735,2.2362,2.3593,2.3211,2.2909,2.2794,2.2816,2.2881,2.3379,2.4083,2.4753,2.5427,2.6,2.6721,2.7321,2.773,2.8091,2.8282,2.8255,2.8174,2.7989,2.7836,2.7677,2.7465,2.7327,2.7264,2.7282,2.725,2.7201,2.7169,2.7169,2.7215,2.7247,2.7247,2.7279,2.7293,2.723,2.7201,2.7137,2.7122,2.7154,2.7247,2.7293,2.7324,2.7307,2.7293,2.7261,2.7373,2.7483,2.7557,2.7677,2.7806,2.7996,2.8164,2.8353,2.8492,2.8712,2.8881,2.9062,2.9218,2.9328,2.9451,2.9569,2.9682,2.979,2.9891,3.0034,3.0152,3.0254,3.0364,3.0462,3.0565,3.0651,0.7348,0.7723,0.8055,0.8533,0.8896,0.8837,0.8758,0.8731,0.8456,0.77,0.6673,0.6732,0.6823,0.7274,0.8559,0.9455,0.9985,1.0185,0.9195,0.7541,0.5465,0.269,0.0241,-0.1754,-0.2837,-0.3493,-0.3111,-0.1607,-0.0556,0.0726,0.0952,0.0056,-0.1009,-0.2691,-0.4092,-0.5267,-0.5752,-0.4379,-0.0926,0.4387,0.9924,1.4784,1.9066,2.2056,2.3102,2.3015,2.2924,2.299,2.3178,2.3547,2.4246,2.4753,2.5376,2.6152,2.6721,2.7289,2.7847,2.8146,2.838,2.851,2.8536,2.8414,2.8219,2.8035,2.7806,2.7617,2.7483,2.7376,2.7313,2.733,2.7299,2.7299,2.7299,2.7345,2.7359,2.739,2.7452,2.7434,2.7373,2.7359,2.7296,2.7313,2.7359,2.7465,2.7539,2.76,2.763,2.763,2.7569,2.7509,2.7587,2.7647,2.7719,2.7836,2.8007,2.8191,2.838,2.8536,2.8712,2.8905,2.9108,2.9262,2.937,2.9491,2.9626,2.9755,2.9907,3.0034,3.0157,3.0247,3.0336,3.0386,3.0482,3.0574,3.0658,0.7456,0.7895,0.8421,0.8883,0.9413,1.019,1.0285,0.9909,0.9688,0.9193,0.8443,0.8711,0.8989,0.9315,1.0284,1.1189,1.1685,1.1662,1.0797,0.9151,0.7176,0.4554,0.2281,0.0356,-0.0905,-0.1147,-0.0719,0.0605,0.1925,0.3254,0.3413,0.2479,0.1256,-0.087,-0.2867,-0.4615,-0.4819,-0.3864,-0.0227,0.4974,1.0478,1.5291,1.9071,2.1461,2.2728,2.274,2.2874,2.3654,2.4009,2.4416,2.5196,2.5789,2.6235,2.6707,2.7181,2.773,2.8119,2.8406,2.8536,2.8662,2.8687,2.8587,2.8406,2.8209,2.7996,2.7748,2.7587,2.7452,2.7345,2.733,2.7299,2.733,2.7362,2.7407,2.7421,2.7465,2.7526,2.7526,2.7465,2.7421,2.739,2.7513,2.7557,2.7647,2.7719,2.7836,2.7911,2.7911,2.7882,2.7777,2.7736,2.7766,2.7853,2.7968,2.8081,2.8246,2.8424,2.8605,2.8761,2.8929,2.9134,2.9307,2.9431,2.9569,2.9737,2.9926,3.0098,3.0185,3.024,3.033,3.0414,3.046,3.0511,3.0591,3.0665,0.7889,0.8315,0.8935,0.9555,1.0336,1.1267,1.1519,1.1259,1.1049,1.0661,1.0375,1.073,1.113,1.1622,1.2253,1.2925,1.3729,1.3058,1.2164,1.0935,0.8931,0.6503,0.4338,0.2727,0.1752,0.1576,0.2296,0.3803,0.5214,0.6014,0.6279,0.5531,0.4151,0.2356,0.0593,-0.0474,-0.1172,-0.0416,0.1891,0.6203,1.0798,1.5504,1.8784,2.1071,2.2148,2.2619,2.308,2.4241,2.4905,2.5285,2.611,2.6488,2.6842,2.7149,2.7504,2.8035,2.8282,2.8484,2.8612,2.8712,2.8737,2.8662,2.8562,2.838,2.8136,2.7893,2.7659,2.7465,2.7376,2.7299,2.7299,2.733,2.7376,2.7438,2.7465,2.7509,2.7539,2.7569,2.7557,2.7483,2.7544,2.7677,2.7795,2.7836,2.795,2.8063,2.8164,2.8191,2.8109,2.8025,2.794,2.7911,2.8014,2.8126,2.8237,2.8318,2.8476,2.863,2.8785,2.8975,2.92,2.9372,2.9512,2.9682,2.9857,3.0038,3.0171,3.0221,3.0273,3.039,3.0488,3.053,3.0557,3.063,3.0697,0.8474,0.8876,0.9599,1.0533,1.1519,1.2076,1.2412,1.2657,1.2403,1.2187,1.2199,1.2677,1.3192,1.3686,1.4093,1.4575,1.4756,1.4261,1.3402,1.2536,1.0359,0.8208,0.6605,0.5162,0.4699,0.4725,0.5589,0.7235,0.9446,1.0116,0.9738,0.8976,0.9058,0.7517,0.5032,0.4979,0.4511,0.4134,0.5625,0.8665,1.1481,1.5404,1.903,2.071,2.1857,2.2716,2.365,2.4626,2.5613,2.6201,2.6607,2.6923,2.7213,2.7522,2.7876,2.8146,2.8388,2.8543,2.8687,2.881,2.881,2.8785,2.8687,2.8536,2.8309,2.8007,2.7766,2.7539,2.7452,2.7345,2.733,2.7376,2.7421,2.7483,2.7496,2.7569,2.7612,2.7642,2.7659,2.7647,2.7795,2.7911,2.7968,2.8053,2.8146,2.83,2.8353,2.838,2.8353,2.8246,2.8164,2.8081,2.8154,2.8264,2.8318,2.8424,2.8572,2.8724,2.8852,2.9003,2.9246,2.9434,2.9626,2.9806,2.9972,3.0083,3.0218,3.0266,3.0323,3.0406,3.05,3.0577,3.0626,3.0665,3.0714,0.889,0.9361,1.0431,1.1351,1.2116,1.2491,1.2929,1.3372,1.3663,1.3558,1.3416,1.3928,1.4665,1.544,1.5505,1.5888,1.6096,1.5347,1.4466,1.3581,1.193,1.0591,0.9156,0.8398,0.7936,0.8126,0.9105,1.0819,1.2636,1.3261,1.3475,1.3248,1.3474,1.2439,0.9486,1.0006,1.0655,0.9223,1.0508,1.1448,1.3005,1.5919,1.9075,2.0834,2.2201,2.3464,2.4492,2.5597,2.632,2.6825,2.6989,2.7244,2.7552,2.7806,2.8035,2.8273,2.8466,2.8619,2.8785,2.8905,2.8952,2.8887,2.881,2.8669,2.844,2.8136,2.7853,2.7659,2.7496,2.7421,2.7376,2.7421,2.7465,2.7496,2.7539,2.7612,2.7683,2.773,2.7748,2.7864,2.8042,2.8126,2.8182,2.8264,2.838,2.8458,2.851,2.8562,2.8587,2.851,2.8432,2.8353,2.83,2.838,2.8432,2.851,2.8656,2.8828,2.8975,2.9138,2.9312,2.9532,2.9735,2.9924,3.0083,3.0171,3.0259,3.0337,3.039,3.0458,3.0521,3.0621,3.0671,3.0728,3.0765,0.9458,1.0079,1.1283,1.2197,1.2793,1.3266,1.3684,1.4201,1.4732,1.5028,1.5095,1.5484,1.6102,1.6888,1.6834,1.705,1.7314,1.6486,1.5955,1.5104,1.4259,1.3231,1.2283,1.1687,1.1677,1.1846,1.3254,1.4759,1.5844,1.6534,1.6862,1.7051,1.7624,1.71,1.441,1.6048,1.6118,1.4272,1.5453,1.5789,1.568,1.8198,1.9804,2.1404,2.2923,2.4208,2.518,2.6234,2.6901,2.7244,2.74,2.7582,2.7836,2.7996,2.8191,2.838,2.8562,2.8712,2.8858,2.8975,2.9067,2.8998,2.8952,2.881,2.8619,2.8335,2.8063,2.7876,2.7642,2.7557,2.7483,2.7465,2.7496,2.7539,2.7587,2.763,2.7748,2.7853,2.7882,2.795,2.8164,2.838,2.8432,2.8466,2.8569,2.8637,2.8705,2.8705,2.873,2.8712,2.8637,2.8587,2.8536,2.851,2.851,2.8612,2.8761,2.8929,2.9112,2.9291,2.9493,2.9699,2.9872,3.0019,3.0142,3.0226,3.0305,3.0386,3.0466,3.053,3.0586,3.0661,3.071,3.076,3.079,1.0182,1.0998,1.2169,1.3016,1.3552,1.4071,1.4536,1.5073,1.5656,1.6386,1.6995,1.7053,1.7733,1.8092,1.8189,1.8356,1.8313,1.7898,1.7456,1.7195,1.6617,1.5802,1.5397,1.515,1.5157,1.5815,1.7101,1.7963,1.8807,1.9487,2.0063,2.0478,2.0948,2.1328,2.1084,2.087,2.0102,1.9109,1.9429,2.01,2.0604,2.0977,2.1383,2.2382,2.3712,2.5063,2.5893,2.6633,2.7409,2.7642,2.7806,2.7922,2.8035,2.8182,2.8327,2.8466,2.8637,2.8785,2.897,2.9085,2.9112,2.9089,2.9062,2.8947,2.8761,2.8569,2.8309,2.8045,2.7847,2.7672,2.7569,2.7557,2.7569,2.7617,2.7647,2.7707,2.7871,2.7986,2.8025,2.8063,2.8309,2.8562,2.8619,2.8669,2.8718,2.8785,2.8828,2.8828,2.8828,2.881,2.8761,2.8737,2.8694,2.8687,2.8662,2.8737,2.8858,2.9044,2.9222,2.9472,2.9682,2.9823,2.9972,3.0128,3.0232,3.0279,3.0343,3.0414,3.0499,3.0588,3.0629,3.069,3.0728,3.0774,3.0807,1.1133,1.2276,1.2957,1.3552,1.4071,1.4593,1.5085,1.5688,1.633,1.7079,1.7854,1.8584,1.9096,1.9367,1.9463,1.9617,1.9702,1.9334,1.9329,1.9199,1.8646,1.8297,1.8041,1.7885,1.8477,1.9197,1.9988,2.0705,2.1088,2.2073,2.2776,2.2765,2.3259,2.3485,2.3276,2.2987,2.2359,2.172,2.1404,2.166,2.223,2.2557,2.3058,2.4017,2.5095,2.609,2.6878,2.7442,2.7783,2.8017,2.8146,2.8201,2.8273,2.8327,2.844,2.8569,2.8737,2.8876,2.9017,2.9152,2.9197,2.9197,2.913,2.9044,2.8905,2.8785,2.8518,2.8237,2.8017,2.776,2.7659,2.7642,2.7672,2.7707,2.7724,2.7871,2.8014,2.8109,2.8219,2.8335,2.8518,2.8669,2.8725,2.8791,2.8858,2.8905,2.8905,2.8905,2.897,2.8929,2.8881,2.8881,2.8839,2.8839,2.8858,2.8881,2.8998,2.9156,2.9349,2.9551,2.9754,2.9891,3.0053,3.0204,3.0272,3.0305,3.0379,3.0447,3.052,3.0606,3.0661,3.0704,3.0745,3.0782,3.0813]}]]